<?xml version="1.0" encoding="UTF-8" standalone="no" ?>
<gpx xmlns="http://www.topografix.com/GPX/1/1" xmlns:xsi="http://www.w3.org/2001/XMLSchema-instance" xsi:schemaLocation="http://www.topografix.com/GPX/1/1 http://www.topografix.com/GPX/1/1/gpx.xsd" version="1.1" creator="VisuGPX - https://www.visugpx.com">
  <metadata>
    <name>Guirbaden en tandem</name>
    <desc><![CDATA[Rosenwiller - Eschwald - Col du Guirbaden - Floessplatz - Mutzig - Dorlisheim]]></desc>
  </metadata>
  <wpt lat="48.50042" lon="7.47471">
    <ele>187</ele>
    <name><![CDATA[Start]]></name>
    <desc><![CDATA[2017-04-09 10:23:42]]></desc>
  </wpt>
  <wpt lat="48.50048" lon="7.47468">
    <ele>187</ele>
    <name><![CDATA[Lap 1]]></name>
    <desc><![CDATA[31.08km, 114:38, 16.3kph]]></desc>
  </wpt>
  <trk>
    <name><![CDATA[09_04_2017 12_23_42_history]]></name>
    <desc><![CDATA[114:38 - 31.1km]]></desc>
    <trkseg>
      <trkpt lat="48.50042" lon="7.47471">
        <ele>187</ele>
        <time>2017-04-09T10:23:42Z</time>
      </trkpt>
      <trkpt lat="48.50042" lon="7.47471">
        <ele>187</ele>
        <time>2017-04-09T10:23:43Z</time>
      </trkpt>
      <trkpt lat="48.50048" lon="7.47463">
        <ele>187</ele>
        <time>2017-04-09T10:23:52Z</time>
      </trkpt>
      <trkpt lat="48.50054" lon="7.47458">
        <ele>187</ele>
        <time>2017-04-09T10:23:55Z</time>
      </trkpt>
      <trkpt lat="48.50056" lon="7.47435">
        <ele>187</ele>
        <time>2017-04-09T10:24:00Z</time>
      </trkpt>
      <trkpt lat="48.50048" lon="7.47409">
        <ele>189</ele>
        <time>2017-04-09T10:24:06Z</time>
      </trkpt>
      <trkpt lat="48.50043" lon="7.47402">
        <ele>189</ele>
        <time>2017-04-09T10:24:08Z</time>
      </trkpt>
      <trkpt lat="48.50039" lon="7.47392">
        <ele>189</ele>
        <time>2017-04-09T10:24:10Z</time>
      </trkpt>
      <trkpt lat="48.50025" lon="7.47354">
        <ele>190</ele>
        <time>2017-04-09T10:24:18Z</time>
      </trkpt>
      <trkpt lat="48.50014" lon="7.4732">
        <ele>191</ele>
        <time>2017-04-09T10:24:25Z</time>
      </trkpt>
      <trkpt lat="48.50012" lon="7.47316">
        <ele>191</ele>
        <time>2017-04-09T10:24:26Z</time>
      </trkpt>
      <trkpt lat="48.5001" lon="7.47312">
        <ele>191</ele>
        <time>2017-04-09T10:24:27Z</time>
      </trkpt>
      <trkpt lat="48.50008" lon="7.47307">
        <ele>191</ele>
        <time>2017-04-09T10:24:28Z</time>
      </trkpt>
      <trkpt lat="48.50007" lon="7.47302">
        <ele>191</ele>
        <time>2017-04-09T10:24:29Z</time>
      </trkpt>
      <trkpt lat="48.50002" lon="7.47289">
        <ele>191</ele>
        <time>2017-04-09T10:24:32Z</time>
      </trkpt>
      <trkpt lat="48.5" lon="7.47276">
        <ele>191</ele>
        <time>2017-04-09T10:24:35Z</time>
      </trkpt>
      <trkpt lat="48.5" lon="7.47272">
        <ele>191</ele>
        <time>2017-04-09T10:24:36Z</time>
      </trkpt>
      <trkpt lat="48.49999" lon="7.47267">
        <ele>191</ele>
        <time>2017-04-09T10:24:37Z</time>
      </trkpt>
      <trkpt lat="48.49999" lon="7.47262">
        <ele>191</ele>
        <time>2017-04-09T10:24:38Z</time>
      </trkpt>
      <trkpt lat="48.49998" lon="7.47257">
        <ele>191</ele>
        <time>2017-04-09T10:24:39Z</time>
      </trkpt>
      <trkpt lat="48.49994" lon="7.47233">
        <ele>192</ele>
        <time>2017-04-09T10:24:44Z</time>
      </trkpt>
      <trkpt lat="48.49985" lon="7.47194">
        <ele>193</ele>
        <time>2017-04-09T10:24:52Z</time>
      </trkpt>
      <trkpt lat="48.49975" lon="7.47154">
        <ele>195</ele>
        <time>2017-04-09T10:25:00Z</time>
      </trkpt>
      <trkpt lat="48.49974" lon="7.47149">
        <ele>195</ele>
        <time>2017-04-09T10:25:01Z</time>
      </trkpt>
      <trkpt lat="48.49973" lon="7.47144">
        <ele>195</ele>
        <time>2017-04-09T10:25:02Z</time>
      </trkpt>
      <trkpt lat="48.49972" lon="7.47139">
        <ele>195</ele>
        <time>2017-04-09T10:25:03Z</time>
      </trkpt>
      <trkpt lat="48.49971" lon="7.47134">
        <ele>196</ele>
        <time>2017-04-09T10:25:04Z</time>
      </trkpt>
      <trkpt lat="48.49966" lon="7.47121">
        <ele>196</ele>
        <time>2017-04-09T10:25:07Z</time>
      </trkpt>
      <trkpt lat="48.49959" lon="7.47102">
        <ele>196</ele>
        <time>2017-04-09T10:25:11Z</time>
      </trkpt>
      <trkpt lat="48.49946" lon="7.47065">
        <ele>197</ele>
        <time>2017-04-09T10:25:19Z</time>
      </trkpt>
      <trkpt lat="48.49935" lon="7.47022">
        <ele>197</ele>
        <time>2017-04-09T10:25:27Z</time>
      </trkpt>
      <trkpt lat="48.49935" lon="7.47017">
        <ele>197</ele>
        <time>2017-04-09T10:25:28Z</time>
      </trkpt>
      <trkpt lat="48.49934" lon="7.47014">
        <ele>197</ele>
        <time>2017-04-09T10:25:29Z</time>
      </trkpt>
      <trkpt lat="48.49934" lon="7.47011">
        <ele>197</ele>
        <time>2017-04-09T10:25:30Z</time>
      </trkpt>
      <trkpt lat="48.49933" lon="7.47008">
        <ele>197</ele>
        <time>2017-04-09T10:25:31Z</time>
      </trkpt>
      <trkpt lat="48.49932" lon="7.47005">
        <ele>197</ele>
        <time>2017-04-09T10:25:32Z</time>
      </trkpt>
      <trkpt lat="48.49925" lon="7.46986">
        <ele>198</ele>
        <time>2017-04-09T10:25:38Z</time>
      </trkpt>
      <trkpt lat="48.49919" lon="7.4696">
        <ele>198</ele>
        <time>2017-04-09T10:25:43Z</time>
      </trkpt>
      <trkpt lat="48.4991" lon="7.46922">
        <ele>199</ele>
        <time>2017-04-09T10:25:51Z</time>
      </trkpt>
      <trkpt lat="48.49905" lon="7.46899">
        <ele>199</ele>
        <time>2017-04-09T10:25:56Z</time>
      </trkpt>
      <trkpt lat="48.49904" lon="7.46893">
        <ele>199</ele>
        <time>2017-04-09T10:25:57Z</time>
      </trkpt>
      <trkpt lat="48.49903" lon="7.46888">
        <ele>199</ele>
        <time>2017-04-09T10:25:58Z</time>
      </trkpt>
      <trkpt lat="48.49901" lon="7.46883">
        <ele>199</ele>
        <time>2017-04-09T10:25:59Z</time>
      </trkpt>
      <trkpt lat="48.49897" lon="7.46854">
        <ele>200</ele>
        <time>2017-04-09T10:26:05Z</time>
      </trkpt>
      <trkpt lat="48.49892" lon="7.46816">
        <ele>201</ele>
        <time>2017-04-09T10:26:13Z</time>
      </trkpt>
      <trkpt lat="48.49884" lon="7.46773">
        <ele>201</ele>
        <time>2017-04-09T10:26:22Z</time>
      </trkpt>
      <trkpt lat="48.49883" lon="7.46768">
        <ele>201</ele>
        <time>2017-04-09T10:26:23Z</time>
      </trkpt>
      <trkpt lat="48.49882" lon="7.46763">
        <ele>201</ele>
        <time>2017-04-09T10:26:24Z</time>
      </trkpt>
      <trkpt lat="48.49881" lon="7.46758">
        <ele>201</ele>
        <time>2017-04-09T10:26:25Z</time>
      </trkpt>
      <trkpt lat="48.49881" lon="7.46753">
        <ele>201</ele>
        <time>2017-04-09T10:26:26Z</time>
      </trkpt>
      <trkpt lat="48.4988" lon="7.46749">
        <ele>203</ele>
        <time>2017-04-09T10:26:27Z</time>
      </trkpt>
      <trkpt lat="48.49878" lon="7.46737">
        <ele>203</ele>
        <time>2017-04-09T10:26:29Z</time>
      </trkpt>
      <trkpt lat="48.49871" lon="7.46689">
        <ele>203</ele>
        <time>2017-04-09T10:26:38Z</time>
      </trkpt>
      <trkpt lat="48.49872" lon="7.4666">
        <ele>204</ele>
        <time>2017-04-09T10:26:44Z</time>
      </trkpt>
      <trkpt lat="48.49873" lon="7.46654">
        <ele>204</ele>
        <time>2017-04-09T10:26:45Z</time>
      </trkpt>
      <trkpt lat="48.49874" lon="7.46649">
        <ele>204</ele>
        <time>2017-04-09T10:26:46Z</time>
      </trkpt>
      <trkpt lat="48.49875" lon="7.46644">
        <ele>204</ele>
        <time>2017-04-09T10:26:47Z</time>
      </trkpt>
      <trkpt lat="48.49875" lon="7.46639">
        <ele>204</ele>
        <time>2017-04-09T10:26:48Z</time>
      </trkpt>
      <trkpt lat="48.49878" lon="7.46612">
        <ele>204</ele>
        <time>2017-04-09T10:26:54Z</time>
      </trkpt>
      <trkpt lat="48.49886" lon="7.4658">
        <ele>206</ele>
        <time>2017-04-09T10:27:01Z</time>
      </trkpt>
      <trkpt lat="48.49887" lon="7.46576">
        <ele>206</ele>
        <time>2017-04-09T10:27:02Z</time>
      </trkpt>
      <trkpt lat="48.49888" lon="7.46572">
        <ele>206</ele>
        <time>2017-04-09T10:27:03Z</time>
      </trkpt>
      <trkpt lat="48.4989" lon="7.46567">
        <ele>206</ele>
        <time>2017-04-09T10:27:04Z</time>
      </trkpt>
      <trkpt lat="48.49891" lon="7.46563">
        <ele>206</ele>
        <time>2017-04-09T10:27:05Z</time>
      </trkpt>
      <trkpt lat="48.49891" lon="7.46558">
        <ele>206</ele>
        <time>2017-04-09T10:27:06Z</time>
      </trkpt>
      <trkpt lat="48.49896" lon="7.46546">
        <ele>207</ele>
        <time>2017-04-09T10:27:09Z</time>
      </trkpt>
      <trkpt lat="48.49908" lon="7.46507">
        <ele>208</ele>
        <time>2017-04-09T10:27:18Z</time>
      </trkpt>
      <trkpt lat="48.49911" lon="7.46499">
        <ele>209</ele>
        <time>2017-04-09T10:27:20Z</time>
      </trkpt>
      <trkpt lat="48.49912" lon="7.46494">
        <ele>209</ele>
        <time>2017-04-09T10:27:21Z</time>
      </trkpt>
      <trkpt lat="48.49912" lon="7.46491">
        <ele>209</ele>
        <time>2017-04-09T10:27:22Z</time>
      </trkpt>
      <trkpt lat="48.49913" lon="7.46487">
        <ele>209</ele>
        <time>2017-04-09T10:27:23Z</time>
      </trkpt>
      <trkpt lat="48.49913" lon="7.46484">
        <ele>209</ele>
        <time>2017-04-09T10:27:24Z</time>
      </trkpt>
      <trkpt lat="48.49916" lon="7.46476">
        <ele>209</ele>
        <time>2017-04-09T10:27:26Z</time>
      </trkpt>
      <trkpt lat="48.49924" lon="7.46436">
        <ele>210</ele>
        <time>2017-04-09T10:27:36Z</time>
      </trkpt>
      <trkpt lat="48.49928" lon="7.46424">
        <ele>211</ele>
        <time>2017-04-09T10:27:39Z</time>
      </trkpt>
      <trkpt lat="48.4993" lon="7.46419">
        <ele>211</ele>
        <time>2017-04-09T10:27:40Z</time>
      </trkpt>
      <trkpt lat="48.49931" lon="7.46414">
        <ele>212</ele>
        <time>2017-04-09T10:27:41Z</time>
      </trkpt>
      <trkpt lat="48.49932" lon="7.4641">
        <ele>212</ele>
        <time>2017-04-09T10:27:42Z</time>
      </trkpt>
      <trkpt lat="48.49934" lon="7.46406">
        <ele>212</ele>
        <time>2017-04-09T10:27:43Z</time>
      </trkpt>
      <trkpt lat="48.49939" lon="7.46393">
        <ele>212</ele>
        <time>2017-04-09T10:27:46Z</time>
      </trkpt>
      <trkpt lat="48.49951" lon="7.46359">
        <ele>212</ele>
        <time>2017-04-09T10:27:54Z</time>
      </trkpt>
      <trkpt lat="48.49954" lon="7.46351">
        <ele>212</ele>
        <time>2017-04-09T10:27:56Z</time>
      </trkpt>
      <trkpt lat="48.49955" lon="7.46346">
        <ele>212</ele>
        <time>2017-04-09T10:27:57Z</time>
      </trkpt>
      <trkpt lat="48.49956" lon="7.46341">
        <ele>212</ele>
        <time>2017-04-09T10:27:58Z</time>
      </trkpt>
      <trkpt lat="48.49957" lon="7.46337">
        <ele>212</ele>
        <time>2017-04-09T10:27:59Z</time>
      </trkpt>
      <trkpt lat="48.49959" lon="7.46332">
        <ele>214</ele>
        <time>2017-04-09T10:28:00Z</time>
      </trkpt>
      <trkpt lat="48.49965" lon="7.46314">
        <ele>214</ele>
        <time>2017-04-09T10:28:04Z</time>
      </trkpt>
      <trkpt lat="48.4998" lon="7.46268">
        <ele>214</ele>
        <time>2017-04-09T10:28:15Z</time>
      </trkpt>
      <trkpt lat="48.49992" lon="7.46226">
        <ele>216</ele>
        <time>2017-04-09T10:28:24Z</time>
      </trkpt>
      <trkpt lat="48.49996" lon="7.46212">
        <ele>217</ele>
        <time>2017-04-09T10:28:27Z</time>
      </trkpt>
      <trkpt lat="48.49998" lon="7.46207">
        <ele>217</ele>
        <time>2017-04-09T10:28:28Z</time>
      </trkpt>
      <trkpt lat="48.5" lon="7.46203">
        <ele>217</ele>
        <time>2017-04-09T10:28:29Z</time>
      </trkpt>
      <trkpt lat="48.50001" lon="7.46198">
        <ele>215</ele>
        <time>2017-04-09T10:28:30Z</time>
      </trkpt>
      <trkpt lat="48.50003" lon="7.46193">
        <ele>215</ele>
        <time>2017-04-09T10:28:31Z</time>
      </trkpt>
      <trkpt lat="48.50005" lon="7.46188">
        <ele>216</ele>
        <time>2017-04-09T10:28:32Z</time>
      </trkpt>
      <trkpt lat="48.50022" lon="7.46137">
        <ele>218</ele>
        <time>2017-04-09T10:28:43Z</time>
      </trkpt>
      <trkpt lat="48.50034" lon="7.46106">
        <ele>218</ele>
        <time>2017-04-09T10:28:50Z</time>
      </trkpt>
      <trkpt lat="48.50045" lon="7.4608">
        <ele>220</ele>
        <time>2017-04-09T10:28:56Z</time>
      </trkpt>
      <trkpt lat="48.50062" lon="7.46038">
        <ele>219</ele>
        <time>2017-04-09T10:29:06Z</time>
      </trkpt>
      <trkpt lat="48.50067" lon="7.46017">
        <ele>219</ele>
        <time>2017-04-09T10:29:11Z</time>
      </trkpt>
      <trkpt lat="48.50069" lon="7.46013">
        <ele>219</ele>
        <time>2017-04-09T10:29:12Z</time>
      </trkpt>
      <trkpt lat="48.50071" lon="7.46009">
        <ele>219</ele>
        <time>2017-04-09T10:29:13Z</time>
      </trkpt>
      <trkpt lat="48.50072" lon="7.46005">
        <ele>219</ele>
        <time>2017-04-09T10:29:14Z</time>
      </trkpt>
      <trkpt lat="48.50074" lon="7.46001">
        <ele>219</ele>
        <time>2017-04-09T10:29:15Z</time>
      </trkpt>
      <trkpt lat="48.50088" lon="7.45963">
        <ele>220</ele>
        <time>2017-04-09T10:29:24Z</time>
      </trkpt>
      <trkpt lat="48.50095" lon="7.45932">
        <ele>220</ele>
        <time>2017-04-09T10:29:31Z</time>
      </trkpt>
      <trkpt lat="48.50096" lon="7.45918">
        <ele>220</ele>
        <time>2017-04-09T10:29:34Z</time>
      </trkpt>
      <trkpt lat="48.50097" lon="7.45913">
        <ele>221</ele>
        <time>2017-04-09T10:29:35Z</time>
      </trkpt>
      <trkpt lat="48.50098" lon="7.45908">
        <ele>221</ele>
        <time>2017-04-09T10:29:36Z</time>
      </trkpt>
      <trkpt lat="48.50099" lon="7.45903">
        <ele>221</ele>
        <time>2017-04-09T10:29:37Z</time>
      </trkpt>
      <trkpt lat="48.50099" lon="7.45898">
        <ele>221</ele>
        <time>2017-04-09T10:29:38Z</time>
      </trkpt>
      <trkpt lat="48.501" lon="7.45884">
        <ele>221</ele>
        <time>2017-04-09T10:29:41Z</time>
      </trkpt>
      <trkpt lat="48.50102" lon="7.45837">
        <ele>223</ele>
        <time>2017-04-09T10:29:51Z</time>
      </trkpt>
      <trkpt lat="48.50105" lon="7.45798">
        <ele>223</ele>
        <time>2017-04-09T10:29:59Z</time>
      </trkpt>
      <trkpt lat="48.50105" lon="7.45793">
        <ele>223</ele>
        <time>2017-04-09T10:30:00Z</time>
      </trkpt>
      <trkpt lat="48.50105" lon="7.45788">
        <ele>223</ele>
        <time>2017-04-09T10:30:01Z</time>
      </trkpt>
      <trkpt lat="48.50106" lon="7.45783">
        <ele>223</ele>
        <time>2017-04-09T10:30:02Z</time>
      </trkpt>
      <trkpt lat="48.50107" lon="7.45778">
        <ele>223</ele>
        <time>2017-04-09T10:30:03Z</time>
      </trkpt>
      <trkpt lat="48.50109" lon="7.45727">
        <ele>223</ele>
        <time>2017-04-09T10:30:13Z</time>
      </trkpt>
      <trkpt lat="48.50113" lon="7.45663">
        <ele>223</ele>
        <time>2017-04-09T10:30:25Z</time>
      </trkpt>
      <trkpt lat="48.50118" lon="7.45606">
        <ele>223</ele>
        <time>2017-04-09T10:30:36Z</time>
      </trkpt>
      <trkpt lat="48.50128" lon="7.45554">
        <ele>223</ele>
        <time>2017-04-09T10:30:46Z</time>
      </trkpt>
      <trkpt lat="48.5013" lon="7.45543">
        <ele>222</ele>
        <time>2017-04-09T10:30:48Z</time>
      </trkpt>
      <trkpt lat="48.50131" lon="7.45538">
        <ele>222</ele>
        <time>2017-04-09T10:30:49Z</time>
      </trkpt>
      <trkpt lat="48.50132" lon="7.45533">
        <ele>222</ele>
        <time>2017-04-09T10:30:50Z</time>
      </trkpt>
      <trkpt lat="48.50134" lon="7.45528">
        <ele>222</ele>
        <time>2017-04-09T10:30:51Z</time>
      </trkpt>
      <trkpt lat="48.50135" lon="7.45523">
        <ele>222</ele>
        <time>2017-04-09T10:30:52Z</time>
      </trkpt>
      <trkpt lat="48.50143" lon="7.45499">
        <ele>222</ele>
        <time>2017-04-09T10:30:57Z</time>
      </trkpt>
      <trkpt lat="48.5016" lon="7.45456">
        <ele>222</ele>
        <time>2017-04-09T10:31:07Z</time>
      </trkpt>
      <trkpt lat="48.50188" lon="7.45401">
        <ele>225</ele>
        <time>2017-04-09T10:31:21Z</time>
      </trkpt>
      <trkpt lat="48.50191" lon="7.45393">
        <ele>225</ele>
        <time>2017-04-09T10:31:23Z</time>
      </trkpt>
      <trkpt lat="48.50193" lon="7.45389">
        <ele>225</ele>
        <time>2017-04-09T10:31:24Z</time>
      </trkpt>
      <trkpt lat="48.50196" lon="7.45385">
        <ele>225</ele>
        <time>2017-04-09T10:31:25Z</time>
      </trkpt>
      <trkpt lat="48.50198" lon="7.45382">
        <ele>226</ele>
        <time>2017-04-09T10:31:26Z</time>
      </trkpt>
      <trkpt lat="48.50201" lon="7.45379">
        <ele>226</ele>
        <time>2017-04-09T10:31:27Z</time>
      </trkpt>
      <trkpt lat="48.5021" lon="7.45364">
        <ele>226</ele>
        <time>2017-04-09T10:31:31Z</time>
      </trkpt>
      <trkpt lat="48.5023" lon="7.45327">
        <ele>228</ele>
        <time>2017-04-09T10:31:41Z</time>
      </trkpt>
      <trkpt lat="48.50251" lon="7.45279">
        <ele>232</ele>
        <time>2017-04-09T10:31:53Z</time>
      </trkpt>
      <trkpt lat="48.50253" lon="7.45275">
        <ele>232</ele>
        <time>2017-04-09T10:31:54Z</time>
      </trkpt>
      <trkpt lat="48.50254" lon="7.45271">
        <ele>232</ele>
        <time>2017-04-09T10:31:55Z</time>
      </trkpt>
      <trkpt lat="48.50256" lon="7.45266">
        <ele>232</ele>
        <time>2017-04-09T10:31:56Z</time>
      </trkpt>
      <trkpt lat="48.50257" lon="7.45262">
        <ele>231</ele>
        <time>2017-04-09T10:31:57Z</time>
      </trkpt>
      <trkpt lat="48.50274" lon="7.45217">
        <ele>235</ele>
        <time>2017-04-09T10:32:08Z</time>
      </trkpt>
      <trkpt lat="48.50284" lon="7.45195">
        <ele>236</ele>
        <time>2017-04-09T10:32:14Z</time>
      </trkpt>
      <trkpt lat="48.50286" lon="7.45191">
        <ele>236</ele>
        <time>2017-04-09T10:32:15Z</time>
      </trkpt>
      <trkpt lat="48.50287" lon="7.45187">
        <ele>236</ele>
        <time>2017-04-09T10:32:16Z</time>
      </trkpt>
      <trkpt lat="48.50288" lon="7.45183">
        <ele>237</ele>
        <time>2017-04-09T10:32:17Z</time>
      </trkpt>
      <trkpt lat="48.50289" lon="7.4518">
        <ele>237</ele>
        <time>2017-04-09T10:32:18Z</time>
      </trkpt>
      <trkpt lat="48.50299" lon="7.45158">
        <ele>239</ele>
        <time>2017-04-09T10:32:24Z</time>
      </trkpt>
      <trkpt lat="48.50308" lon="7.45138">
        <ele>239</ele>
        <time>2017-04-09T10:32:30Z</time>
      </trkpt>
      <trkpt lat="48.50309" lon="7.45135">
        <ele>239</ele>
        <time>2017-04-09T10:32:31Z</time>
      </trkpt>
      <trkpt lat="48.50309" lon="7.45131">
        <ele>239</ele>
        <time>2017-04-09T10:32:32Z</time>
      </trkpt>
      <trkpt lat="48.50309" lon="7.45127">
        <ele>239</ele>
        <time>2017-04-09T10:32:33Z</time>
      </trkpt>
      <trkpt lat="48.5031" lon="7.45124">
        <ele>240</ele>
        <time>2017-04-09T10:32:34Z</time>
      </trkpt>
      <trkpt lat="48.50314" lon="7.45106">
        <ele>240</ele>
        <time>2017-04-09T10:32:39Z</time>
      </trkpt>
      <trkpt lat="48.50315" lon="7.45102">
        <ele>240</ele>
        <time>2017-04-09T10:32:40Z</time>
      </trkpt>
      <trkpt lat="48.50317" lon="7.45098">
        <ele>239</ele>
        <time>2017-04-09T10:32:41Z</time>
      </trkpt>
      <trkpt lat="48.50317" lon="7.45094">
        <ele>239</ele>
        <time>2017-04-09T10:32:42Z</time>
      </trkpt>
      <trkpt lat="48.50318" lon="7.45091">
        <ele>239</ele>
        <time>2017-04-09T10:32:43Z</time>
      </trkpt>
      <trkpt lat="48.50327" lon="7.4507">
        <ele>240</ele>
        <time>2017-04-09T10:32:50Z</time>
      </trkpt>
      <trkpt lat="48.50332" lon="7.45063">
        <ele>240</ele>
        <time>2017-04-09T10:32:53Z</time>
      </trkpt>
      <trkpt lat="48.50333" lon="7.4506">
        <ele>243</ele>
        <time>2017-04-09T10:32:54Z</time>
      </trkpt>
      <trkpt lat="48.50335" lon="7.45057">
        <ele>243</ele>
        <time>2017-04-09T10:32:55Z</time>
      </trkpt>
      <trkpt lat="48.50336" lon="7.45054">
        <ele>243</ele>
        <time>2017-04-09T10:32:56Z</time>
      </trkpt>
      <trkpt lat="48.50338" lon="7.45051">
        <ele>243</ele>
        <time>2017-04-09T10:32:57Z</time>
      </trkpt>
      <trkpt lat="48.50345" lon="7.45037">
        <ele>244</ele>
        <time>2017-04-09T10:33:02Z</time>
      </trkpt>
      <trkpt lat="48.50349" lon="7.45028">
        <ele>244</ele>
        <time>2017-04-09T10:33:05Z</time>
      </trkpt>
      <trkpt lat="48.50351" lon="7.45025">
        <ele>244</ele>
        <time>2017-04-09T10:33:06Z</time>
      </trkpt>
      <trkpt lat="48.50353" lon="7.45022">
        <ele>244</ele>
        <time>2017-04-09T10:33:07Z</time>
      </trkpt>
      <trkpt lat="48.50354" lon="7.45019">
        <ele>244</ele>
        <time>2017-04-09T10:33:08Z</time>
      </trkpt>
      <trkpt lat="48.50356" lon="7.45016">
        <ele>244</ele>
        <time>2017-04-09T10:33:09Z</time>
      </trkpt>
      <trkpt lat="48.50357" lon="7.45013">
        <ele>244</ele>
        <time>2017-04-09T10:33:10Z</time>
      </trkpt>
      <trkpt lat="48.50362" lon="7.44999">
        <ele>243</ele>
        <time>2017-04-09T10:33:14Z</time>
      </trkpt>
      <trkpt lat="48.50363" lon="7.44996">
        <ele>243</ele>
        <time>2017-04-09T10:33:15Z</time>
      </trkpt>
      <trkpt lat="48.50364" lon="7.44993">
        <ele>243</ele>
        <time>2017-04-09T10:33:16Z</time>
      </trkpt>
      <trkpt lat="48.50366" lon="7.4499">
        <ele>243</ele>
        <time>2017-04-09T10:33:17Z</time>
      </trkpt>
      <trkpt lat="48.50367" lon="7.44987">
        <ele>244</ele>
        <time>2017-04-09T10:33:18Z</time>
      </trkpt>
      <trkpt lat="48.50369" lon="7.44981">
        <ele>244</ele>
        <time>2017-04-09T10:33:20Z</time>
      </trkpt>
      <trkpt lat="48.50375" lon="7.44961">
        <ele>244</ele>
        <time>2017-04-09T10:33:26Z</time>
      </trkpt>
      <trkpt lat="48.50376" lon="7.44958">
        <ele>244</ele>
        <time>2017-04-09T10:33:27Z</time>
      </trkpt>
      <trkpt lat="48.50377" lon="7.44954">
        <ele>244</ele>
        <time>2017-04-09T10:33:28Z</time>
      </trkpt>
      <trkpt lat="48.50378" lon="7.44951">
        <ele>244</ele>
        <time>2017-04-09T10:33:29Z</time>
      </trkpt>
      <trkpt lat="48.50379" lon="7.44948">
        <ele>244</ele>
        <time>2017-04-09T10:33:30Z</time>
      </trkpt>
      <trkpt lat="48.50385" lon="7.44925">
        <ele>245</ele>
        <time>2017-04-09T10:33:37Z</time>
      </trkpt>
      <trkpt lat="48.50386" lon="7.44921">
        <ele>245</ele>
        <time>2017-04-09T10:33:38Z</time>
      </trkpt>
      <trkpt lat="48.50387" lon="7.44918">
        <ele>245</ele>
        <time>2017-04-09T10:33:39Z</time>
      </trkpt>
      <trkpt lat="48.50388" lon="7.44915">
        <ele>244</ele>
        <time>2017-04-09T10:33:40Z</time>
      </trkpt>
      <trkpt lat="48.50389" lon="7.44911">
        <ele>244</ele>
        <time>2017-04-09T10:33:41Z</time>
      </trkpt>
      <trkpt lat="48.50396" lon="7.44887">
        <ele>244</ele>
        <time>2017-04-09T10:33:48Z</time>
      </trkpt>
      <trkpt lat="48.50397" lon="7.44884">
        <ele>244</ele>
        <time>2017-04-09T10:33:49Z</time>
      </trkpt>
      <trkpt lat="48.50398" lon="7.4488">
        <ele>244</ele>
        <time>2017-04-09T10:33:50Z</time>
      </trkpt>
      <trkpt lat="48.50399" lon="7.44873">
        <ele>244</ele>
        <time>2017-04-09T10:33:52Z</time>
      </trkpt>
      <trkpt lat="48.504" lon="7.4487">
        <ele>244</ele>
        <time>2017-04-09T10:33:53Z</time>
      </trkpt>
      <trkpt lat="48.50401" lon="7.44867">
        <ele>244</ele>
        <time>2017-04-09T10:33:54Z</time>
      </trkpt>
      <trkpt lat="48.50408" lon="7.44848">
        <ele>245</ele>
        <time>2017-04-09T10:33:59Z</time>
      </trkpt>
      <trkpt lat="48.50411" lon="7.44834">
        <ele>245</ele>
        <time>2017-04-09T10:34:03Z</time>
      </trkpt>
      <trkpt lat="48.50413" lon="7.44831">
        <ele>245</ele>
        <time>2017-04-09T10:34:04Z</time>
      </trkpt>
      <trkpt lat="48.50414" lon="7.44828">
        <ele>245</ele>
        <time>2017-04-09T10:34:05Z</time>
      </trkpt>
      <trkpt lat="48.50415" lon="7.44824">
        <ele>245</ele>
        <time>2017-04-09T10:34:06Z</time>
      </trkpt>
      <trkpt lat="48.50416" lon="7.44821">
        <ele>245</ele>
        <time>2017-04-09T10:34:07Z</time>
      </trkpt>
      <trkpt lat="48.5042" lon="7.44812">
        <ele>250</ele>
        <time>2017-04-09T10:34:10Z</time>
      </trkpt>
      <trkpt lat="48.50433" lon="7.4478">
        <ele>251</ele>
        <time>2017-04-09T10:34:20Z</time>
      </trkpt>
      <trkpt lat="48.50434" lon="7.44777">
        <ele>251</ele>
        <time>2017-04-09T10:34:21Z</time>
      </trkpt>
      <trkpt lat="48.50436" lon="7.44774">
        <ele>251</ele>
        <time>2017-04-09T10:34:22Z</time>
      </trkpt>
      <trkpt lat="48.50437" lon="7.44771">
        <ele>251</ele>
        <time>2017-04-09T10:34:23Z</time>
      </trkpt>
      <trkpt lat="48.50439" lon="7.44768">
        <ele>251</ele>
        <time>2017-04-09T10:34:24Z</time>
      </trkpt>
      <trkpt lat="48.50445" lon="7.44753">
        <ele>251</ele>
        <time>2017-04-09T10:34:29Z</time>
      </trkpt>
      <trkpt lat="48.50452" lon="7.44738">
        <ele>251</ele>
        <time>2017-04-09T10:34:34Z</time>
      </trkpt>
      <trkpt lat="48.50453" lon="7.44735">
        <ele>251</ele>
        <time>2017-04-09T10:34:35Z</time>
      </trkpt>
      <trkpt lat="48.50454" lon="7.44732">
        <ele>251</ele>
        <time>2017-04-09T10:34:36Z</time>
      </trkpt>
      <trkpt lat="48.50456" lon="7.44729">
        <ele>251</ele>
        <time>2017-04-09T10:34:37Z</time>
      </trkpt>
      <trkpt lat="48.50457" lon="7.44725">
        <ele>251</ele>
        <time>2017-04-09T10:34:38Z</time>
      </trkpt>
      <trkpt lat="48.50458" lon="7.44722">
        <ele>251</ele>
        <time>2017-04-09T10:34:39Z</time>
      </trkpt>
      <trkpt lat="48.50471" lon="7.44694">
        <ele>252</ele>
        <time>2017-04-09T10:34:48Z</time>
      </trkpt>
      <trkpt lat="48.50474" lon="7.44687">
        <ele>253</ele>
        <time>2017-04-09T10:34:50Z</time>
      </trkpt>
      <trkpt lat="48.50475" lon="7.44684">
        <ele>253</ele>
        <time>2017-04-09T10:34:51Z</time>
      </trkpt>
      <trkpt lat="48.50476" lon="7.44681">
        <ele>253</ele>
        <time>2017-04-09T10:34:52Z</time>
      </trkpt>
      <trkpt lat="48.50477" lon="7.44678">
        <ele>253</ele>
        <time>2017-04-09T10:34:53Z</time>
      </trkpt>
      <trkpt lat="48.50479" lon="7.44675">
        <ele>253</ele>
        <time>2017-04-09T10:34:54Z</time>
      </trkpt>
      <trkpt lat="48.50487" lon="7.44657">
        <ele>254</ele>
        <time>2017-04-09T10:35:00Z</time>
      </trkpt>
      <trkpt lat="48.50495" lon="7.44636">
        <ele>253</ele>
        <time>2017-04-09T10:35:07Z</time>
      </trkpt>
      <trkpt lat="48.50498" lon="7.44629">
        <ele>253</ele>
        <time>2017-04-09T10:35:09Z</time>
      </trkpt>
      <trkpt lat="48.50499" lon="7.44626">
        <ele>253</ele>
        <time>2017-04-09T10:35:10Z</time>
      </trkpt>
      <trkpt lat="48.505" lon="7.44622">
        <ele>262</ele>
        <time>2017-04-09T10:35:11Z</time>
      </trkpt>
      <trkpt lat="48.50501" lon="7.44619">
        <ele>262</ele>
        <time>2017-04-09T10:35:12Z</time>
      </trkpt>
      <trkpt lat="48.50502" lon="7.44615">
        <ele>262</ele>
        <time>2017-04-09T10:35:13Z</time>
      </trkpt>
      <trkpt lat="48.50503" lon="7.44612">
        <ele>261</ele>
        <time>2017-04-09T10:35:14Z</time>
      </trkpt>
      <trkpt lat="48.50512" lon="7.44583">
        <ele>259</ele>
        <time>2017-04-09T10:35:23Z</time>
      </trkpt>
      <trkpt lat="48.50513" lon="7.44579">
        <ele>259</ele>
        <time>2017-04-09T10:35:24Z</time>
      </trkpt>
      <trkpt lat="48.50514" lon="7.44576">
        <ele>259</ele>
        <time>2017-04-09T10:35:25Z</time>
      </trkpt>
      <trkpt lat="48.50515" lon="7.44572">
        <ele>260</ele>
        <time>2017-04-09T10:35:26Z</time>
      </trkpt>
      <trkpt lat="48.50515" lon="7.44569">
        <ele>260</ele>
        <time>2017-04-09T10:35:27Z</time>
      </trkpt>
      <trkpt lat="48.50516" lon="7.44565">
        <ele>260</ele>
        <time>2017-04-09T10:35:28Z</time>
      </trkpt>
      <trkpt lat="48.50522" lon="7.44548">
        <ele>261</ele>
        <time>2017-04-09T10:35:33Z</time>
      </trkpt>
      <trkpt lat="48.50532" lon="7.44514">
        <ele>261</ele>
        <time>2017-04-09T10:35:43Z</time>
      </trkpt>
      <trkpt lat="48.50533" lon="7.44511">
        <ele>261</ele>
        <time>2017-04-09T10:35:44Z</time>
      </trkpt>
      <trkpt lat="48.50534" lon="7.44508">
        <ele>261</ele>
        <time>2017-04-09T10:35:45Z</time>
      </trkpt>
      <trkpt lat="48.50536" lon="7.44504">
        <ele>261</ele>
        <time>2017-04-09T10:35:46Z</time>
      </trkpt>
      <trkpt lat="48.50538" lon="7.44501">
        <ele>261</ele>
        <time>2017-04-09T10:35:47Z</time>
      </trkpt>
      <trkpt lat="48.50539" lon="7.44497">
        <ele>260</ele>
        <time>2017-04-09T10:35:48Z</time>
      </trkpt>
      <trkpt lat="48.50545" lon="7.44481">
        <ele>261</ele>
        <time>2017-04-09T10:35:53Z</time>
      </trkpt>
      <trkpt lat="48.50555" lon="7.44456">
        <ele>262</ele>
        <time>2017-04-09T10:36:01Z</time>
      </trkpt>
      <trkpt lat="48.50566" lon="7.44426">
        <ele>263</ele>
        <time>2017-04-09T10:36:10Z</time>
      </trkpt>
      <trkpt lat="48.50567" lon="7.44422">
        <ele>263</ele>
        <time>2017-04-09T10:36:11Z</time>
      </trkpt>
      <trkpt lat="48.50569" lon="7.44419">
        <ele>263</ele>
        <time>2017-04-09T10:36:12Z</time>
      </trkpt>
      <trkpt lat="48.5057" lon="7.44415">
        <ele>264</ele>
        <time>2017-04-09T10:36:13Z</time>
      </trkpt>
      <trkpt lat="48.50571" lon="7.44411">
        <ele>264</ele>
        <time>2017-04-09T10:36:14Z</time>
      </trkpt>
      <trkpt lat="48.5058" lon="7.44388">
        <ele>263</ele>
        <time>2017-04-09T10:36:21Z</time>
      </trkpt>
      <trkpt lat="48.50589" lon="7.4435">
        <ele>271</ele>
        <time>2017-04-09T10:36:31Z</time>
      </trkpt>
      <trkpt lat="48.5059" lon="7.44346">
        <ele>271</ele>
        <time>2017-04-09T10:36:32Z</time>
      </trkpt>
      <trkpt lat="48.5059" lon="7.44342">
        <ele>270</ele>
        <time>2017-04-09T10:36:33Z</time>
      </trkpt>
      <trkpt lat="48.5059" lon="7.44339">
        <ele>270</ele>
        <time>2017-04-09T10:36:34Z</time>
      </trkpt>
      <trkpt lat="48.50591" lon="7.44335">
        <ele>269</ele>
        <time>2017-04-09T10:36:35Z</time>
      </trkpt>
      <trkpt lat="48.50593" lon="7.44324">
        <ele>271</ele>
        <time>2017-04-09T10:36:38Z</time>
      </trkpt>
      <trkpt lat="48.50596" lon="7.44296">
        <ele>274</ele>
        <time>2017-04-09T10:36:45Z</time>
      </trkpt>
      <trkpt lat="48.50596" lon="7.44292">
        <ele>274</ele>
        <time>2017-04-09T10:36:46Z</time>
      </trkpt>
      <trkpt lat="48.50597" lon="7.4429">
        <ele>274</ele>
        <time>2017-04-09T10:36:47Z</time>
      </trkpt>
      <trkpt lat="48.50598" lon="7.44287">
        <ele>274</ele>
        <time>2017-04-09T10:36:48Z</time>
      </trkpt>
      <trkpt lat="48.50599" lon="7.44284">
        <ele>274</ele>
        <time>2017-04-09T10:36:49Z</time>
      </trkpt>
      <trkpt lat="48.506" lon="7.44267">
        <ele>273</ele>
        <time>2017-04-09T10:36:53Z</time>
      </trkpt>
      <trkpt lat="48.50599" lon="7.44234">
        <ele>274</ele>
        <time>2017-04-09T10:37:01Z</time>
      </trkpt>
      <trkpt lat="48.50599" lon="7.4423">
        <ele>274</ele>
        <time>2017-04-09T10:37:02Z</time>
      </trkpt>
      <trkpt lat="48.50599" lon="7.44226">
        <ele>275</ele>
        <time>2017-04-09T10:37:03Z</time>
      </trkpt>
      <trkpt lat="48.506" lon="7.44222">
        <ele>275</ele>
        <time>2017-04-09T10:37:04Z</time>
      </trkpt>
      <trkpt lat="48.506" lon="7.44218">
        <ele>275</ele>
        <time>2017-04-09T10:37:05Z</time>
      </trkpt>
      <trkpt lat="48.50601" lon="7.44198">
        <ele>276</ele>
        <time>2017-04-09T10:37:10Z</time>
      </trkpt>
      <trkpt lat="48.50597" lon="7.44158">
        <ele>276</ele>
        <time>2017-04-09T10:37:19Z</time>
      </trkpt>
      <trkpt lat="48.50589" lon="7.44119">
        <ele>279</ele>
        <time>2017-04-09T10:37:28Z</time>
      </trkpt>
      <trkpt lat="48.5058" lon="7.44088">
        <ele>278</ele>
        <time>2017-04-09T10:37:37Z</time>
      </trkpt>
      <trkpt lat="48.50576" lon="7.44077">
        <ele>279</ele>
        <time>2017-04-09T10:37:40Z</time>
      </trkpt>
      <trkpt lat="48.50575" lon="7.44073">
        <ele>279</ele>
        <time>2017-04-09T10:37:41Z</time>
      </trkpt>
      <trkpt lat="48.50574" lon="7.44069">
        <ele>279</ele>
        <time>2017-04-09T10:37:42Z</time>
      </trkpt>
      <trkpt lat="48.50573" lon="7.44065">
        <ele>279</ele>
        <time>2017-04-09T10:37:43Z</time>
      </trkpt>
      <trkpt lat="48.50572" lon="7.44061">
        <ele>279</ele>
        <time>2017-04-09T10:37:44Z</time>
      </trkpt>
      <trkpt lat="48.50569" lon="7.44053">
        <ele>279</ele>
        <time>2017-04-09T10:37:46Z</time>
      </trkpt>
      <trkpt lat="48.50562" lon="7.44022">
        <ele>280</ele>
        <time>2017-04-09T10:37:53Z</time>
      </trkpt>
      <trkpt lat="48.50559" lon="7.44002">
        <ele>280</ele>
        <time>2017-04-09T10:37:58Z</time>
      </trkpt>
      <trkpt lat="48.50559" lon="7.43998">
        <ele>282</ele>
        <time>2017-04-09T10:37:59Z</time>
      </trkpt>
      <trkpt lat="48.50558" lon="7.43994">
        <ele>282</ele>
        <time>2017-04-09T10:38:00Z</time>
      </trkpt>
      <trkpt lat="48.50558" lon="7.4399">
        <ele>282</ele>
        <time>2017-04-09T10:38:01Z</time>
      </trkpt>
      <trkpt lat="48.50557" lon="7.43986">
        <ele>282</ele>
        <time>2017-04-09T10:38:02Z</time>
      </trkpt>
      <trkpt lat="48.5055" lon="7.43959">
        <ele>282</ele>
        <time>2017-04-09T10:38:09Z</time>
      </trkpt>
      <trkpt lat="48.50549" lon="7.43955">
        <ele>283</ele>
        <time>2017-04-09T10:38:10Z</time>
      </trkpt>
      <trkpt lat="48.50548" lon="7.43952">
        <ele>283</ele>
        <time>2017-04-09T10:38:11Z</time>
      </trkpt>
      <trkpt lat="48.50547" lon="7.4395">
        <ele>283</ele>
        <time>2017-04-09T10:38:12Z</time>
      </trkpt>
      <trkpt lat="48.50545" lon="7.43947">
        <ele>283</ele>
        <time>2017-04-09T10:38:13Z</time>
      </trkpt>
      <trkpt lat="48.50542" lon="7.43941">
        <ele>283</ele>
        <time>2017-04-09T10:38:15Z</time>
      </trkpt>
      <trkpt lat="48.50533" lon="7.43921">
        <ele>283</ele>
        <time>2017-04-09T10:38:21Z</time>
      </trkpt>
      <trkpt lat="48.50532" lon="7.43917">
        <ele>283</ele>
        <time>2017-04-09T10:38:22Z</time>
      </trkpt>
      <trkpt lat="48.50531" lon="7.43913">
        <ele>285</ele>
        <time>2017-04-09T10:38:23Z</time>
      </trkpt>
      <trkpt lat="48.5053" lon="7.4391">
        <ele>285</ele>
        <time>2017-04-09T10:38:24Z</time>
      </trkpt>
      <trkpt lat="48.50529" lon="7.43906">
        <ele>285</ele>
        <time>2017-04-09T10:38:25Z</time>
      </trkpt>
      <trkpt lat="48.50518" lon="7.43886">
        <ele>285</ele>
        <time>2017-04-09T10:38:31Z</time>
      </trkpt>
      <trkpt lat="48.50509" lon="7.4387">
        <ele>285</ele>
        <time>2017-04-09T10:38:37Z</time>
      </trkpt>
      <trkpt lat="48.50508" lon="7.43867">
        <ele>286</ele>
        <time>2017-04-09T10:38:38Z</time>
      </trkpt>
      <trkpt lat="48.50506" lon="7.43864">
        <ele>286</ele>
        <time>2017-04-09T10:38:39Z</time>
      </trkpt>
      <trkpt lat="48.50505" lon="7.43861">
        <ele>286</ele>
        <time>2017-04-09T10:38:40Z</time>
      </trkpt>
      <trkpt lat="48.50503" lon="7.43859">
        <ele>286</ele>
        <time>2017-04-09T10:38:41Z</time>
      </trkpt>
      <trkpt lat="48.50502" lon="7.43856">
        <ele>286</ele>
        <time>2017-04-09T10:38:42Z</time>
      </trkpt>
      <trkpt lat="48.50498" lon="7.43843">
        <ele>287</ele>
        <time>2017-04-09T10:38:46Z</time>
      </trkpt>
      <trkpt lat="48.50495" lon="7.43828">
        <ele>287</ele>
        <time>2017-04-09T10:38:51Z</time>
      </trkpt>
      <trkpt lat="48.50494" lon="7.43824">
        <ele>288</ele>
        <time>2017-04-09T10:38:52Z</time>
      </trkpt>
      <trkpt lat="48.50493" lon="7.4382">
        <ele>288</ele>
        <time>2017-04-09T10:38:53Z</time>
      </trkpt>
      <trkpt lat="48.50492" lon="7.43815">
        <ele>289</ele>
        <time>2017-04-09T10:38:54Z</time>
      </trkpt>
      <trkpt lat="48.50492" lon="7.43811">
        <ele>289</ele>
        <time>2017-04-09T10:38:55Z</time>
      </trkpt>
      <trkpt lat="48.50488" lon="7.43786">
        <ele>290</ele>
        <time>2017-04-09T10:39:02Z</time>
      </trkpt>
      <trkpt lat="48.50487" lon="7.43779">
        <ele>291</ele>
        <time>2017-04-09T10:39:04Z</time>
      </trkpt>
      <trkpt lat="48.50487" lon="7.43775">
        <ele>291</ele>
        <time>2017-04-09T10:39:05Z</time>
      </trkpt>
      <trkpt lat="48.50486" lon="7.43771">
        <ele>291</ele>
        <time>2017-04-09T10:39:06Z</time>
      </trkpt>
      <trkpt lat="48.50486" lon="7.43768">
        <ele>291</ele>
        <time>2017-04-09T10:39:07Z</time>
      </trkpt>
      <trkpt lat="48.50486" lon="7.43764">
        <ele>291</ele>
        <time>2017-04-09T10:39:08Z</time>
      </trkpt>
      <trkpt lat="48.50483" lon="7.43754">
        <ele>291</ele>
        <time>2017-04-09T10:39:11Z</time>
      </trkpt>
      <trkpt lat="48.50483" lon="7.43741">
        <ele>292</ele>
        <time>2017-04-09T10:39:16Z</time>
      </trkpt>
      <trkpt lat="48.50477" lon="7.43739">
        <ele>292</ele>
        <time>2017-04-09T10:39:21Z</time>
      </trkpt>
      <trkpt lat="48.50458" lon="7.4374">
        <ele>292</ele>
        <time>2017-04-09T10:39:27Z</time>
      </trkpt>
      <trkpt lat="48.50456" lon="7.4374">
        <ele>292</ele>
        <time>2017-04-09T10:39:28Z</time>
      </trkpt>
      <trkpt lat="48.50453" lon="7.43741">
        <ele>292</ele>
        <time>2017-04-09T10:39:29Z</time>
      </trkpt>
      <trkpt lat="48.5045" lon="7.43741">
        <ele>292</ele>
        <time>2017-04-09T10:39:30Z</time>
      </trkpt>
      <trkpt lat="48.50447" lon="7.43741">
        <ele>292</ele>
        <time>2017-04-09T10:39:31Z</time>
      </trkpt>
      <trkpt lat="48.50444" lon="7.43742">
        <ele>292</ele>
        <time>2017-04-09T10:39:32Z</time>
      </trkpt>
      <trkpt lat="48.50441" lon="7.43742">
        <ele>292</ele>
        <time>2017-04-09T10:39:33Z</time>
      </trkpt>
      <trkpt lat="48.50436" lon="7.43745">
        <ele>292</ele>
        <time>2017-04-09T10:39:35Z</time>
      </trkpt>
      <trkpt lat="48.50432" lon="7.43746">
        <ele>291</ele>
        <time>2017-04-09T10:39:37Z</time>
      </trkpt>
      <trkpt lat="48.50424" lon="7.43733">
        <ele>292</ele>
        <time>2017-04-09T10:39:43Z</time>
      </trkpt>
      <trkpt lat="48.50422" lon="7.43723">
        <ele>292</ele>
        <time>2017-04-09T10:39:46Z</time>
      </trkpt>
      <trkpt lat="48.50422" lon="7.4372">
        <ele>292</ele>
        <time>2017-04-09T10:39:47Z</time>
      </trkpt>
      <trkpt lat="48.50423" lon="7.43717">
        <ele>292</ele>
        <time>2017-04-09T10:39:48Z</time>
      </trkpt>
      <trkpt lat="48.50422" lon="7.43713">
        <ele>292</ele>
        <time>2017-04-09T10:39:49Z</time>
      </trkpt>
      <trkpt lat="48.5042" lon="7.4371">
        <ele>292</ele>
        <time>2017-04-09T10:39:50Z</time>
      </trkpt>
      <trkpt lat="48.50411" lon="7.43689">
        <ele>293</ele>
        <time>2017-04-09T10:39:57Z</time>
      </trkpt>
      <trkpt lat="48.50405" lon="7.43679">
        <ele>293</ele>
        <time>2017-04-09T10:40:01Z</time>
      </trkpt>
      <trkpt lat="48.50403" lon="7.43677">
        <ele>293</ele>
        <time>2017-04-09T10:40:02Z</time>
      </trkpt>
      <trkpt lat="48.50402" lon="7.43676">
        <ele>293</ele>
        <time>2017-04-09T10:40:03Z</time>
      </trkpt>
      <trkpt lat="48.50401" lon="7.43674">
        <ele>293</ele>
        <time>2017-04-09T10:40:04Z</time>
      </trkpt>
      <trkpt lat="48.50398" lon="7.43673">
        <ele>293</ele>
        <time>2017-04-09T10:40:05Z</time>
      </trkpt>
      <trkpt lat="48.50384" lon="7.43671">
        <ele>294</ele>
        <time>2017-04-09T10:40:11Z</time>
      </trkpt>
      <trkpt lat="48.5038" lon="7.43669">
        <ele>295</ele>
        <time>2017-04-09T10:40:13Z</time>
      </trkpt>
      <trkpt lat="48.50378" lon="7.43668">
        <ele>295</ele>
        <time>2017-04-09T10:40:14Z</time>
      </trkpt>
      <trkpt lat="48.50376" lon="7.43667">
        <ele>294</ele>
        <time>2017-04-09T10:40:15Z</time>
      </trkpt>
      <trkpt lat="48.50375" lon="7.43666">
        <ele>294</ele>
        <time>2017-04-09T10:40:16Z</time>
      </trkpt>
      <trkpt lat="48.50373" lon="7.43664">
        <ele>294</ele>
        <time>2017-04-09T10:40:17Z</time>
      </trkpt>
      <trkpt lat="48.50371" lon="7.43663">
        <ele>294</ele>
        <time>2017-04-09T10:40:18Z</time>
      </trkpt>
      <trkpt lat="48.50362" lon="7.43652">
        <ele>295</ele>
        <time>2017-04-09T10:40:24Z</time>
      </trkpt>
      <trkpt lat="48.5036" lon="7.4365">
        <ele>295</ele>
        <time>2017-04-09T10:40:25Z</time>
      </trkpt>
      <trkpt lat="48.50359" lon="7.43647">
        <ele>295</ele>
        <time>2017-04-09T10:40:26Z</time>
      </trkpt>
      <trkpt lat="48.50356" lon="7.43645">
        <ele>295</ele>
        <time>2017-04-09T10:40:27Z</time>
      </trkpt>
      <trkpt lat="48.50355" lon="7.43643">
        <ele>295</ele>
        <time>2017-04-09T10:40:28Z</time>
      </trkpt>
      <trkpt lat="48.50349" lon="7.43632">
        <ele>295</ele>
        <time>2017-04-09T10:40:32Z</time>
      </trkpt>
      <trkpt lat="48.50346" lon="7.43618">
        <ele>295</ele>
        <time>2017-04-09T10:40:37Z</time>
      </trkpt>
      <trkpt lat="48.50344" lon="7.43616">
        <ele>295</ele>
        <time>2017-04-09T10:40:38Z</time>
      </trkpt>
      <trkpt lat="48.50342" lon="7.43615">
        <ele>295</ele>
        <time>2017-04-09T10:40:39Z</time>
      </trkpt>
      <trkpt lat="48.5034" lon="7.43616">
        <ele>295</ele>
        <time>2017-04-09T10:40:40Z</time>
      </trkpt>
      <trkpt lat="48.50338" lon="7.43618">
        <ele>295</ele>
        <time>2017-04-09T10:40:41Z</time>
      </trkpt>
      <trkpt lat="48.50336" lon="7.43619">
        <ele>295</ele>
        <time>2017-04-09T10:40:42Z</time>
      </trkpt>
      <trkpt lat="48.50334" lon="7.43621">
        <ele>295</ele>
        <time>2017-04-09T10:40:43Z</time>
      </trkpt>
      <trkpt lat="48.50331" lon="7.43622">
        <ele>300</ele>
        <time>2017-04-09T10:40:45Z</time>
      </trkpt>
      <trkpt lat="48.50318" lon="7.43634">
        <ele>301</ele>
        <time>2017-04-09T10:40:52Z</time>
      </trkpt>
      <trkpt lat="48.50308" lon="7.43644">
        <ele>301</ele>
        <time>2017-04-09T10:40:58Z</time>
      </trkpt>
      <trkpt lat="48.50306" lon="7.43646">
        <ele>302</ele>
        <time>2017-04-09T10:40:59Z</time>
      </trkpt>
      <trkpt lat="48.50305" lon="7.43648">
        <ele>302</ele>
        <time>2017-04-09T10:41:00Z</time>
      </trkpt>
      <trkpt lat="48.50303" lon="7.4365">
        <ele>302</ele>
        <time>2017-04-09T10:41:01Z</time>
      </trkpt>
      <trkpt lat="48.50302" lon="7.43651">
        <ele>302</ele>
        <time>2017-04-09T10:41:02Z</time>
      </trkpt>
      <trkpt lat="48.50292" lon="7.4366">
        <ele>303</ele>
        <time>2017-04-09T10:41:09Z</time>
      </trkpt>
      <trkpt lat="48.5029" lon="7.4366">
        <ele>303</ele>
        <time>2017-04-09T10:41:10Z</time>
      </trkpt>
      <trkpt lat="48.50288" lon="7.4366">
        <ele>303</ele>
        <time>2017-04-09T10:41:11Z</time>
      </trkpt>
      <trkpt lat="48.50286" lon="7.4366">
        <ele>304</ele>
        <time>2017-04-09T10:41:12Z</time>
      </trkpt>
      <trkpt lat="48.50285" lon="7.43659">
        <ele>304</ele>
        <time>2017-04-09T10:41:13Z</time>
      </trkpt>
      <trkpt lat="48.50283" lon="7.43658">
        <ele>304</ele>
        <time>2017-04-09T10:41:14Z</time>
      </trkpt>
      <trkpt lat="48.50272" lon="7.4365">
        <ele>305</ele>
        <time>2017-04-09T10:41:20Z</time>
      </trkpt>
      <trkpt lat="48.5027" lon="7.43648">
        <ele>305</ele>
        <time>2017-04-09T10:41:21Z</time>
      </trkpt>
      <trkpt lat="48.50269" lon="7.43647">
        <ele>305</ele>
        <time>2017-04-09T10:41:22Z</time>
      </trkpt>
      <trkpt lat="48.50267" lon="7.43645">
        <ele>305</ele>
        <time>2017-04-09T10:41:23Z</time>
      </trkpt>
      <trkpt lat="48.50266" lon="7.43643">
        <ele>305</ele>
        <time>2017-04-09T10:41:24Z</time>
      </trkpt>
      <trkpt lat="48.50256" lon="7.4363">
        <ele>304</ele>
        <time>2017-04-09T10:41:31Z</time>
      </trkpt>
      <trkpt lat="48.50253" lon="7.43626">
        <ele>304</ele>
        <time>2017-04-09T10:41:33Z</time>
      </trkpt>
      <trkpt lat="48.50251" lon="7.43624">
        <ele>304</ele>
        <time>2017-04-09T10:41:34Z</time>
      </trkpt>
      <trkpt lat="48.50249" lon="7.43622">
        <ele>310</ele>
        <time>2017-04-09T10:41:35Z</time>
      </trkpt>
      <trkpt lat="48.50247" lon="7.4362">
        <ele>310</ele>
        <time>2017-04-09T10:41:36Z</time>
      </trkpt>
      <trkpt lat="48.50246" lon="7.43618">
        <ele>310</ele>
        <time>2017-04-09T10:41:37Z</time>
      </trkpt>
      <trkpt lat="48.50241" lon="7.43613">
        <ele>310</ele>
        <time>2017-04-09T10:41:40Z</time>
      </trkpt>
      <trkpt lat="48.50231" lon="7.436">
        <ele>310</ele>
        <time>2017-04-09T10:41:47Z</time>
      </trkpt>
      <trkpt lat="48.50228" lon="7.43596">
        <ele>310</ele>
        <time>2017-04-09T10:41:49Z</time>
      </trkpt>
      <trkpt lat="48.50225" lon="7.43594">
        <ele>310</ele>
        <time>2017-04-09T10:41:50Z</time>
      </trkpt>
      <trkpt lat="48.50224" lon="7.43593">
        <ele>310</ele>
        <time>2017-04-09T10:41:51Z</time>
      </trkpt>
      <trkpt lat="48.50222" lon="7.43591">
        <ele>310</ele>
        <time>2017-04-09T10:41:52Z</time>
      </trkpt>
      <trkpt lat="48.5022" lon="7.43589">
        <ele>310</ele>
        <time>2017-04-09T10:41:53Z</time>
      </trkpt>
      <trkpt lat="48.50217" lon="7.43584">
        <ele>311</ele>
        <time>2017-04-09T10:41:55Z</time>
      </trkpt>
      <trkpt lat="48.50205" lon="7.43567">
        <ele>311</ele>
        <time>2017-04-09T10:42:03Z</time>
      </trkpt>
      <trkpt lat="48.50203" lon="7.43566">
        <ele>311</ele>
        <time>2017-04-09T10:42:04Z</time>
      </trkpt>
      <trkpt lat="48.50202" lon="7.43564">
        <ele>311</ele>
        <time>2017-04-09T10:42:05Z</time>
      </trkpt>
      <trkpt lat="48.50201" lon="7.43562">
        <ele>311</ele>
        <time>2017-04-09T10:42:06Z</time>
      </trkpt>
      <trkpt lat="48.50199" lon="7.4356">
        <ele>311</ele>
        <time>2017-04-09T10:42:07Z</time>
      </trkpt>
      <trkpt lat="48.50193" lon="7.43551">
        <ele>312</ele>
        <time>2017-04-09T10:42:11Z</time>
      </trkpt>
      <trkpt lat="48.50181" lon="7.43534">
        <ele>313</ele>
        <time>2017-04-09T10:42:19Z</time>
      </trkpt>
      <trkpt lat="48.5018" lon="7.43532">
        <ele>313</ele>
        <time>2017-04-09T10:42:20Z</time>
      </trkpt>
      <trkpt lat="48.50179" lon="7.43529">
        <ele>313</ele>
        <time>2017-04-09T10:42:21Z</time>
      </trkpt>
      <trkpt lat="48.50177" lon="7.43527">
        <ele>313</ele>
        <time>2017-04-09T10:42:22Z</time>
      </trkpt>
      <trkpt lat="48.50176" lon="7.43524">
        <ele>314</ele>
        <time>2017-04-09T10:42:23Z</time>
      </trkpt>
      <trkpt lat="48.50168" lon="7.43508">
        <ele>317</ele>
        <time>2017-04-09T10:42:30Z</time>
      </trkpt>
      <trkpt lat="48.50162" lon="7.43498">
        <ele>320</ele>
        <time>2017-04-09T10:42:34Z</time>
      </trkpt>
      <trkpt lat="48.5016" lon="7.43495">
        <ele>321</ele>
        <time>2017-04-09T10:42:35Z</time>
      </trkpt>
      <trkpt lat="48.50159" lon="7.43493">
        <ele>321</ele>
        <time>2017-04-09T10:42:36Z</time>
      </trkpt>
      <trkpt lat="48.50157" lon="7.43491">
        <ele>322</ele>
        <time>2017-04-09T10:42:37Z</time>
      </trkpt>
      <trkpt lat="48.50156" lon="7.43489">
        <ele>322</ele>
        <time>2017-04-09T10:42:38Z</time>
      </trkpt>
      <trkpt lat="48.50145" lon="7.43473">
        <ele>324</ele>
        <time>2017-04-09T10:42:46Z</time>
      </trkpt>
      <trkpt lat="48.50141" lon="7.43467">
        <ele>325</ele>
        <time>2017-04-09T10:42:49Z</time>
      </trkpt>
      <trkpt lat="48.5014" lon="7.43464">
        <ele>325</ele>
        <time>2017-04-09T10:42:50Z</time>
      </trkpt>
      <trkpt lat="48.5014" lon="7.43461">
        <ele>325</ele>
        <time>2017-04-09T10:42:51Z</time>
      </trkpt>
      <trkpt lat="48.50139" lon="7.43458">
        <ele>325</ele>
        <time>2017-04-09T10:42:52Z</time>
      </trkpt>
      <trkpt lat="48.50138" lon="7.43456">
        <ele>325</ele>
        <time>2017-04-09T10:42:53Z</time>
      </trkpt>
      <trkpt lat="48.50131" lon="7.43442">
        <ele>325</ele>
        <time>2017-04-09T10:42:59Z</time>
      </trkpt>
      <trkpt lat="48.5013" lon="7.43441">
        <ele>325</ele>
        <time>2017-04-09T10:43:00Z</time>
      </trkpt>
      <trkpt lat="48.50129" lon="7.43439">
        <ele>325</ele>
        <time>2017-04-09T10:43:01Z</time>
      </trkpt>
      <trkpt lat="48.50128" lon="7.43436">
        <ele>325</ele>
        <time>2017-04-09T10:43:02Z</time>
      </trkpt>
      <trkpt lat="48.50126" lon="7.43433">
        <ele>326</ele>
        <time>2017-04-09T10:43:03Z</time>
      </trkpt>
      <trkpt lat="48.5012" lon="7.43418">
        <ele>327</ele>
        <time>2017-04-09T10:43:09Z</time>
      </trkpt>
      <trkpt lat="48.50109" lon="7.43401">
        <ele>326</ele>
        <time>2017-04-09T10:43:17Z</time>
      </trkpt>
      <trkpt lat="48.50108" lon="7.434">
        <ele>326</ele>
        <time>2017-04-09T10:43:18Z</time>
      </trkpt>
      <trkpt lat="48.50107" lon="7.43397">
        <ele>326</ele>
        <time>2017-04-09T10:43:19Z</time>
      </trkpt>
      <trkpt lat="48.50106" lon="7.43395">
        <ele>326</ele>
        <time>2017-04-09T10:43:20Z</time>
      </trkpt>
      <trkpt lat="48.50105" lon="7.43393">
        <ele>326</ele>
        <time>2017-04-09T10:43:21Z</time>
      </trkpt>
      <trkpt lat="48.50098" lon="7.43378">
        <ele>326</ele>
        <time>2017-04-09T10:43:27Z</time>
      </trkpt>
      <trkpt lat="48.50097" lon="7.43377">
        <ele>326</ele>
        <time>2017-04-09T10:43:28Z</time>
      </trkpt>
      <trkpt lat="48.50096" lon="7.43375">
        <ele>326</ele>
        <time>2017-04-09T10:43:29Z</time>
      </trkpt>
      <trkpt lat="48.50095" lon="7.43371">
        <ele>326</ele>
        <time>2017-04-09T10:43:30Z</time>
      </trkpt>
      <trkpt lat="48.50092" lon="7.43366">
        <ele>326</ele>
        <time>2017-04-09T10:43:31Z</time>
      </trkpt>
      <trkpt lat="48.50087" lon="7.43355">
        <ele>327</ele>
        <time>2017-04-09T10:43:35Z</time>
      </trkpt>
      <trkpt lat="48.50083" lon="7.43347">
        <ele>333</ele>
        <time>2017-04-09T10:43:39Z</time>
      </trkpt>
      <trkpt lat="48.5008" lon="7.43344">
        <ele>333</ele>
        <time>2017-04-09T10:43:40Z</time>
      </trkpt>
      <trkpt lat="48.50078" lon="7.4334">
        <ele>333</ele>
        <time>2017-04-09T10:43:41Z</time>
      </trkpt>
      <trkpt lat="48.50076" lon="7.43338">
        <ele>333</ele>
        <time>2017-04-09T10:43:42Z</time>
      </trkpt>
      <trkpt lat="48.50074" lon="7.43336">
        <ele>333</ele>
        <time>2017-04-09T10:43:43Z</time>
      </trkpt>
      <trkpt lat="48.50056" lon="7.43313">
        <ele>333</ele>
        <time>2017-04-09T10:43:52Z</time>
      </trkpt>
      <trkpt lat="48.50055" lon="7.43311">
        <ele>333</ele>
        <time>2017-04-09T10:43:53Z</time>
      </trkpt>
      <trkpt lat="48.50053" lon="7.43308">
        <ele>333</ele>
        <time>2017-04-09T10:43:54Z</time>
      </trkpt>
      <trkpt lat="48.50051" lon="7.43306">
        <ele>333</ele>
        <time>2017-04-09T10:43:55Z</time>
      </trkpt>
      <trkpt lat="48.50049" lon="7.43303">
        <ele>333</ele>
        <time>2017-04-09T10:43:56Z</time>
      </trkpt>
      <trkpt lat="48.50048" lon="7.43301">
        <ele>333</ele>
        <time>2017-04-09T10:43:57Z</time>
      </trkpt>
      <trkpt lat="48.50041" lon="7.43291">
        <ele>333</ele>
        <time>2017-04-09T10:44:01Z</time>
      </trkpt>
      <trkpt lat="48.50033" lon="7.43278">
        <ele>333</ele>
        <time>2017-04-09T10:44:07Z</time>
      </trkpt>
      <trkpt lat="48.50032" lon="7.43277">
        <ele>333</ele>
        <time>2017-04-09T10:44:08Z</time>
      </trkpt>
      <trkpt lat="48.50031" lon="7.43276">
        <ele>333</ele>
        <time>2017-04-09T10:44:09Z</time>
      </trkpt>
      <trkpt lat="48.50031" lon="7.43274">
        <ele>334</ele>
        <time>2017-04-09T10:44:10Z</time>
      </trkpt>
      <trkpt lat="48.5003" lon="7.43273">
        <ele>334</ele>
        <time>2017-04-09T10:44:11Z</time>
      </trkpt>
      <trkpt lat="48.50019" lon="7.43265">
        <ele>335</ele>
        <time>2017-04-09T10:44:19Z</time>
      </trkpt>
      <trkpt lat="48.50016" lon="7.43261">
        <ele>335</ele>
        <time>2017-04-09T10:44:22Z</time>
      </trkpt>
      <trkpt lat="48.50015" lon="7.4326">
        <ele>335</ele>
        <time>2017-04-09T10:44:23Z</time>
      </trkpt>
      <trkpt lat="48.50014" lon="7.4326">
        <ele>335</ele>
        <time>2017-04-09T10:44:24Z</time>
      </trkpt>
      <trkpt lat="48.50012" lon="7.43259">
        <ele>336</ele>
        <time>2017-04-09T10:44:25Z</time>
      </trkpt>
      <trkpt lat="48.5001" lon="7.43258">
        <ele>336</ele>
        <time>2017-04-09T10:44:26Z</time>
      </trkpt>
      <trkpt lat="48.50007" lon="7.43257">
        <ele>336</ele>
        <time>2017-04-09T10:44:28Z</time>
      </trkpt>
      <trkpt lat="48.49986" lon="7.43252">
        <ele>340</ele>
        <time>2017-04-09T10:44:34Z</time>
      </trkpt>
      <trkpt lat="48.49969" lon="7.43254">
        <ele>342</ele>
        <time>2017-04-09T10:44:41Z</time>
      </trkpt>
      <trkpt lat="48.49965" lon="7.43256">
        <ele>343</ele>
        <time>2017-04-09T10:44:43Z</time>
      </trkpt>
      <trkpt lat="48.49964" lon="7.43258">
        <ele>343</ele>
        <time>2017-04-09T10:44:44Z</time>
      </trkpt>
      <trkpt lat="48.49962" lon="7.4326">
        <ele>343</ele>
        <time>2017-04-09T10:44:45Z</time>
      </trkpt>
      <trkpt lat="48.4996" lon="7.43261">
        <ele>343</ele>
        <time>2017-04-09T10:44:46Z</time>
      </trkpt>
      <trkpt lat="48.49957" lon="7.43263">
        <ele>343</ele>
        <time>2017-04-09T10:44:47Z</time>
      </trkpt>
      <trkpt lat="48.49953" lon="7.43266">
        <ele>344</ele>
        <time>2017-04-09T10:44:49Z</time>
      </trkpt>
      <trkpt lat="48.49933" lon="7.43282">
        <ele>345</ele>
        <time>2017-04-09T10:44:59Z</time>
      </trkpt>
      <trkpt lat="48.49915" lon="7.43283">
        <ele>352</ele>
        <time>2017-04-09T10:45:06Z</time>
      </trkpt>
      <trkpt lat="48.49913" lon="7.43282">
        <ele>352</ele>
        <time>2017-04-09T10:45:07Z</time>
      </trkpt>
      <trkpt lat="48.49911" lon="7.43281">
        <ele>352</ele>
        <time>2017-04-09T10:45:08Z</time>
      </trkpt>
      <trkpt lat="48.49909" lon="7.43279">
        <ele>352</ele>
        <time>2017-04-09T10:45:09Z</time>
      </trkpt>
      <trkpt lat="48.49908" lon="7.43277">
        <ele>352</ele>
        <time>2017-04-09T10:45:10Z</time>
      </trkpt>
      <trkpt lat="48.49907" lon="7.43275">
        <ele>352</ele>
        <time>2017-04-09T10:45:11Z</time>
      </trkpt>
      <trkpt lat="48.49904" lon="7.43271">
        <ele>352</ele>
        <time>2017-04-09T10:45:13Z</time>
      </trkpt>
      <trkpt lat="48.49904" lon="7.43269">
        <ele>351</ele>
        <time>2017-04-09T10:45:14Z</time>
      </trkpt>
      <trkpt lat="48.49902" lon="7.4326">
        <ele>351</ele>
        <time>2017-04-09T10:45:17Z</time>
      </trkpt>
      <trkpt lat="48.49902" lon="7.43257">
        <ele>351</ele>
        <time>2017-04-09T10:45:18Z</time>
      </trkpt>
      <trkpt lat="48.49895" lon="7.43236">
        <ele>354</ele>
        <time>2017-04-09T10:45:26Z</time>
      </trkpt>
      <trkpt lat="48.49893" lon="7.43209">
        <ele>355</ele>
        <time>2017-04-09T10:45:33Z</time>
      </trkpt>
      <trkpt lat="48.49891" lon="7.43178">
        <ele>355</ele>
        <time>2017-04-09T10:45:39Z</time>
      </trkpt>
      <trkpt lat="48.49893" lon="7.43151">
        <ele>355</ele>
        <time>2017-04-09T10:45:46Z</time>
      </trkpt>
      <trkpt lat="48.49889" lon="7.43127">
        <ele>356</ele>
        <time>2017-04-09T10:45:51Z</time>
      </trkpt>
      <trkpt lat="48.49889" lon="7.43092">
        <ele>355</ele>
        <time>2017-04-09T10:45:59Z</time>
      </trkpt>
      <trkpt lat="48.49888" lon="7.43057">
        <ele>356</ele>
        <time>2017-04-09T10:46:06Z</time>
      </trkpt>
      <trkpt lat="48.49887" lon="7.43023">
        <ele>357</ele>
        <time>2017-04-09T10:46:14Z</time>
      </trkpt>
      <trkpt lat="48.49886" lon="7.43007">
        <ele>357</ele>
        <time>2017-04-09T10:46:19Z</time>
      </trkpt>
      <trkpt lat="48.49886" lon="7.43003">
        <ele>357</ele>
        <time>2017-04-09T10:46:20Z</time>
      </trkpt>
      <trkpt lat="48.49887" lon="7.43">
        <ele>357</ele>
        <time>2017-04-09T10:46:21Z</time>
      </trkpt>
      <trkpt lat="48.49887" lon="7.42998">
        <ele>358</ele>
        <time>2017-04-09T10:46:22Z</time>
      </trkpt>
      <trkpt lat="48.49891" lon="7.42993">
        <ele>357</ele>
        <time>2017-04-09T10:46:23Z</time>
      </trkpt>
      <trkpt lat="48.49893" lon="7.42983">
        <ele>357</ele>
        <time>2017-04-09T10:46:26Z</time>
      </trkpt>
      <trkpt lat="48.49898" lon="7.42962">
        <ele>358</ele>
        <time>2017-04-09T10:46:31Z</time>
      </trkpt>
      <trkpt lat="48.49899" lon="7.42959">
        <ele>358</ele>
        <time>2017-04-09T10:46:32Z</time>
      </trkpt>
      <trkpt lat="48.49899" lon="7.42956">
        <ele>358</ele>
        <time>2017-04-09T10:46:33Z</time>
      </trkpt>
      <trkpt lat="48.49899" lon="7.42952">
        <ele>358</ele>
        <time>2017-04-09T10:46:34Z</time>
      </trkpt>
      <trkpt lat="48.499" lon="7.42948">
        <ele>358</ele>
        <time>2017-04-09T10:46:35Z</time>
      </trkpt>
      <trkpt lat="48.499" lon="7.42945">
        <ele>358</ele>
        <time>2017-04-09T10:46:36Z</time>
      </trkpt>
      <trkpt lat="48.49898" lon="7.42929">
        <ele>358</ele>
        <time>2017-04-09T10:46:41Z</time>
      </trkpt>
      <trkpt lat="48.49899" lon="7.429">
        <ele>359</ele>
        <time>2017-04-09T10:46:48Z</time>
      </trkpt>
      <trkpt lat="48.49899" lon="7.42895">
        <ele>359</ele>
        <time>2017-04-09T10:46:49Z</time>
      </trkpt>
      <trkpt lat="48.49898" lon="7.4289">
        <ele>359</ele>
        <time>2017-04-09T10:46:50Z</time>
      </trkpt>
      <trkpt lat="48.49899" lon="7.42885">
        <ele>360</ele>
        <time>2017-04-09T10:46:51Z</time>
      </trkpt>
      <trkpt lat="48.499" lon="7.4288">
        <ele>360</ele>
        <time>2017-04-09T10:46:52Z</time>
      </trkpt>
      <trkpt lat="48.49899" lon="7.42848">
        <ele>359</ele>
        <time>2017-04-09T10:46:58Z</time>
      </trkpt>
      <trkpt lat="48.499" lon="7.4281">
        <ele>360</ele>
        <time>2017-04-09T10:47:04Z</time>
      </trkpt>
      <trkpt lat="48.49899" lon="7.42769">
        <ele>360</ele>
        <time>2017-04-09T10:47:11Z</time>
      </trkpt>
      <trkpt lat="48.499" lon="7.42738">
        <ele>360</ele>
        <time>2017-04-09T10:47:17Z</time>
      </trkpt>
      <trkpt lat="48.499" lon="7.42733">
        <ele>360</ele>
        <time>2017-04-09T10:47:18Z</time>
      </trkpt>
      <trkpt lat="48.499" lon="7.42727">
        <ele>360</ele>
        <time>2017-04-09T10:47:19Z</time>
      </trkpt>
      <trkpt lat="48.499" lon="7.42722">
        <ele>361</ele>
        <time>2017-04-09T10:47:20Z</time>
      </trkpt>
      <trkpt lat="48.49899" lon="7.42718">
        <ele>361</ele>
        <time>2017-04-09T10:47:21Z</time>
      </trkpt>
      <trkpt lat="48.49896" lon="7.42679">
        <ele>360</ele>
        <time>2017-04-09T10:47:28Z</time>
      </trkpt>
      <trkpt lat="48.49894" lon="7.42643">
        <ele>361</ele>
        <time>2017-04-09T10:47:35Z</time>
      </trkpt>
      <trkpt lat="48.49888" lon="7.42599">
        <ele>362</ele>
        <time>2017-04-09T10:47:43Z</time>
      </trkpt>
      <trkpt lat="48.49882" lon="7.42565">
        <ele>363</ele>
        <time>2017-04-09T10:47:50Z</time>
      </trkpt>
      <trkpt lat="48.49878" lon="7.42551">
        <ele>364</ele>
        <time>2017-04-09T10:47:53Z</time>
      </trkpt>
      <trkpt lat="48.49877" lon="7.42547">
        <ele>364</ele>
        <time>2017-04-09T10:47:54Z</time>
      </trkpt>
      <trkpt lat="48.49875" lon="7.42543">
        <ele>364</ele>
        <time>2017-04-09T10:47:55Z</time>
      </trkpt>
      <trkpt lat="48.49874" lon="7.42539">
        <ele>364</ele>
        <time>2017-04-09T10:47:56Z</time>
      </trkpt>
      <trkpt lat="48.49872" lon="7.42534">
        <ele>364</ele>
        <time>2017-04-09T10:47:57Z</time>
      </trkpt>
      <trkpt lat="48.49863" lon="7.42514">
        <ele>366</ele>
        <time>2017-04-09T10:48:02Z</time>
      </trkpt>
      <trkpt lat="48.49859" lon="7.42497">
        <ele>367</ele>
        <time>2017-04-09T10:48:07Z</time>
      </trkpt>
      <trkpt lat="48.49858" lon="7.42494">
        <ele>367</ele>
        <time>2017-04-09T10:48:08Z</time>
      </trkpt>
      <trkpt lat="48.49858" lon="7.42492">
        <ele>367</ele>
        <time>2017-04-09T10:48:09Z</time>
      </trkpt>
      <trkpt lat="48.49859" lon="7.42489">
        <ele>366</ele>
        <time>2017-04-09T10:48:10Z</time>
      </trkpt>
      <trkpt lat="48.49861" lon="7.42484">
        <ele>366</ele>
        <time>2017-04-09T10:48:11Z</time>
      </trkpt>
      <trkpt lat="48.49861" lon="7.4248">
        <ele>366</ele>
        <time>2017-04-09T10:48:12Z</time>
      </trkpt>
      <trkpt lat="48.49858" lon="7.42467">
        <ele>365</ele>
        <time>2017-04-09T10:48:15Z</time>
      </trkpt>
      <trkpt lat="48.49858" lon="7.42442">
        <ele>365</ele>
        <time>2017-04-09T10:48:21Z</time>
      </trkpt>
      <trkpt lat="48.49858" lon="7.42438">
        <ele>365</ele>
        <time>2017-04-09T10:48:22Z</time>
      </trkpt>
      <trkpt lat="48.49857" lon="7.42435">
        <ele>365</ele>
        <time>2017-04-09T10:48:23Z</time>
      </trkpt>
      <trkpt lat="48.49857" lon="7.42429">
        <ele>366</ele>
        <time>2017-04-09T10:48:24Z</time>
      </trkpt>
      <trkpt lat="48.49857" lon="7.42426">
        <ele>366</ele>
        <time>2017-04-09T10:48:25Z</time>
      </trkpt>
      <trkpt lat="48.49857" lon="7.42419">
        <ele>366</ele>
        <time>2017-04-09T10:48:26Z</time>
      </trkpt>
      <trkpt lat="48.49857" lon="7.42415">
        <ele>366</ele>
        <time>2017-04-09T10:48:27Z</time>
      </trkpt>
      <trkpt lat="48.49857" lon="7.42411">
        <ele>366</ele>
        <time>2017-04-09T10:48:28Z</time>
      </trkpt>
      <trkpt lat="48.49865" lon="7.42374">
        <ele>365</ele>
        <time>2017-04-09T10:48:36Z</time>
      </trkpt>
      <trkpt lat="48.49874" lon="7.42349">
        <ele>365</ele>
        <time>2017-04-09T10:48:40Z</time>
      </trkpt>
      <trkpt lat="48.49875" lon="7.42344">
        <ele>365</ele>
        <time>2017-04-09T10:48:41Z</time>
      </trkpt>
      <trkpt lat="48.49877" lon="7.42338">
        <ele>365</ele>
        <time>2017-04-09T10:48:42Z</time>
      </trkpt>
      <trkpt lat="48.49878" lon="7.42331">
        <ele>368</ele>
        <time>2017-04-09T10:48:43Z</time>
      </trkpt>
      <trkpt lat="48.4988" lon="7.42325">
        <ele>368</ele>
        <time>2017-04-09T10:48:44Z</time>
      </trkpt>
      <trkpt lat="48.49893" lon="7.42296">
        <ele>368</ele>
        <time>2017-04-09T10:48:51Z</time>
      </trkpt>
      <trkpt lat="48.49901" lon="7.42279">
        <ele>368</ele>
        <time>2017-04-09T10:48:56Z</time>
      </trkpt>
      <trkpt lat="48.49902" lon="7.42275">
        <ele>368</ele>
        <time>2017-04-09T10:48:57Z</time>
      </trkpt>
      <trkpt lat="48.49903" lon="7.4227">
        <ele>369</ele>
        <time>2017-04-09T10:48:58Z</time>
      </trkpt>
      <trkpt lat="48.49905" lon="7.42266">
        <ele>369</ele>
        <time>2017-04-09T10:48:59Z</time>
      </trkpt>
      <trkpt lat="48.49906" lon="7.42261">
        <ele>369</ele>
        <time>2017-04-09T10:49:00Z</time>
      </trkpt>
      <trkpt lat="48.49914" lon="7.42236">
        <ele>370</ele>
        <time>2017-04-09T10:49:05Z</time>
      </trkpt>
      <trkpt lat="48.49922" lon="7.42205">
        <ele>368</ele>
        <time>2017-04-09T10:49:12Z</time>
      </trkpt>
      <trkpt lat="48.49936" lon="7.42173">
        <ele>369</ele>
        <time>2017-04-09T10:49:19Z</time>
      </trkpt>
      <trkpt lat="48.49951" lon="7.42137">
        <ele>370</ele>
        <time>2017-04-09T10:49:27Z</time>
      </trkpt>
      <trkpt lat="48.49968" lon="7.42104">
        <ele>370</ele>
        <time>2017-04-09T10:49:35Z</time>
      </trkpt>
      <trkpt lat="48.49982" lon="7.42086">
        <ele>370</ele>
        <time>2017-04-09T10:49:40Z</time>
      </trkpt>
      <trkpt lat="48.50005" lon="7.42051">
        <ele>369</ele>
        <time>2017-04-09T10:49:49Z</time>
      </trkpt>
      <trkpt lat="48.50027" lon="7.42023">
        <ele>369</ele>
        <time>2017-04-09T10:49:56Z</time>
      </trkpt>
      <trkpt lat="48.50047" lon="7.42008">
        <ele>369</ele>
        <time>2017-04-09T10:50:02Z</time>
      </trkpt>
      <trkpt lat="48.50054" lon="7.42006">
        <ele>368</ele>
        <time>2017-04-09T10:50:04Z</time>
      </trkpt>
      <trkpt lat="48.50061" lon="7.42004">
        <ele>368</ele>
        <time>2017-04-09T10:50:07Z</time>
      </trkpt>
      <trkpt lat="48.50087" lon="7.42001">
        <ele>368</ele>
        <time>2017-04-09T10:50:16Z</time>
      </trkpt>
      <trkpt lat="48.50115" lon="7.42001">
        <ele>367</ele>
        <time>2017-04-09T10:50:24Z</time>
      </trkpt>
      <trkpt lat="48.5014" lon="7.42005">
        <ele>367</ele>
        <time>2017-04-09T10:50:30Z</time>
      </trkpt>
      <trkpt lat="48.5017" lon="7.42008">
        <ele>367</ele>
        <time>2017-04-09T10:50:37Z</time>
      </trkpt>
      <trkpt lat="48.50209" lon="7.41998">
        <ele>368</ele>
        <time>2017-04-09T10:50:44Z</time>
      </trkpt>
      <trkpt lat="48.50229" lon="7.41982">
        <ele>368</ele>
        <time>2017-04-09T10:50:49Z</time>
      </trkpt>
      <trkpt lat="48.50251" lon="7.4196">
        <ele>366</ele>
        <time>2017-04-09T10:50:56Z</time>
      </trkpt>
      <trkpt lat="48.50276" lon="7.4193">
        <ele>366</ele>
        <time>2017-04-09T10:51:03Z</time>
      </trkpt>
      <trkpt lat="48.50305" lon="7.41887">
        <ele>368</ele>
        <time>2017-04-09T10:51:12Z</time>
      </trkpt>
      <trkpt lat="48.50325" lon="7.41852">
        <ele>368</ele>
        <time>2017-04-09T10:51:20Z</time>
      </trkpt>
      <trkpt lat="48.50332" lon="7.41838">
        <ele>367</ele>
        <time>2017-04-09T10:51:23Z</time>
      </trkpt>
      <trkpt lat="48.50355" lon="7.41802">
        <ele>366</ele>
        <time>2017-04-09T10:51:31Z</time>
      </trkpt>
      <trkpt lat="48.50374" lon="7.41782">
        <ele>366</ele>
        <time>2017-04-09T10:51:37Z</time>
      </trkpt>
      <trkpt lat="48.50394" lon="7.41758">
        <ele>365</ele>
        <time>2017-04-09T10:51:43Z</time>
      </trkpt>
      <trkpt lat="48.504" lon="7.4174">
        <ele>365</ele>
        <time>2017-04-09T10:51:47Z</time>
      </trkpt>
      <trkpt lat="48.50397" lon="7.41724">
        <ele>365</ele>
        <time>2017-04-09T10:51:51Z</time>
      </trkpt>
      <trkpt lat="48.50393" lon="7.41696">
        <ele>366</ele>
        <time>2017-04-09T10:51:58Z</time>
      </trkpt>
      <trkpt lat="48.5039" lon="7.41684">
        <ele>366</ele>
        <time>2017-04-09T10:52:01Z</time>
      </trkpt>
      <trkpt lat="48.5039" lon="7.4168">
        <ele>366</ele>
        <time>2017-04-09T10:52:02Z</time>
      </trkpt>
      <trkpt lat="48.50388" lon="7.41678">
        <ele>366</ele>
        <time>2017-04-09T10:52:03Z</time>
      </trkpt>
      <trkpt lat="48.50387" lon="7.41674">
        <ele>366</ele>
        <time>2017-04-09T10:52:04Z</time>
      </trkpt>
      <trkpt lat="48.50385" lon="7.41671">
        <ele>366</ele>
        <time>2017-04-09T10:52:05Z</time>
      </trkpt>
      <trkpt lat="48.50374" lon="7.41649">
        <ele>367</ele>
        <time>2017-04-09T10:52:12Z</time>
      </trkpt>
      <trkpt lat="48.50369" lon="7.41628">
        <ele>367</ele>
        <time>2017-04-09T10:52:18Z</time>
      </trkpt>
      <trkpt lat="48.5036" lon="7.41604">
        <ele>367</ele>
        <time>2017-04-09T10:52:23Z</time>
      </trkpt>
      <trkpt lat="48.50346" lon="7.41584">
        <ele>368</ele>
        <time>2017-04-09T10:52:29Z</time>
      </trkpt>
      <trkpt lat="48.50328" lon="7.41562">
        <ele>369</ele>
        <time>2017-04-09T10:52:35Z</time>
      </trkpt>
      <trkpt lat="48.5031" lon="7.41539">
        <ele>370</ele>
        <time>2017-04-09T10:52:41Z</time>
      </trkpt>
      <trkpt lat="48.50286" lon="7.41511">
        <ele>370</ele>
        <time>2017-04-09T10:52:47Z</time>
      </trkpt>
      <trkpt lat="48.50274" lon="7.41494">
        <ele>369</ele>
        <time>2017-04-09T10:52:51Z</time>
      </trkpt>
      <trkpt lat="48.50271" lon="7.4149">
        <ele>370</ele>
        <time>2017-04-09T10:52:52Z</time>
      </trkpt>
      <trkpt lat="48.50268" lon="7.41486">
        <ele>370</ele>
        <time>2017-04-09T10:52:53Z</time>
      </trkpt>
      <trkpt lat="48.50265" lon="7.41482">
        <ele>370</ele>
        <time>2017-04-09T10:52:54Z</time>
      </trkpt>
      <trkpt lat="48.50263" lon="7.41476">
        <ele>369</ele>
        <time>2017-04-09T10:52:55Z</time>
      </trkpt>
      <trkpt lat="48.50247" lon="7.41449">
        <ele>373</ele>
        <time>2017-04-09T10:53:02Z</time>
      </trkpt>
      <trkpt lat="48.50233" lon="7.4142">
        <ele>373</ele>
        <time>2017-04-09T10:53:10Z</time>
      </trkpt>
      <trkpt lat="48.50227" lon="7.41394">
        <ele>373</ele>
        <time>2017-04-09T10:53:17Z</time>
      </trkpt>
      <trkpt lat="48.50218" lon="7.41363">
        <ele>373</ele>
        <time>2017-04-09T10:53:23Z</time>
      </trkpt>
      <trkpt lat="48.5021" lon="7.41328">
        <ele>372</ele>
        <time>2017-04-09T10:53:30Z</time>
      </trkpt>
      <trkpt lat="48.50203" lon="7.41291">
        <ele>372</ele>
        <time>2017-04-09T10:53:37Z</time>
      </trkpt>
      <trkpt lat="48.50193" lon="7.41257">
        <ele>372</ele>
        <time>2017-04-09T10:53:43Z</time>
      </trkpt>
      <trkpt lat="48.50173" lon="7.4122">
        <ele>371</ele>
        <time>2017-04-09T10:53:48Z</time>
      </trkpt>
      <trkpt lat="48.50145" lon="7.41164">
        <ele>372</ele>
        <time>2017-04-09T10:53:57Z</time>
      </trkpt>
      <trkpt lat="48.50124" lon="7.41125">
        <ele>374</ele>
        <time>2017-04-09T10:54:04Z</time>
      </trkpt>
      <trkpt lat="48.50108" lon="7.41084">
        <ele>374</ele>
        <time>2017-04-09T10:54:12Z</time>
      </trkpt>
      <trkpt lat="48.50089" lon="7.41051">
        <ele>370</ele>
        <time>2017-04-09T10:54:19Z</time>
      </trkpt>
      <trkpt lat="48.50063" lon="7.41017">
        <ele>374</ele>
        <time>2017-04-09T10:54:25Z</time>
      </trkpt>
      <trkpt lat="48.50044" lon="7.40992">
        <ele>370</ele>
        <time>2017-04-09T10:54:31Z</time>
      </trkpt>
      <trkpt lat="48.50029" lon="7.40978">
        <ele>370</ele>
        <time>2017-04-09T10:54:36Z</time>
      </trkpt>
      <trkpt lat="48.50009" lon="7.4097">
        <ele>371</ele>
        <time>2017-04-09T10:54:41Z</time>
      </trkpt>
      <trkpt lat="48.49971" lon="7.40956">
        <ele>372</ele>
        <time>2017-04-09T10:54:51Z</time>
      </trkpt>
      <trkpt lat="48.49962" lon="7.40955">
        <ele>372</ele>
        <time>2017-04-09T10:54:53Z</time>
      </trkpt>
      <trkpt lat="48.49943" lon="7.40955">
        <ele>372</ele>
        <time>2017-04-09T10:54:57Z</time>
      </trkpt>
      <trkpt lat="48.49905" lon="7.40955">
        <ele>371</ele>
        <time>2017-04-09T10:55:05Z</time>
      </trkpt>
      <trkpt lat="48.49861" lon="7.4095">
        <ele>370</ele>
        <time>2017-04-09T10:55:12Z</time>
      </trkpt>
      <trkpt lat="48.49835" lon="7.4095">
        <ele>370</ele>
        <time>2017-04-09T10:55:17Z</time>
      </trkpt>
      <trkpt lat="48.49825" lon="7.40955">
        <ele>369</ele>
        <time>2017-04-09T10:55:19Z</time>
      </trkpt>
      <trkpt lat="48.49811" lon="7.40963">
        <ele>369</ele>
        <time>2017-04-09T10:55:22Z</time>
      </trkpt>
      <trkpt lat="48.49803" lon="7.40971">
        <ele>369</ele>
        <time>2017-04-09T10:55:24Z</time>
      </trkpt>
      <trkpt lat="48.49777" lon="7.40997">
        <ele>369</ele>
        <time>2017-04-09T10:55:31Z</time>
      </trkpt>
      <trkpt lat="48.49751" lon="7.41021">
        <ele>371</ele>
        <time>2017-04-09T10:55:38Z</time>
      </trkpt>
      <trkpt lat="48.49709" lon="7.41049">
        <ele>370</ele>
        <time>2017-04-09T10:55:47Z</time>
      </trkpt>
      <trkpt lat="48.49696" lon="7.41051">
        <ele>370</ele>
        <time>2017-04-09T10:55:50Z</time>
      </trkpt>
      <trkpt lat="48.49686" lon="7.41051">
        <ele>370</ele>
        <time>2017-04-09T10:55:52Z</time>
      </trkpt>
      <trkpt lat="48.49682" lon="7.4105">
        <ele>370</ele>
        <time>2017-04-09T10:55:53Z</time>
      </trkpt>
      <trkpt lat="48.49669" lon="7.41046">
        <ele>370</ele>
        <time>2017-04-09T10:55:56Z</time>
      </trkpt>
      <trkpt lat="48.49664" lon="7.41045">
        <ele>370</ele>
        <time>2017-04-09T10:55:57Z</time>
      </trkpt>
      <trkpt lat="48.4964" lon="7.41035">
        <ele>370</ele>
        <time>2017-04-09T10:56:03Z</time>
      </trkpt>
      <trkpt lat="48.49616" lon="7.4102">
        <ele>371</ele>
        <time>2017-04-09T10:56:10Z</time>
      </trkpt>
      <trkpt lat="48.49597" lon="7.41008">
        <ele>370</ele>
        <time>2017-04-09T10:56:16Z</time>
      </trkpt>
      <trkpt lat="48.49577" lon="7.40994">
        <ele>370</ele>
        <time>2017-04-09T10:56:23Z</time>
      </trkpt>
      <trkpt lat="48.49548" lon="7.40974">
        <ele>371</ele>
        <time>2017-04-09T10:56:31Z</time>
      </trkpt>
      <trkpt lat="48.49522" lon="7.40951">
        <ele>371</ele>
        <time>2017-04-09T10:56:40Z</time>
      </trkpt>
      <trkpt lat="48.49507" lon="7.40935">
        <ele>371</ele>
        <time>2017-04-09T10:56:47Z</time>
      </trkpt>
      <trkpt lat="48.49491" lon="7.40923">
        <ele>372</ele>
        <time>2017-04-09T10:56:54Z</time>
      </trkpt>
      <trkpt lat="48.49471" lon="7.40911">
        <ele>369</ele>
        <time>2017-04-09T10:57:00Z</time>
      </trkpt>
      <trkpt lat="48.49451" lon="7.40902">
        <ele>370</ele>
        <time>2017-04-09T10:57:06Z</time>
      </trkpt>
      <trkpt lat="48.49432" lon="7.40891">
        <ele>370</ele>
        <time>2017-04-09T10:57:12Z</time>
      </trkpt>
      <trkpt lat="48.49408" lon="7.40871">
        <ele>371</ele>
        <time>2017-04-09T10:57:20Z</time>
      </trkpt>
      <trkpt lat="48.4939" lon="7.40849">
        <ele>371</ele>
        <time>2017-04-09T10:57:28Z</time>
      </trkpt>
      <trkpt lat="48.4937" lon="7.40827">
        <ele>369</ele>
        <time>2017-04-09T10:57:36Z</time>
      </trkpt>
      <trkpt lat="48.49363" lon="7.40815">
        <ele>369</ele>
        <time>2017-04-09T10:57:41Z</time>
      </trkpt>
      <trkpt lat="48.49308" lon="7.4078">
        <ele>372</ele>
        <time>2017-04-09T10:57:46Z</time>
      </trkpt>
      <trkpt lat="48.49288" lon="7.40768">
        <ele>372</ele>
        <time>2017-04-09T10:57:49Z</time>
      </trkpt>
      <trkpt lat="48.49268" lon="7.4074">
        <ele>372</ele>
        <time>2017-04-09T10:57:56Z</time>
      </trkpt>
      <trkpt lat="48.49264" lon="7.40734">
        <ele>372</ele>
        <time>2017-04-09T10:57:57Z</time>
      </trkpt>
      <trkpt lat="48.49252" lon="7.40701">
        <ele>371</ele>
        <time>2017-04-09T10:58:03Z</time>
      </trkpt>
      <trkpt lat="48.49237" lon="7.40643">
        <ele>370</ele>
        <time>2017-04-09T10:58:12Z</time>
      </trkpt>
      <trkpt lat="48.49219" lon="7.40593">
        <ele>368</ele>
        <time>2017-04-09T10:58:20Z</time>
      </trkpt>
      <trkpt lat="48.49211" lon="7.4057">
        <ele>366</ele>
        <time>2017-04-09T10:58:23Z</time>
      </trkpt>
      <trkpt lat="48.49207" lon="7.40563">
        <ele>366</ele>
        <time>2017-04-09T10:58:24Z</time>
      </trkpt>
      <trkpt lat="48.49203" lon="7.40554">
        <ele>365</ele>
        <time>2017-04-09T10:58:25Z</time>
      </trkpt>
      <trkpt lat="48.49198" lon="7.40539">
        <ele>365</ele>
        <time>2017-04-09T10:58:27Z</time>
      </trkpt>
      <trkpt lat="48.49192" lon="7.40522">
        <ele>364</ele>
        <time>2017-04-09T10:58:29Z</time>
      </trkpt>
      <trkpt lat="48.49153" lon="7.40449">
        <ele>356</ele>
        <time>2017-04-09T10:58:37Z</time>
      </trkpt>
      <trkpt lat="48.49147" lon="7.40437">
        <ele>356</ele>
        <time>2017-04-09T10:58:38Z</time>
      </trkpt>
      <trkpt lat="48.49143" lon="7.40427">
        <ele>355</ele>
        <time>2017-04-09T10:58:39Z</time>
      </trkpt>
      <trkpt lat="48.4914" lon="7.40416">
        <ele>353</ele>
        <time>2017-04-09T10:58:40Z</time>
      </trkpt>
      <trkpt lat="48.49137" lon="7.40401">
        <ele>353</ele>
        <time>2017-04-09T10:58:41Z</time>
      </trkpt>
      <trkpt lat="48.49117" lon="7.40341">
        <ele>354</ele>
        <time>2017-04-09T10:58:46Z</time>
      </trkpt>
      <trkpt lat="48.49097" lon="7.40296">
        <ele>355</ele>
        <time>2017-04-09T10:58:52Z</time>
      </trkpt>
      <trkpt lat="48.49071" lon="7.40242">
        <ele>361</ele>
        <time>2017-04-09T10:59:00Z</time>
      </trkpt>
      <trkpt lat="48.49045" lon="7.40188">
        <ele>362</ele>
        <time>2017-04-09T10:59:08Z</time>
      </trkpt>
      <trkpt lat="48.49022" lon="7.40136">
        <ele>361</ele>
        <time>2017-04-09T10:59:15Z</time>
      </trkpt>
      <trkpt lat="48.49019" lon="7.40129">
        <ele>361</ele>
        <time>2017-04-09T10:59:16Z</time>
      </trkpt>
      <trkpt lat="48.49015" lon="7.40122">
        <ele>361</ele>
        <time>2017-04-09T10:59:17Z</time>
      </trkpt>
      <trkpt lat="48.49012" lon="7.40115">
        <ele>361</ele>
        <time>2017-04-09T10:59:18Z</time>
      </trkpt>
      <trkpt lat="48.49009" lon="7.40108">
        <ele>361</ele>
        <time>2017-04-09T10:59:19Z</time>
      </trkpt>
      <trkpt lat="48.48988" lon="7.40064">
        <ele>362</ele>
        <time>2017-04-09T10:59:25Z</time>
      </trkpt>
      <trkpt lat="48.4896" lon="7.39995">
        <ele>362</ele>
        <time>2017-04-09T10:59:35Z</time>
      </trkpt>
      <trkpt lat="48.48961" lon="7.39963">
        <ele>362</ele>
        <time>2017-04-09T10:59:39Z</time>
      </trkpt>
      <trkpt lat="48.48977" lon="7.39931">
        <ele>360</ele>
        <time>2017-04-09T10:59:43Z</time>
      </trkpt>
      <trkpt lat="48.48984" lon="7.39926">
        <ele>359</ele>
        <time>2017-04-09T10:59:44Z</time>
      </trkpt>
      <trkpt lat="48.48991" lon="7.39921">
        <ele>358</ele>
        <time>2017-04-09T10:59:45Z</time>
      </trkpt>
      <trkpt lat="48.48998" lon="7.39917">
        <ele>357</ele>
        <time>2017-04-09T10:59:46Z</time>
      </trkpt>
      <trkpt lat="48.49003" lon="7.39911">
        <ele>355</ele>
        <time>2017-04-09T10:59:47Z</time>
      </trkpt>
      <trkpt lat="48.49009" lon="7.39905">
        <ele>354</ele>
        <time>2017-04-09T10:59:48Z</time>
      </trkpt>
      <trkpt lat="48.49013" lon="7.39898">
        <ele>353</ele>
        <time>2017-04-09T10:59:49Z</time>
      </trkpt>
      <trkpt lat="48.49017" lon="7.39891">
        <ele>353</ele>
        <time>2017-04-09T10:59:50Z</time>
      </trkpt>
      <trkpt lat="48.49021" lon="7.39876">
        <ele>352</ele>
        <time>2017-04-09T10:59:52Z</time>
      </trkpt>
      <trkpt lat="48.49021" lon="7.39852">
        <ele>353</ele>
        <time>2017-04-09T10:59:55Z</time>
      </trkpt>
      <trkpt lat="48.4902" lon="7.39845">
        <ele>353</ele>
        <time>2017-04-09T10:59:56Z</time>
      </trkpt>
      <trkpt lat="48.49018" lon="7.3983">
        <ele>354</ele>
        <time>2017-04-09T10:59:58Z</time>
      </trkpt>
      <trkpt lat="48.49012" lon="7.39802">
        <ele>353</ele>
        <time>2017-04-09T11:00:02Z</time>
      </trkpt>
      <trkpt lat="48.49011" lon="7.39795">
        <ele>353</ele>
        <time>2017-04-09T11:00:03Z</time>
      </trkpt>
      <trkpt lat="48.49011" lon="7.39782">
        <ele>354</ele>
        <time>2017-04-09T11:00:05Z</time>
      </trkpt>
      <trkpt lat="48.49013" lon="7.39769">
        <ele>354</ele>
        <time>2017-04-09T11:00:07Z</time>
      </trkpt>
      <trkpt lat="48.49012" lon="7.39721">
        <ele>354</ele>
        <time>2017-04-09T11:00:13Z</time>
      </trkpt>
      <trkpt lat="48.49014" lon="7.39705">
        <ele>354</ele>
        <time>2017-04-09T11:00:15Z</time>
      </trkpt>
      <trkpt lat="48.49017" lon="7.39676">
        <ele>355</ele>
        <time>2017-04-09T11:00:19Z</time>
      </trkpt>
      <trkpt lat="48.49017" lon="7.39656">
        <ele>355</ele>
        <time>2017-04-09T11:00:23Z</time>
      </trkpt>
      <trkpt lat="48.49016" lon="7.39627">
        <ele>354</ele>
        <time>2017-04-09T11:00:30Z</time>
      </trkpt>
      <trkpt lat="48.49014" lon="7.39587">
        <ele>356</ele>
        <time>2017-04-09T11:00:37Z</time>
      </trkpt>
      <trkpt lat="48.49015" lon="7.39553">
        <ele>355</ele>
        <time>2017-04-09T11:00:42Z</time>
      </trkpt>
      <trkpt lat="48.49017" lon="7.39547">
        <ele>354</ele>
        <time>2017-04-09T11:00:43Z</time>
      </trkpt>
      <trkpt lat="48.49018" lon="7.39542">
        <ele>354</ele>
        <time>2017-04-09T11:00:44Z</time>
      </trkpt>
      <trkpt lat="48.4902" lon="7.39537">
        <ele>354</ele>
        <time>2017-04-09T11:00:45Z</time>
      </trkpt>
      <trkpt lat="48.49023" lon="7.39531">
        <ele>354</ele>
        <time>2017-04-09T11:00:46Z</time>
      </trkpt>
      <trkpt lat="48.49026" lon="7.39519">
        <ele>354</ele>
        <time>2017-04-09T11:00:48Z</time>
      </trkpt>
      <trkpt lat="48.49023" lon="7.39491">
        <ele>355</ele>
        <time>2017-04-09T11:00:52Z</time>
      </trkpt>
      <trkpt lat="48.49024" lon="7.39484">
        <ele>354</ele>
        <time>2017-04-09T11:00:53Z</time>
      </trkpt>
      <trkpt lat="48.49026" lon="7.39477">
        <ele>354</ele>
        <time>2017-04-09T11:00:54Z</time>
      </trkpt>
      <trkpt lat="48.49028" lon="7.39471">
        <ele>354</ele>
        <time>2017-04-09T11:00:55Z</time>
      </trkpt>
      <trkpt lat="48.4903" lon="7.39465">
        <ele>353</ele>
        <time>2017-04-09T11:00:56Z</time>
      </trkpt>
      <trkpt lat="48.49037" lon="7.39451">
        <ele>353</ele>
        <time>2017-04-09T11:00:58Z</time>
      </trkpt>
      <trkpt lat="48.49033" lon="7.3944">
        <ele>353</ele>
        <time>2017-04-09T11:00:59Z</time>
      </trkpt>
      <trkpt lat="48.49032" lon="7.39423">
        <ele>353</ele>
        <time>2017-04-09T11:01:01Z</time>
      </trkpt>
      <trkpt lat="48.49033" lon="7.39416">
        <ele>351</ele>
        <time>2017-04-09T11:01:02Z</time>
      </trkpt>
      <trkpt lat="48.49034" lon="7.39409">
        <ele>351</ele>
        <time>2017-04-09T11:01:03Z</time>
      </trkpt>
      <trkpt lat="48.49035" lon="7.39402">
        <ele>350</ele>
        <time>2017-04-09T11:01:04Z</time>
      </trkpt>
      <trkpt lat="48.49037" lon="7.39393">
        <ele>350</ele>
        <time>2017-04-09T11:01:05Z</time>
      </trkpt>
      <trkpt lat="48.49035" lon="7.39369">
        <ele>349</ele>
        <time>2017-04-09T11:01:08Z</time>
      </trkpt>
      <trkpt lat="48.49035" lon="7.39355">
        <ele>349</ele>
        <time>2017-04-09T11:01:10Z</time>
      </trkpt>
      <trkpt lat="48.49036" lon="7.39349">
        <ele>349</ele>
        <time>2017-04-09T11:01:11Z</time>
      </trkpt>
      <trkpt lat="48.49036" lon="7.39343">
        <ele>349</ele>
        <time>2017-04-09T11:01:12Z</time>
      </trkpt>
      <trkpt lat="48.49035" lon="7.39337">
        <ele>349</ele>
        <time>2017-04-09T11:01:13Z</time>
      </trkpt>
      <trkpt lat="48.49034" lon="7.39331">
        <ele>345</ele>
        <time>2017-04-09T11:01:14Z</time>
      </trkpt>
      <trkpt lat="48.49033" lon="7.39326">
        <ele>345</ele>
        <time>2017-04-09T11:01:15Z</time>
      </trkpt>
      <trkpt lat="48.49028" lon="7.39312">
        <ele>345</ele>
        <time>2017-04-09T11:01:18Z</time>
      </trkpt>
      <trkpt lat="48.49026" lon="7.39308">
        <ele>345</ele>
        <time>2017-04-09T11:01:19Z</time>
      </trkpt>
      <trkpt lat="48.49026" lon="7.39306">
        <ele>345</ele>
        <time>2017-04-09T11:01:20Z</time>
      </trkpt>
      <trkpt lat="48.49028" lon="7.39302">
        <ele>345</ele>
        <time>2017-04-09T11:01:21Z</time>
      </trkpt>
      <trkpt lat="48.49027" lon="7.393">
        <ele>345</ele>
        <time>2017-04-09T11:01:22Z</time>
      </trkpt>
      <trkpt lat="48.49027" lon="7.39299">
        <ele>345</ele>
        <time>2017-04-09T11:01:23Z</time>
      </trkpt>
      <trkpt lat="48.49016" lon="7.39288">
        <ele>345</ele>
        <time>2017-04-09T11:01:29Z</time>
      </trkpt>
      <trkpt lat="48.49006" lon="7.39274">
        <ele>345</ele>
        <time>2017-04-09T11:01:35Z</time>
      </trkpt>
      <trkpt lat="48.49002" lon="7.39252">
        <ele>347</ele>
        <time>2017-04-09T11:01:40Z</time>
      </trkpt>
      <trkpt lat="48.48997" lon="7.39223">
        <ele>350</ele>
        <time>2017-04-09T11:01:45Z</time>
      </trkpt>
      <trkpt lat="48.48974" lon="7.39182">
        <ele>351</ele>
        <time>2017-04-09T11:01:52Z</time>
      </trkpt>
      <trkpt lat="48.48961" lon="7.39158">
        <ele>348</ele>
        <time>2017-04-09T11:01:57Z</time>
      </trkpt>
      <trkpt lat="48.48959" lon="7.39151">
        <ele>348</ele>
        <time>2017-04-09T11:01:58Z</time>
      </trkpt>
      <trkpt lat="48.48958" lon="7.39144">
        <ele>348</ele>
        <time>2017-04-09T11:01:59Z</time>
      </trkpt>
      <trkpt lat="48.48959" lon="7.39137">
        <ele>348</ele>
        <time>2017-04-09T11:02:00Z</time>
      </trkpt>
      <trkpt lat="48.48962" lon="7.39132">
        <ele>347</ele>
        <time>2017-04-09T11:02:01Z</time>
      </trkpt>
      <trkpt lat="48.48965" lon="7.39127">
        <ele>347</ele>
        <time>2017-04-09T11:02:02Z</time>
      </trkpt>
      <trkpt lat="48.48968" lon="7.39122">
        <ele>346</ele>
        <time>2017-04-09T11:02:03Z</time>
      </trkpt>
      <trkpt lat="48.48969" lon="7.39114">
        <ele>346</ele>
        <time>2017-04-09T11:02:04Z</time>
      </trkpt>
      <trkpt lat="48.48971" lon="7.39108">
        <ele>345</ele>
        <time>2017-04-09T11:02:05Z</time>
      </trkpt>
      <trkpt lat="48.48981" lon="7.39068">
        <ele>341</ele>
        <time>2017-04-09T11:02:11Z</time>
      </trkpt>
      <trkpt lat="48.48989" lon="7.39033">
        <ele>341</ele>
        <time>2017-04-09T11:02:16Z</time>
      </trkpt>
      <trkpt lat="48.48993" lon="7.39011">
        <ele>339</ele>
        <time>2017-04-09T11:02:19Z</time>
      </trkpt>
      <trkpt lat="48.48992" lon="7.38987">
        <ele>340</ele>
        <time>2017-04-09T11:02:22Z</time>
      </trkpt>
      <trkpt lat="48.4899" lon="7.38931">
        <ele>342</ele>
        <time>2017-04-09T11:02:29Z</time>
      </trkpt>
      <trkpt lat="48.48986" lon="7.38869">
        <ele>346</ele>
        <time>2017-04-09T11:02:37Z</time>
      </trkpt>
      <trkpt lat="48.48986" lon="7.38862">
        <ele>346</ele>
        <time>2017-04-09T11:02:38Z</time>
      </trkpt>
      <trkpt lat="48.48984" lon="7.38821">
        <ele>344</ele>
        <time>2017-04-09T11:02:44Z</time>
      </trkpt>
      <trkpt lat="48.48983" lon="7.38813">
        <ele>345</ele>
        <time>2017-04-09T11:02:45Z</time>
      </trkpt>
      <trkpt lat="48.48975" lon="7.38772">
        <ele>344</ele>
        <time>2017-04-09T11:02:51Z</time>
      </trkpt>
      <trkpt lat="48.48976" lon="7.38763">
        <ele>343</ele>
        <time>2017-04-09T11:02:52Z</time>
      </trkpt>
      <trkpt lat="48.48969" lon="7.38722">
        <ele>343</ele>
        <time>2017-04-09T11:02:59Z</time>
      </trkpt>
      <trkpt lat="48.48969" lon="7.38703">
        <ele>343</ele>
        <time>2017-04-09T11:03:03Z</time>
      </trkpt>
      <trkpt lat="48.4898" lon="7.38681">
        <ele>340</ele>
        <time>2017-04-09T11:03:07Z</time>
      </trkpt>
      <trkpt lat="48.48986" lon="7.38675">
        <ele>338</ele>
        <time>2017-04-09T11:03:08Z</time>
      </trkpt>
      <trkpt lat="48.4899" lon="7.38669">
        <ele>336</ele>
        <time>2017-04-09T11:03:09Z</time>
      </trkpt>
      <trkpt lat="48.48993" lon="7.38663">
        <ele>335</ele>
        <time>2017-04-09T11:03:10Z</time>
      </trkpt>
      <trkpt lat="48.48997" lon="7.38657">
        <ele>336</ele>
        <time>2017-04-09T11:03:11Z</time>
      </trkpt>
      <trkpt lat="48.48999" lon="7.38651">
        <ele>338</ele>
        <time>2017-04-09T11:03:12Z</time>
      </trkpt>
      <trkpt lat="48.49001" lon="7.38645">
        <ele>326</ele>
        <time>2017-04-09T11:03:13Z</time>
      </trkpt>
      <trkpt lat="48.49004" lon="7.38639">
        <ele>326</ele>
        <time>2017-04-09T11:03:14Z</time>
      </trkpt>
      <trkpt lat="48.49005" lon="7.38632">
        <ele>325</ele>
        <time>2017-04-09T11:03:15Z</time>
      </trkpt>
      <trkpt lat="48.49007" lon="7.38624">
        <ele>325</ele>
        <time>2017-04-09T11:03:16Z</time>
      </trkpt>
      <trkpt lat="48.49009" lon="7.38616">
        <ele>326</ele>
        <time>2017-04-09T11:03:17Z</time>
      </trkpt>
      <trkpt lat="48.49008" lon="7.38605">
        <ele>327</ele>
        <time>2017-04-09T11:03:18Z</time>
      </trkpt>
      <trkpt lat="48.49009" lon="7.38596">
        <ele>329</ele>
        <time>2017-04-09T11:03:19Z</time>
      </trkpt>
      <trkpt lat="48.4901" lon="7.38586">
        <ele>330</ele>
        <time>2017-04-09T11:03:20Z</time>
      </trkpt>
      <trkpt lat="48.49011" lon="7.38577">
        <ele>329</ele>
        <time>2017-04-09T11:03:21Z</time>
      </trkpt>
      <trkpt lat="48.49011" lon="7.38568">
        <ele>328</ele>
        <time>2017-04-09T11:03:22Z</time>
      </trkpt>
      <trkpt lat="48.49009" lon="7.3856">
        <ele>327</ele>
        <time>2017-04-09T11:03:23Z</time>
      </trkpt>
      <trkpt lat="48.49007" lon="7.38553">
        <ele>326</ele>
        <time>2017-04-09T11:03:24Z</time>
      </trkpt>
      <trkpt lat="48.49004" lon="7.3854">
        <ele>325</ele>
        <time>2017-04-09T11:03:26Z</time>
      </trkpt>
      <trkpt lat="48.49002" lon="7.38534">
        <ele>325</ele>
        <time>2017-04-09T11:03:27Z</time>
      </trkpt>
      <trkpt lat="48.49" lon="7.3853">
        <ele>325</ele>
        <time>2017-04-09T11:03:28Z</time>
      </trkpt>
      <trkpt lat="48.48996" lon="7.38527">
        <ele>335</ele>
        <time>2017-04-09T11:03:29Z</time>
      </trkpt>
      <trkpt lat="48.48991" lon="7.38525">
        <ele>335</ele>
        <time>2017-04-09T11:03:30Z</time>
      </trkpt>
      <trkpt lat="48.48987" lon="7.38521">
        <ele>335</ele>
        <time>2017-04-09T11:03:31Z</time>
      </trkpt>
      <trkpt lat="48.48982" lon="7.38516">
        <ele>335</ele>
        <time>2017-04-09T11:03:32Z</time>
      </trkpt>
      <trkpt lat="48.48978" lon="7.3851">
        <ele>335</ele>
        <time>2017-04-09T11:03:33Z</time>
      </trkpt>
      <trkpt lat="48.48973" lon="7.38504">
        <ele>336</ele>
        <time>2017-04-09T11:03:34Z</time>
      </trkpt>
      <trkpt lat="48.48971" lon="7.38498">
        <ele>330</ele>
        <time>2017-04-09T11:03:35Z</time>
      </trkpt>
      <trkpt lat="48.48968" lon="7.3848">
        <ele>330</ele>
        <time>2017-04-09T11:03:37Z</time>
      </trkpt>
      <trkpt lat="48.48966" lon="7.3845">
        <ele>329</ele>
        <time>2017-04-09T11:03:40Z</time>
      </trkpt>
      <trkpt lat="48.48967" lon="7.38442">
        <ele>329</ele>
        <time>2017-04-09T11:03:41Z</time>
      </trkpt>
      <trkpt lat="48.48958" lon="7.38399">
        <ele>324</ele>
        <time>2017-04-09T11:03:47Z</time>
      </trkpt>
      <trkpt lat="48.4895" lon="7.38383">
        <ele>324</ele>
        <time>2017-04-09T11:03:49Z</time>
      </trkpt>
      <trkpt lat="48.48946" lon="7.38375">
        <ele>324</ele>
        <time>2017-04-09T11:03:50Z</time>
      </trkpt>
      <trkpt lat="48.48941" lon="7.38369">
        <ele>324</ele>
        <time>2017-04-09T11:03:51Z</time>
      </trkpt>
      <trkpt lat="48.48935" lon="7.3836">
        <ele>324</ele>
        <time>2017-04-09T11:03:52Z</time>
      </trkpt>
      <trkpt lat="48.48928" lon="7.38353">
        <ele>324</ele>
        <time>2017-04-09T11:03:53Z</time>
      </trkpt>
      <trkpt lat="48.48905" lon="7.38321">
        <ele>328</ele>
        <time>2017-04-09T11:03:57Z</time>
      </trkpt>
      <trkpt lat="48.489" lon="7.3831">
        <ele>328</ele>
        <time>2017-04-09T11:03:58Z</time>
      </trkpt>
      <trkpt lat="48.48897" lon="7.38299">
        <ele>328</ele>
        <time>2017-04-09T11:03:59Z</time>
      </trkpt>
      <trkpt lat="48.48898" lon="7.38288">
        <ele>328</ele>
        <time>2017-04-09T11:04:00Z</time>
      </trkpt>
      <trkpt lat="48.48899" lon="7.38278">
        <ele>327</ele>
        <time>2017-04-09T11:04:01Z</time>
      </trkpt>
      <trkpt lat="48.48902" lon="7.38268">
        <ele>325</ele>
        <time>2017-04-09T11:04:02Z</time>
      </trkpt>
      <trkpt lat="48.48905" lon="7.38257">
        <ele>322</ele>
        <time>2017-04-09T11:04:03Z</time>
      </trkpt>
      <trkpt lat="48.48909" lon="7.38245">
        <ele>321</ele>
        <time>2017-04-09T11:04:04Z</time>
      </trkpt>
      <trkpt lat="48.48912" lon="7.38234">
        <ele>323</ele>
        <time>2017-04-09T11:04:05Z</time>
      </trkpt>
      <trkpt lat="48.48915" lon="7.38224">
        <ele>325</ele>
        <time>2017-04-09T11:04:06Z</time>
      </trkpt>
      <trkpt lat="48.48917" lon="7.38216">
        <ele>329</ele>
        <time>2017-04-09T11:04:07Z</time>
      </trkpt>
      <trkpt lat="48.48919" lon="7.38209">
        <ele>331</ele>
        <time>2017-04-09T11:04:08Z</time>
      </trkpt>
      <trkpt lat="48.4892" lon="7.38204">
        <ele>332</ele>
        <time>2017-04-09T11:04:09Z</time>
      </trkpt>
      <trkpt lat="48.48922" lon="7.38201">
        <ele>332</ele>
        <time>2017-04-09T11:04:10Z</time>
      </trkpt>
      <trkpt lat="48.48923" lon="7.38197">
        <ele>333</ele>
        <time>2017-04-09T11:04:11Z</time>
      </trkpt>
      <trkpt lat="48.48923" lon="7.38195">
        <ele>333</ele>
        <time>2017-04-09T11:04:12Z</time>
      </trkpt>
      <trkpt lat="48.48924" lon="7.38192">
        <ele>333</ele>
        <time>2017-04-09T11:04:13Z</time>
      </trkpt>
      <trkpt lat="48.48923" lon="7.38189">
        <ele>334</ele>
        <time>2017-04-09T11:04:14Z</time>
      </trkpt>
      <trkpt lat="48.48922" lon="7.38186">
        <ele>334</ele>
        <time>2017-04-09T11:04:15Z</time>
      </trkpt>
      <trkpt lat="48.48921" lon="7.38183">
        <ele>334</ele>
        <time>2017-04-09T11:04:16Z</time>
      </trkpt>
      <trkpt lat="48.48909" lon="7.3817">
        <ele>333</ele>
        <time>2017-04-09T11:04:21Z</time>
      </trkpt>
      <trkpt lat="48.48895" lon="7.38159">
        <ele>338</ele>
        <time>2017-04-09T11:04:25Z</time>
      </trkpt>
      <trkpt lat="48.48893" lon="7.38155">
        <ele>338</ele>
        <time>2017-04-09T11:04:26Z</time>
      </trkpt>
      <trkpt lat="48.48867" lon="7.3813">
        <ele>338</ele>
        <time>2017-04-09T11:04:32Z</time>
      </trkpt>
      <trkpt lat="48.48864" lon="7.38124">
        <ele>338</ele>
        <time>2017-04-09T11:04:33Z</time>
      </trkpt>
      <trkpt lat="48.48851" lon="7.38096">
        <ele>337</ele>
        <time>2017-04-09T11:04:37Z</time>
      </trkpt>
      <trkpt lat="48.48842" lon="7.38068">
        <ele>341</ele>
        <time>2017-04-09T11:04:42Z</time>
      </trkpt>
      <trkpt lat="48.48841" lon="7.38042">
        <ele>346</ele>
        <time>2017-04-09T11:04:47Z</time>
      </trkpt>
      <trkpt lat="48.48841" lon="7.38038">
        <ele>346</ele>
        <time>2017-04-09T11:04:48Z</time>
      </trkpt>
      <trkpt lat="48.48839" lon="7.38021">
        <ele>344</ele>
        <time>2017-04-09T11:04:51Z</time>
      </trkpt>
      <trkpt lat="48.48838" lon="7.38016">
        <ele>343</ele>
        <time>2017-04-09T11:04:52Z</time>
      </trkpt>
      <trkpt lat="48.48838" lon="7.38011">
        <ele>341</ele>
        <time>2017-04-09T11:04:53Z</time>
      </trkpt>
      <trkpt lat="48.48838" lon="7.38006">
        <ele>340</ele>
        <time>2017-04-09T11:04:54Z</time>
      </trkpt>
      <trkpt lat="48.48834" lon="7.37998">
        <ele>336</ele>
        <time>2017-04-09T11:04:55Z</time>
      </trkpt>
      <trkpt lat="48.48829" lon="7.3797">
        <ele>338</ele>
        <time>2017-04-09T11:04:59Z</time>
      </trkpt>
      <trkpt lat="48.48831" lon="7.37946">
        <ele>338</ele>
        <time>2017-04-09T11:05:03Z</time>
      </trkpt>
      <trkpt lat="48.48831" lon="7.37941">
        <ele>337</ele>
        <time>2017-04-09T11:05:04Z</time>
      </trkpt>
      <trkpt lat="48.48833" lon="7.37927">
        <ele>335</ele>
        <time>2017-04-09T11:05:06Z</time>
      </trkpt>
      <trkpt lat="48.48834" lon="7.37922">
        <ele>336</ele>
        <time>2017-04-09T11:05:07Z</time>
      </trkpt>
      <trkpt lat="48.48835" lon="7.37916">
        <ele>333</ele>
        <time>2017-04-09T11:05:08Z</time>
      </trkpt>
      <trkpt lat="48.48839" lon="7.37882">
        <ele>344</ele>
        <time>2017-04-09T11:05:15Z</time>
      </trkpt>
      <trkpt lat="48.48844" lon="7.37858">
        <ele>342</ele>
        <time>2017-04-09T11:05:20Z</time>
      </trkpt>
      <trkpt lat="48.48845" lon="7.37854">
        <ele>342</ele>
        <time>2017-04-09T11:05:21Z</time>
      </trkpt>
      <trkpt lat="48.48846" lon="7.3785">
        <ele>341</ele>
        <time>2017-04-09T11:05:22Z</time>
      </trkpt>
      <trkpt lat="48.48846" lon="7.37846">
        <ele>340</ele>
        <time>2017-04-09T11:05:23Z</time>
      </trkpt>
      <trkpt lat="48.48848" lon="7.37841">
        <ele>340</ele>
        <time>2017-04-09T11:05:24Z</time>
      </trkpt>
      <trkpt lat="48.48854" lon="7.3781">
        <ele>341</ele>
        <time>2017-04-09T11:05:31Z</time>
      </trkpt>
      <trkpt lat="48.48858" lon="7.37766">
        <ele>341</ele>
        <time>2017-04-09T11:05:40Z</time>
      </trkpt>
      <trkpt lat="48.48859" lon="7.37761">
        <ele>340</ele>
        <time>2017-04-09T11:05:41Z</time>
      </trkpt>
      <trkpt lat="48.4886" lon="7.37757">
        <ele>340</ele>
        <time>2017-04-09T11:05:42Z</time>
      </trkpt>
      <trkpt lat="48.48861" lon="7.37752">
        <ele>340</ele>
        <time>2017-04-09T11:05:43Z</time>
      </trkpt>
      <trkpt lat="48.48861" lon="7.37747">
        <ele>338</ele>
        <time>2017-04-09T11:05:44Z</time>
      </trkpt>
      <trkpt lat="48.48866" lon="7.37714">
        <ele>339</ele>
        <time>2017-04-09T11:05:51Z</time>
      </trkpt>
      <trkpt lat="48.4887" lon="7.37688">
        <ele>339</ele>
        <time>2017-04-09T11:05:57Z</time>
      </trkpt>
      <trkpt lat="48.48871" lon="7.37684">
        <ele>339</ele>
        <time>2017-04-09T11:05:58Z</time>
      </trkpt>
      <trkpt lat="48.48871" lon="7.3768">
        <ele>339</ele>
        <time>2017-04-09T11:05:59Z</time>
      </trkpt>
      <trkpt lat="48.48872" lon="7.37676">
        <ele>339</ele>
        <time>2017-04-09T11:06:00Z</time>
      </trkpt>
      <trkpt lat="48.48872" lon="7.37671">
        <ele>339</ele>
        <time>2017-04-09T11:06:01Z</time>
      </trkpt>
      <trkpt lat="48.48875" lon="7.37648">
        <ele>337</ele>
        <time>2017-04-09T11:06:06Z</time>
      </trkpt>
      <trkpt lat="48.48882" lon="7.37621">
        <ele>337</ele>
        <time>2017-04-09T11:06:12Z</time>
      </trkpt>
      <trkpt lat="48.48883" lon="7.37617">
        <ele>337</ele>
        <time>2017-04-09T11:06:13Z</time>
      </trkpt>
      <trkpt lat="48.48883" lon="7.37612">
        <ele>337</ele>
        <time>2017-04-09T11:06:14Z</time>
      </trkpt>
      <trkpt lat="48.48884" lon="7.37609">
        <ele>337</ele>
        <time>2017-04-09T11:06:15Z</time>
      </trkpt>
      <trkpt lat="48.48885" lon="7.37605">
        <ele>337</ele>
        <time>2017-04-09T11:06:16Z</time>
      </trkpt>
      <trkpt lat="48.48886" lon="7.37602">
        <ele>337</ele>
        <time>2017-04-09T11:06:17Z</time>
      </trkpt>
      <trkpt lat="48.48887" lon="7.37597">
        <ele>338</ele>
        <time>2017-04-09T11:06:18Z</time>
      </trkpt>
      <trkpt lat="48.48893" lon="7.37553">
        <ele>336</ele>
        <time>2017-04-09T11:06:30Z</time>
      </trkpt>
      <trkpt lat="48.48894" lon="7.37549">
        <ele>336</ele>
        <time>2017-04-09T11:06:31Z</time>
      </trkpt>
      <trkpt lat="48.48895" lon="7.37545">
        <ele>336</ele>
        <time>2017-04-09T11:06:32Z</time>
      </trkpt>
      <trkpt lat="48.48896" lon="7.37541">
        <ele>335</ele>
        <time>2017-04-09T11:06:33Z</time>
      </trkpt>
      <trkpt lat="48.48896" lon="7.37538">
        <ele>335</ele>
        <time>2017-04-09T11:06:34Z</time>
      </trkpt>
      <trkpt lat="48.48901" lon="7.37519">
        <ele>335</ele>
        <time>2017-04-09T11:06:38Z</time>
      </trkpt>
      <trkpt lat="48.48909" lon="7.37494">
        <ele>336</ele>
        <time>2017-04-09T11:06:44Z</time>
      </trkpt>
      <trkpt lat="48.4891" lon="7.3749">
        <ele>336</ele>
        <time>2017-04-09T11:06:45Z</time>
      </trkpt>
      <trkpt lat="48.4891" lon="7.37486">
        <ele>336</ele>
        <time>2017-04-09T11:06:46Z</time>
      </trkpt>
      <trkpt lat="48.48911" lon="7.37482">
        <ele>336</ele>
        <time>2017-04-09T11:06:47Z</time>
      </trkpt>
      <trkpt lat="48.48911" lon="7.37478">
        <ele>336</ele>
        <time>2017-04-09T11:06:48Z</time>
      </trkpt>
      <trkpt lat="48.48917" lon="7.37453">
        <ele>349</ele>
        <time>2017-04-09T11:06:54Z</time>
      </trkpt>
      <trkpt lat="48.48919" lon="7.37439">
        <ele>348</ele>
        <time>2017-04-09T11:06:57Z</time>
      </trkpt>
      <trkpt lat="48.48921" lon="7.37422">
        <ele>344</ele>
        <time>2017-04-09T11:07:01Z</time>
      </trkpt>
      <trkpt lat="48.48922" lon="7.37418">
        <ele>343</ele>
        <time>2017-04-09T11:07:02Z</time>
      </trkpt>
      <trkpt lat="48.48923" lon="7.37414">
        <ele>344</ele>
        <time>2017-04-09T11:07:03Z</time>
      </trkpt>
      <trkpt lat="48.48923" lon="7.37409">
        <ele>345</ele>
        <time>2017-04-09T11:07:04Z</time>
      </trkpt>
      <trkpt lat="48.48924" lon="7.37404">
        <ele>346</ele>
        <time>2017-04-09T11:07:05Z</time>
      </trkpt>
      <trkpt lat="48.48925" lon="7.37374">
        <ele>350</ele>
        <time>2017-04-09T11:07:11Z</time>
      </trkpt>
      <trkpt lat="48.48929" lon="7.37341">
        <ele>345</ele>
        <time>2017-04-09T11:07:19Z</time>
      </trkpt>
      <trkpt lat="48.48929" lon="7.37337">
        <ele>345</ele>
        <time>2017-04-09T11:07:20Z</time>
      </trkpt>
      <trkpt lat="48.4893" lon="7.37333">
        <ele>345</ele>
        <time>2017-04-09T11:07:21Z</time>
      </trkpt>
      <trkpt lat="48.48931" lon="7.37329">
        <ele>345</ele>
        <time>2017-04-09T11:07:22Z</time>
      </trkpt>
      <trkpt lat="48.48931" lon="7.37325">
        <ele>346</ele>
        <time>2017-04-09T11:07:23Z</time>
      </trkpt>
      <trkpt lat="48.48932" lon="7.37321">
        <ele>347</ele>
        <time>2017-04-09T11:07:24Z</time>
      </trkpt>
      <trkpt lat="48.48933" lon="7.3731">
        <ele>349</ele>
        <time>2017-04-09T11:07:27Z</time>
      </trkpt>
      <trkpt lat="48.48936" lon="7.3729">
        <ele>351</ele>
        <time>2017-04-09T11:07:32Z</time>
      </trkpt>
      <trkpt lat="48.48939" lon="7.37264">
        <ele>350</ele>
        <time>2017-04-09T11:07:39Z</time>
      </trkpt>
      <trkpt lat="48.48941" lon="7.37251">
        <ele>350</ele>
        <time>2017-04-09T11:07:43Z</time>
      </trkpt>
      <trkpt lat="48.48942" lon="7.37247">
        <ele>350</ele>
        <time>2017-04-09T11:07:44Z</time>
      </trkpt>
      <trkpt lat="48.48943" lon="7.37244">
        <ele>351</ele>
        <time>2017-04-09T11:07:45Z</time>
      </trkpt>
      <trkpt lat="48.48944" lon="7.3724">
        <ele>351</ele>
        <time>2017-04-09T11:07:46Z</time>
      </trkpt>
      <trkpt lat="48.48944" lon="7.37236">
        <ele>352</ele>
        <time>2017-04-09T11:07:47Z</time>
      </trkpt>
      <trkpt lat="48.48945" lon="7.37214">
        <ele>353</ele>
        <time>2017-04-09T11:07:52Z</time>
      </trkpt>
      <trkpt lat="48.48946" lon="7.3721">
        <ele>353</ele>
        <time>2017-04-09T11:07:53Z</time>
      </trkpt>
      <trkpt lat="48.48946" lon="7.37188">
        <ele>353</ele>
        <time>2017-04-09T11:07:58Z</time>
      </trkpt>
      <trkpt lat="48.48946" lon="7.37183">
        <ele>352</ele>
        <time>2017-04-09T11:07:59Z</time>
      </trkpt>
      <trkpt lat="48.48946" lon="7.37179">
        <ele>352</ele>
        <time>2017-04-09T11:08:00Z</time>
      </trkpt>
      <trkpt lat="48.48945" lon="7.37176">
        <ele>352</ele>
        <time>2017-04-09T11:08:01Z</time>
      </trkpt>
      <trkpt lat="48.48945" lon="7.37172">
        <ele>352</ele>
        <time>2017-04-09T11:08:02Z</time>
      </trkpt>
      <trkpt lat="48.48944" lon="7.37148">
        <ele>353</ele>
        <time>2017-04-09T11:08:08Z</time>
      </trkpt>
      <trkpt lat="48.48947" lon="7.37122">
        <ele>354</ele>
        <time>2017-04-09T11:08:13Z</time>
      </trkpt>
      <trkpt lat="48.48948" lon="7.37117">
        <ele>354</ele>
        <time>2017-04-09T11:08:14Z</time>
      </trkpt>
      <trkpt lat="48.48948" lon="7.37113">
        <ele>354</ele>
        <time>2017-04-09T11:08:15Z</time>
      </trkpt>
      <trkpt lat="48.48948" lon="7.37109">
        <ele>354</ele>
        <time>2017-04-09T11:08:16Z</time>
      </trkpt>
      <trkpt lat="48.48949" lon="7.37104">
        <ele>354</ele>
        <time>2017-04-09T11:08:17Z</time>
      </trkpt>
      <trkpt lat="48.4895" lon="7.37083">
        <ele>354</ele>
        <time>2017-04-09T11:08:22Z</time>
      </trkpt>
      <trkpt lat="48.4895" lon="7.37079">
        <ele>354</ele>
        <time>2017-04-09T11:08:23Z</time>
      </trkpt>
      <trkpt lat="48.48951" lon="7.37075">
        <ele>355</ele>
        <time>2017-04-09T11:08:24Z</time>
      </trkpt>
      <trkpt lat="48.48951" lon="7.37071">
        <ele>355</ele>
        <time>2017-04-09T11:08:25Z</time>
      </trkpt>
      <trkpt lat="48.48952" lon="7.37066">
        <ele>355</ele>
        <time>2017-04-09T11:08:26Z</time>
      </trkpt>
      <trkpt lat="48.48952" lon="7.37062">
        <ele>355</ele>
        <time>2017-04-09T11:08:27Z</time>
      </trkpt>
      <trkpt lat="48.48953" lon="7.37056">
        <ele>355</ele>
        <time>2017-04-09T11:08:29Z</time>
      </trkpt>
      <trkpt lat="48.48957" lon="7.37027">
        <ele>356</ele>
        <time>2017-04-09T11:08:36Z</time>
      </trkpt>
      <trkpt lat="48.48959" lon="7.37019">
        <ele>357</ele>
        <time>2017-04-09T11:08:38Z</time>
      </trkpt>
      <trkpt lat="48.48961" lon="7.37015">
        <ele>357</ele>
        <time>2017-04-09T11:08:39Z</time>
      </trkpt>
      <trkpt lat="48.48961" lon="7.37011">
        <ele>357</ele>
        <time>2017-04-09T11:08:40Z</time>
      </trkpt>
      <trkpt lat="48.48962" lon="7.37007">
        <ele>357</ele>
        <time>2017-04-09T11:08:41Z</time>
      </trkpt>
      <trkpt lat="48.48962" lon="7.37002">
        <ele>357</ele>
        <time>2017-04-09T11:08:42Z</time>
      </trkpt>
      <trkpt lat="48.48968" lon="7.3697">
        <ele>356</ele>
        <time>2017-04-09T11:08:50Z</time>
      </trkpt>
      <trkpt lat="48.48972" lon="7.36955">
        <ele>356</ele>
        <time>2017-04-09T11:08:54Z</time>
      </trkpt>
      <trkpt lat="48.48973" lon="7.36951">
        <ele>356</ele>
        <time>2017-04-09T11:08:55Z</time>
      </trkpt>
      <trkpt lat="48.48974" lon="7.36947">
        <ele>356</ele>
        <time>2017-04-09T11:08:56Z</time>
      </trkpt>
      <trkpt lat="48.48975" lon="7.36942">
        <ele>357</ele>
        <time>2017-04-09T11:08:57Z</time>
      </trkpt>
      <trkpt lat="48.48976" lon="7.36938">
        <ele>357</ele>
        <time>2017-04-09T11:08:58Z</time>
      </trkpt>
      <trkpt lat="48.48982" lon="7.36907">
        <ele>357</ele>
        <time>2017-04-09T11:09:05Z</time>
      </trkpt>
      <trkpt lat="48.48982" lon="7.36903">
        <ele>356</ele>
        <time>2017-04-09T11:09:06Z</time>
      </trkpt>
      <trkpt lat="48.48983" lon="7.36899">
        <ele>356</ele>
        <time>2017-04-09T11:09:07Z</time>
      </trkpt>
      <trkpt lat="48.48983" lon="7.36895">
        <ele>355</ele>
        <time>2017-04-09T11:09:08Z</time>
      </trkpt>
      <trkpt lat="48.48984" lon="7.3689">
        <ele>355</ele>
        <time>2017-04-09T11:09:09Z</time>
      </trkpt>
      <trkpt lat="48.48987" lon="7.36872">
        <ele>354</ele>
        <time>2017-04-09T11:09:13Z</time>
      </trkpt>
      <trkpt lat="48.48992" lon="7.36843">
        <ele>356</ele>
        <time>2017-04-09T11:09:19Z</time>
      </trkpt>
      <trkpt lat="48.48998" lon="7.36796">
        <ele>353</ele>
        <time>2017-04-09T11:09:28Z</time>
      </trkpt>
      <trkpt lat="48.49006" lon="7.36749">
        <ele>359</ele>
        <time>2017-04-09T11:09:37Z</time>
      </trkpt>
      <trkpt lat="48.49016" lon="7.36719">
        <ele>365</ele>
        <time>2017-04-09T11:09:44Z</time>
      </trkpt>
      <trkpt lat="48.49021" lon="7.3669">
        <ele>365</ele>
        <time>2017-04-09T11:09:50Z</time>
      </trkpt>
      <trkpt lat="48.49029" lon="7.36662">
        <ele>363</ele>
        <time>2017-04-09T11:09:55Z</time>
      </trkpt>
      <trkpt lat="48.49032" lon="7.36637">
        <ele>364</ele>
        <time>2017-04-09T11:09:59Z</time>
      </trkpt>
      <trkpt lat="48.49029" lon="7.36612">
        <ele>363</ele>
        <time>2017-04-09T11:10:02Z</time>
      </trkpt>
      <trkpt lat="48.49036" lon="7.36591">
        <ele>364</ele>
        <time>2017-04-09T11:10:04Z</time>
      </trkpt>
      <trkpt lat="48.49037" lon="7.36573">
        <ele>363</ele>
        <time>2017-04-09T11:10:06Z</time>
      </trkpt>
      <trkpt lat="48.4904" lon="7.36567">
        <ele>364</ele>
        <time>2017-04-09T11:10:07Z</time>
      </trkpt>
      <trkpt lat="48.49048" lon="7.36553">
        <ele>365</ele>
        <time>2017-04-09T11:10:10Z</time>
      </trkpt>
      <trkpt lat="48.49049" lon="7.36547">
        <ele>365</ele>
        <time>2017-04-09T11:10:11Z</time>
      </trkpt>
      <trkpt lat="48.49054" lon="7.36528">
        <ele>365</ele>
        <time>2017-04-09T11:10:15Z</time>
      </trkpt>
      <trkpt lat="48.49061" lon="7.36497">
        <ele>367</ele>
        <time>2017-04-09T11:10:22Z</time>
      </trkpt>
      <trkpt lat="48.49057" lon="7.3649">
        <ele>367</ele>
        <time>2017-04-09T11:10:23Z</time>
      </trkpt>
      <trkpt lat="48.49055" lon="7.36484">
        <ele>366</ele>
        <time>2017-04-09T11:10:24Z</time>
      </trkpt>
      <trkpt lat="48.49053" lon="7.36479">
        <ele>366</ele>
        <time>2017-04-09T11:10:25Z</time>
      </trkpt>
      <trkpt lat="48.49052" lon="7.36474">
        <ele>366</ele>
        <time>2017-04-09T11:10:26Z</time>
      </trkpt>
      <trkpt lat="48.49053" lon="7.3647">
        <ele>366</ele>
        <time>2017-04-09T11:10:27Z</time>
      </trkpt>
      <trkpt lat="48.49051" lon="7.36464">
        <ele>365</ele>
        <time>2017-04-09T11:10:28Z</time>
      </trkpt>
      <trkpt lat="48.49052" lon="7.36419">
        <ele>366</ele>
        <time>2017-04-09T11:10:36Z</time>
      </trkpt>
      <trkpt lat="48.49053" lon="7.36414">
        <ele>366</ele>
        <time>2017-04-09T11:10:37Z</time>
      </trkpt>
      <trkpt lat="48.49053" lon="7.36408">
        <ele>366</ele>
        <time>2017-04-09T11:10:38Z</time>
      </trkpt>
      <trkpt lat="48.49054" lon="7.36404">
        <ele>366</ele>
        <time>2017-04-09T11:10:39Z</time>
      </trkpt>
      <trkpt lat="48.49054" lon="7.36399">
        <ele>366</ele>
        <time>2017-04-09T11:10:40Z</time>
      </trkpt>
      <trkpt lat="48.49054" lon="7.36395">
        <ele>366</ele>
        <time>2017-04-09T11:10:41Z</time>
      </trkpt>
      <trkpt lat="48.49054" lon="7.36387">
        <ele>366</ele>
        <time>2017-04-09T11:10:43Z</time>
      </trkpt>
      <trkpt lat="48.49058" lon="7.36356">
        <ele>366</ele>
        <time>2017-04-09T11:10:50Z</time>
      </trkpt>
      <trkpt lat="48.4906" lon="7.36339">
        <ele>366</ele>
        <time>2017-04-09T11:10:54Z</time>
      </trkpt>
      <trkpt lat="48.4906" lon="7.36335">
        <ele>366</ele>
        <time>2017-04-09T11:10:55Z</time>
      </trkpt>
      <trkpt lat="48.4906" lon="7.36332">
        <ele>366</ele>
        <time>2017-04-09T11:10:56Z</time>
      </trkpt>
      <trkpt lat="48.49061" lon="7.36329">
        <ele>366</ele>
        <time>2017-04-09T11:10:57Z</time>
      </trkpt>
      <trkpt lat="48.49062" lon="7.36326">
        <ele>366</ele>
        <time>2017-04-09T11:10:58Z</time>
      </trkpt>
      <trkpt lat="48.49066" lon="7.36319">
        <ele>366</ele>
        <time>2017-04-09T11:11:01Z</time>
      </trkpt>
      <trkpt lat="48.49075" lon="7.36321">
        <ele>366</ele>
        <time>2017-04-09T11:11:07Z</time>
      </trkpt>
      <trkpt lat="48.49071" lon="7.36337">
        <ele>365</ele>
        <time>2017-04-09T11:11:12Z</time>
      </trkpt>
      <trkpt lat="48.49071" lon="7.3634">
        <ele>365</ele>
        <time>2017-04-09T11:11:13Z</time>
      </trkpt>
      <trkpt lat="48.49071" lon="7.36341">
        <ele>365</ele>
        <time>2017-04-09T11:11:14Z</time>
      </trkpt>
      <trkpt lat="48.4907" lon="7.36342">
        <ele>365</ele>
        <time>2017-04-09T11:11:15Z</time>
      </trkpt>
      <trkpt lat="48.49069" lon="7.36342">
        <ele>365</ele>
        <time>2017-04-09T11:11:16Z</time>
      </trkpt>
      <trkpt lat="48.49067" lon="7.36343">
        <ele>365</ele>
        <time>2017-04-09T11:11:21Z</time>
      </trkpt>
      <trkpt lat="48.49068" lon="7.36356">
        <ele>366</ele>
        <time>2017-04-09T11:14:27Z</time>
      </trkpt>
      <trkpt lat="48.49068" lon="7.3636">
        <ele>366</ele>
        <time>2017-04-09T11:14:28Z</time>
      </trkpt>
      <trkpt lat="48.49073" lon="7.36393">
        <ele>366</ele>
        <time>2017-04-09T11:14:36Z</time>
      </trkpt>
      <trkpt lat="48.49075" lon="7.36413">
        <ele>367</ele>
        <time>2017-04-09T11:14:43Z</time>
      </trkpt>
      <trkpt lat="48.49076" lon="7.36429">
        <ele>366</ele>
        <time>2017-04-09T11:14:48Z</time>
      </trkpt>
      <trkpt lat="48.49076" lon="7.36432">
        <ele>366</ele>
        <time>2017-04-09T11:14:49Z</time>
      </trkpt>
      <trkpt lat="48.49075" lon="7.36435">
        <ele>366</ele>
        <time>2017-04-09T11:14:50Z</time>
      </trkpt>
      <trkpt lat="48.49075" lon="7.36437">
        <ele>366</ele>
        <time>2017-04-09T11:14:51Z</time>
      </trkpt>
      <trkpt lat="48.49075" lon="7.3644">
        <ele>366</ele>
        <time>2017-04-09T11:14:52Z</time>
      </trkpt>
      <trkpt lat="48.49074" lon="7.36451">
        <ele>366</ele>
        <time>2017-04-09T11:14:56Z</time>
      </trkpt>
      <trkpt lat="48.49073" lon="7.36457">
        <ele>366</ele>
        <time>2017-04-09T11:14:58Z</time>
      </trkpt>
      <trkpt lat="48.49073" lon="7.3646">
        <ele>367</ele>
        <time>2017-04-09T11:14:59Z</time>
      </trkpt>
      <trkpt lat="48.49073" lon="7.36462">
        <ele>367</ele>
        <time>2017-04-09T11:15:00Z</time>
      </trkpt>
      <trkpt lat="48.49074" lon="7.36464">
        <ele>367</ele>
        <time>2017-04-09T11:15:01Z</time>
      </trkpt>
      <trkpt lat="48.49073" lon="7.36467">
        <ele>367</ele>
        <time>2017-04-09T11:15:02Z</time>
      </trkpt>
      <trkpt lat="48.49073" lon="7.36473">
        <ele>367</ele>
        <time>2017-04-09T11:15:04Z</time>
      </trkpt>
      <trkpt lat="48.49073" lon="7.36494">
        <ele>369</ele>
        <time>2017-04-09T11:15:11Z</time>
      </trkpt>
      <trkpt lat="48.49078" lon="7.36506">
        <ele>370</ele>
        <time>2017-04-09T11:15:16Z</time>
      </trkpt>
      <trkpt lat="48.49079" lon="7.36508">
        <ele>370</ele>
        <time>2017-04-09T11:15:17Z</time>
      </trkpt>
      <trkpt lat="48.49079" lon="7.36511">
        <ele>369</ele>
        <time>2017-04-09T11:15:18Z</time>
      </trkpt>
      <trkpt lat="48.49079" lon="7.36513">
        <ele>369</ele>
        <time>2017-04-09T11:15:19Z</time>
      </trkpt>
      <trkpt lat="48.49079" lon="7.36516">
        <ele>369</ele>
        <time>2017-04-09T11:15:20Z</time>
      </trkpt>
      <trkpt lat="48.49082" lon="7.36532">
        <ele>368</ele>
        <time>2017-04-09T11:15:27Z</time>
      </trkpt>
      <trkpt lat="48.49083" lon="7.36541">
        <ele>368</ele>
        <time>2017-04-09T11:15:30Z</time>
      </trkpt>
      <trkpt lat="48.49083" lon="7.36543">
        <ele>368</ele>
        <time>2017-04-09T11:15:31Z</time>
      </trkpt>
      <trkpt lat="48.49084" lon="7.36546">
        <ele>386</ele>
        <time>2017-04-09T11:15:32Z</time>
      </trkpt>
      <trkpt lat="48.49084" lon="7.36549">
        <ele>386</ele>
        <time>2017-04-09T11:15:33Z</time>
      </trkpt>
      <trkpt lat="48.49084" lon="7.36552">
        <ele>386</ele>
        <time>2017-04-09T11:15:34Z</time>
      </trkpt>
      <trkpt lat="48.49084" lon="7.36561">
        <ele>385</ele>
        <time>2017-04-09T11:15:36Z</time>
      </trkpt>
      <trkpt lat="48.49087" lon="7.36572">
        <ele>382</ele>
        <time>2017-04-09T11:15:39Z</time>
      </trkpt>
      <trkpt lat="48.49088" lon="7.36586">
        <ele>381</ele>
        <time>2017-04-09T11:15:44Z</time>
      </trkpt>
      <trkpt lat="48.49089" lon="7.36588">
        <ele>382</ele>
        <time>2017-04-09T11:15:45Z</time>
      </trkpt>
      <trkpt lat="48.4909" lon="7.3659">
        <ele>383</ele>
        <time>2017-04-09T11:15:46Z</time>
      </trkpt>
      <trkpt lat="48.4909" lon="7.36593">
        <ele>384</ele>
        <time>2017-04-09T11:15:47Z</time>
      </trkpt>
      <trkpt lat="48.49091" lon="7.36595">
        <ele>386</ele>
        <time>2017-04-09T11:15:48Z</time>
      </trkpt>
      <trkpt lat="48.49089" lon="7.36614">
        <ele>391</ele>
        <time>2017-04-09T11:15:55Z</time>
      </trkpt>
      <trkpt lat="48.49083" lon="7.36635">
        <ele>371</ele>
        <time>2017-04-09T11:16:03Z</time>
      </trkpt>
      <trkpt lat="48.49083" lon="7.36638">
        <ele>371</ele>
        <time>2017-04-09T11:16:04Z</time>
      </trkpt>
      <trkpt lat="48.49083" lon="7.36641">
        <ele>372</ele>
        <time>2017-04-09T11:16:05Z</time>
      </trkpt>
      <trkpt lat="48.49082" lon="7.36644">
        <ele>372</ele>
        <time>2017-04-09T11:16:06Z</time>
      </trkpt>
      <trkpt lat="48.49082" lon="7.36646">
        <ele>372</ele>
        <time>2017-04-09T11:16:07Z</time>
      </trkpt>
      <trkpt lat="48.49082" lon="7.36654">
        <ele>374</ele>
        <time>2017-04-09T11:16:10Z</time>
      </trkpt>
      <trkpt lat="48.49082" lon="7.36676">
        <ele>377</ele>
        <time>2017-04-09T11:16:18Z</time>
      </trkpt>
      <trkpt lat="48.49081" lon="7.36678">
        <ele>376</ele>
        <time>2017-04-09T11:16:19Z</time>
      </trkpt>
      <trkpt lat="48.49081" lon="7.36681">
        <ele>376</ele>
        <time>2017-04-09T11:16:20Z</time>
      </trkpt>
      <trkpt lat="48.4908" lon="7.36683">
        <ele>375</ele>
        <time>2017-04-09T11:16:21Z</time>
      </trkpt>
      <trkpt lat="48.4908" lon="7.36686">
        <ele>375</ele>
        <time>2017-04-09T11:16:22Z</time>
      </trkpt>
      <trkpt lat="48.49083" lon="7.36701">
        <ele>375</ele>
        <time>2017-04-09T11:16:28Z</time>
      </trkpt>
      <trkpt lat="48.49084" lon="7.36703">
        <ele>398</ele>
        <time>2017-04-09T11:16:29Z</time>
      </trkpt>
      <trkpt lat="48.49085" lon="7.36706">
        <ele>398</ele>
        <time>2017-04-09T11:16:30Z</time>
      </trkpt>
      <trkpt lat="48.49084" lon="7.36709">
        <ele>398</ele>
        <time>2017-04-09T11:16:31Z</time>
      </trkpt>
      <trkpt lat="48.49084" lon="7.36712">
        <ele>399</ele>
        <time>2017-04-09T11:16:32Z</time>
      </trkpt>
      <trkpt lat="48.49084" lon="7.36717">
        <ele>399</ele>
        <time>2017-04-09T11:16:34Z</time>
      </trkpt>
      <trkpt lat="48.49084" lon="7.3672">
        <ele>398</ele>
        <time>2017-04-09T11:16:35Z</time>
      </trkpt>
      <trkpt lat="48.49084" lon="7.3673">
        <ele>397</ele>
        <time>2017-04-09T11:16:38Z</time>
      </trkpt>
      <trkpt lat="48.49081" lon="7.36747">
        <ele>385</ele>
        <time>2017-04-09T11:16:45Z</time>
      </trkpt>
      <trkpt lat="48.49081" lon="7.36749">
        <ele>386</ele>
        <time>2017-04-09T11:16:46Z</time>
      </trkpt>
      <trkpt lat="48.49081" lon="7.36751">
        <ele>387</ele>
        <time>2017-04-09T11:16:47Z</time>
      </trkpt>
      <trkpt lat="48.49082" lon="7.36753">
        <ele>386</ele>
        <time>2017-04-09T11:16:48Z</time>
      </trkpt>
      <trkpt lat="48.49081" lon="7.36756">
        <ele>385</ele>
        <time>2017-04-09T11:16:49Z</time>
      </trkpt>
      <trkpt lat="48.4908" lon="7.36764">
        <ele>383</ele>
        <time>2017-04-09T11:16:52Z</time>
      </trkpt>
      <trkpt lat="48.4908" lon="7.36778">
        <ele>381</ele>
        <time>2017-04-09T11:16:57Z</time>
      </trkpt>
      <trkpt lat="48.4908" lon="7.3678">
        <ele>381</ele>
        <time>2017-04-09T11:16:58Z</time>
      </trkpt>
      <trkpt lat="48.49081" lon="7.36782">
        <ele>381</ele>
        <time>2017-04-09T11:16:59Z</time>
      </trkpt>
      <trkpt lat="48.49081" lon="7.36785">
        <ele>381</ele>
        <time>2017-04-09T11:17:00Z</time>
      </trkpt>
      <trkpt lat="48.49081" lon="7.36788">
        <ele>381</ele>
        <time>2017-04-09T11:17:01Z</time>
      </trkpt>
      <trkpt lat="48.49083" lon="7.3681">
        <ele>385</ele>
        <time>2017-04-09T11:17:08Z</time>
      </trkpt>
      <trkpt lat="48.49081" lon="7.36833">
        <ele>395</ele>
        <time>2017-04-09T11:17:15Z</time>
      </trkpt>
      <trkpt lat="48.4908" lon="7.36836">
        <ele>394</ele>
        <time>2017-04-09T11:17:16Z</time>
      </trkpt>
      <trkpt lat="48.4908" lon="7.36838">
        <ele>394</ele>
        <time>2017-04-09T11:17:17Z</time>
      </trkpt>
      <trkpt lat="48.49078" lon="7.36841">
        <ele>392</ele>
        <time>2017-04-09T11:17:18Z</time>
      </trkpt>
      <trkpt lat="48.49077" lon="7.36844">
        <ele>391</ele>
        <time>2017-04-09T11:17:19Z</time>
      </trkpt>
      <trkpt lat="48.49074" lon="7.36856">
        <ele>388</ele>
        <time>2017-04-09T11:17:24Z</time>
      </trkpt>
      <trkpt lat="48.49072" lon="7.36877">
        <ele>387</ele>
        <time>2017-04-09T11:17:32Z</time>
      </trkpt>
      <trkpt lat="48.49071" lon="7.36882">
        <ele>387</ele>
        <time>2017-04-09T11:17:34Z</time>
      </trkpt>
      <trkpt lat="48.49071" lon="7.36885">
        <ele>388</ele>
        <time>2017-04-09T11:17:35Z</time>
      </trkpt>
      <trkpt lat="48.49071" lon="7.36888">
        <ele>388</ele>
        <time>2017-04-09T11:17:36Z</time>
      </trkpt>
      <trkpt lat="48.49072" lon="7.36891">
        <ele>389</ele>
        <time>2017-04-09T11:17:37Z</time>
      </trkpt>
      <trkpt lat="48.49072" lon="7.36894">
        <ele>390</ele>
        <time>2017-04-09T11:17:38Z</time>
      </trkpt>
      <trkpt lat="48.49075" lon="7.36901">
        <ele>392</ele>
        <time>2017-04-09T11:17:40Z</time>
      </trkpt>
      <trkpt lat="48.49078" lon="7.36917">
        <ele>400</ele>
        <time>2017-04-09T11:17:47Z</time>
      </trkpt>
      <trkpt lat="48.49078" lon="7.36919">
        <ele>400</ele>
        <time>2017-04-09T11:17:48Z</time>
      </trkpt>
      <trkpt lat="48.49079" lon="7.36922">
        <ele>400</ele>
        <time>2017-04-09T11:17:49Z</time>
      </trkpt>
      <trkpt lat="48.49079" lon="7.36924">
        <ele>399</ele>
        <time>2017-04-09T11:17:50Z</time>
      </trkpt>
      <trkpt lat="48.4908" lon="7.36926">
        <ele>398</ele>
        <time>2017-04-09T11:17:51Z</time>
      </trkpt>
      <trkpt lat="48.49079" lon="7.36929">
        <ele>397</ele>
        <time>2017-04-09T11:17:52Z</time>
      </trkpt>
      <trkpt lat="48.49078" lon="7.36944">
        <ele>394</ele>
        <time>2017-04-09T11:17:58Z</time>
      </trkpt>
      <trkpt lat="48.49077" lon="7.3697">
        <ele>394</ele>
        <time>2017-04-09T11:18:07Z</time>
      </trkpt>
      <trkpt lat="48.49078" lon="7.36973">
        <ele>394</ele>
        <time>2017-04-09T11:18:08Z</time>
      </trkpt>
      <trkpt lat="48.49078" lon="7.36976">
        <ele>395</ele>
        <time>2017-04-09T11:18:09Z</time>
      </trkpt>
      <trkpt lat="48.49078" lon="7.36979">
        <ele>396</ele>
        <time>2017-04-09T11:18:10Z</time>
      </trkpt>
      <trkpt lat="48.4908" lon="7.36983">
        <ele>397</ele>
        <time>2017-04-09T11:18:11Z</time>
      </trkpt>
      <trkpt lat="48.49079" lon="7.36999">
        <ele>404</ele>
        <time>2017-04-09T11:18:17Z</time>
      </trkpt>
      <trkpt lat="48.49078" lon="7.37015">
        <ele>400</ele>
        <time>2017-04-09T11:18:23Z</time>
      </trkpt>
      <trkpt lat="48.49078" lon="7.37018">
        <ele>400</ele>
        <time>2017-04-09T11:18:24Z</time>
      </trkpt>
      <trkpt lat="48.49077" lon="7.37021">
        <ele>399</ele>
        <time>2017-04-09T11:18:25Z</time>
      </trkpt>
      <trkpt lat="48.49077" lon="7.37023">
        <ele>399</ele>
        <time>2017-04-09T11:18:26Z</time>
      </trkpt>
      <trkpt lat="48.49076" lon="7.37026">
        <ele>398</ele>
        <time>2017-04-09T11:18:27Z</time>
      </trkpt>
      <trkpt lat="48.49077" lon="7.37041">
        <ele>398</ele>
        <time>2017-04-09T11:18:32Z</time>
      </trkpt>
      <trkpt lat="48.49078" lon="7.37054">
        <ele>400</ele>
        <time>2017-04-09T11:18:37Z</time>
      </trkpt>
      <trkpt lat="48.49078" lon="7.37057">
        <ele>401</ele>
        <time>2017-04-09T11:18:38Z</time>
      </trkpt>
      <trkpt lat="48.49078" lon="7.3706">
        <ele>401</ele>
        <time>2017-04-09T11:18:39Z</time>
      </trkpt>
      <trkpt lat="48.49079" lon="7.37063">
        <ele>402</ele>
        <time>2017-04-09T11:18:40Z</time>
      </trkpt>
      <trkpt lat="48.49082" lon="7.37066">
        <ele>404</ele>
        <time>2017-04-09T11:18:41Z</time>
      </trkpt>
      <trkpt lat="48.49081" lon="7.37088">
        <ele>411</ele>
        <time>2017-04-09T11:18:49Z</time>
      </trkpt>
      <trkpt lat="48.4908" lon="7.37091">
        <ele>409</ele>
        <time>2017-04-09T11:18:50Z</time>
      </trkpt>
      <trkpt lat="48.4908" lon="7.37093">
        <ele>408</ele>
        <time>2017-04-09T11:18:51Z</time>
      </trkpt>
      <trkpt lat="48.49079" lon="7.37096">
        <ele>407</ele>
        <time>2017-04-09T11:18:52Z</time>
      </trkpt>
      <trkpt lat="48.4908" lon="7.37099">
        <ele>406</ele>
        <time>2017-04-09T11:18:53Z</time>
      </trkpt>
      <trkpt lat="48.4908" lon="7.37109">
        <ele>403</ele>
        <time>2017-04-09T11:18:57Z</time>
      </trkpt>
      <trkpt lat="48.49079" lon="7.3713">
        <ele>402</ele>
        <time>2017-04-09T11:19:05Z</time>
      </trkpt>
      <trkpt lat="48.49079" lon="7.3714">
        <ele>404</ele>
        <time>2017-04-09T11:19:09Z</time>
      </trkpt>
      <trkpt lat="48.49079" lon="7.37143">
        <ele>404</ele>
        <time>2017-04-09T11:19:10Z</time>
      </trkpt>
      <trkpt lat="48.4908" lon="7.37146">
        <ele>405</ele>
        <time>2017-04-09T11:19:11Z</time>
      </trkpt>
      <trkpt lat="48.49084" lon="7.3715">
        <ele>428</ele>
        <time>2017-04-09T11:19:12Z</time>
      </trkpt>
      <trkpt lat="48.49086" lon="7.37153">
        <ele>427</ele>
        <time>2017-04-09T11:19:13Z</time>
      </trkpt>
      <trkpt lat="48.49088" lon="7.37174">
        <ele>425</ele>
        <time>2017-04-09T11:19:21Z</time>
      </trkpt>
      <trkpt lat="48.49088" lon="7.37178">
        <ele>427</ele>
        <time>2017-04-09T11:19:22Z</time>
      </trkpt>
      <trkpt lat="48.49088" lon="7.37182">
        <ele>429</ele>
        <time>2017-04-09T11:19:23Z</time>
      </trkpt>
      <trkpt lat="48.49088" lon="7.37184">
        <ele>430</ele>
        <time>2017-04-09T11:19:24Z</time>
      </trkpt>
      <trkpt lat="48.49088" lon="7.37187">
        <ele>431</ele>
        <time>2017-04-09T11:19:25Z</time>
      </trkpt>
      <trkpt lat="48.49088" lon="7.3719">
        <ele>432</ele>
        <time>2017-04-09T11:19:26Z</time>
      </trkpt>
      <trkpt lat="48.49088" lon="7.37194">
        <ele>433</ele>
        <time>2017-04-09T11:19:27Z</time>
      </trkpt>
      <trkpt lat="48.49084" lon="7.37218">
        <ele>434</ele>
        <time>2017-04-09T11:19:35Z</time>
      </trkpt>
      <trkpt lat="48.49085" lon="7.37221">
        <ele>433</ele>
        <time>2017-04-09T11:19:36Z</time>
      </trkpt>
      <trkpt lat="48.49086" lon="7.37224">
        <ele>433</ele>
        <time>2017-04-09T11:19:37Z</time>
      </trkpt>
      <trkpt lat="48.49087" lon="7.37226">
        <ele>432</ele>
        <time>2017-04-09T11:19:38Z</time>
      </trkpt>
      <trkpt lat="48.49087" lon="7.37229">
        <ele>432</ele>
        <time>2017-04-09T11:19:39Z</time>
      </trkpt>
      <trkpt lat="48.49087" lon="7.37238">
        <ele>428</ele>
        <time>2017-04-09T11:19:42Z</time>
      </trkpt>
      <trkpt lat="48.4908" lon="7.37265">
        <ele>408</ele>
        <time>2017-04-09T11:19:50Z</time>
      </trkpt>
      <trkpt lat="48.4908" lon="7.37278">
        <ele>404</ele>
        <time>2017-04-09T11:19:55Z</time>
      </trkpt>
      <trkpt lat="48.4908" lon="7.3728">
        <ele>404</ele>
        <time>2017-04-09T11:19:56Z</time>
      </trkpt>
      <trkpt lat="48.49081" lon="7.37282">
        <ele>404</ele>
        <time>2017-04-09T11:19:57Z</time>
      </trkpt>
      <trkpt lat="48.49081" lon="7.37285">
        <ele>404</ele>
        <time>2017-04-09T11:19:58Z</time>
      </trkpt>
      <trkpt lat="48.49082" lon="7.37287">
        <ele>404</ele>
        <time>2017-04-09T11:19:59Z</time>
      </trkpt>
      <trkpt lat="48.49083" lon="7.37299">
        <ele>404</ele>
        <time>2017-04-09T11:20:04Z</time>
      </trkpt>
      <trkpt lat="48.49088" lon="7.37317">
        <ele>429</ele>
        <time>2017-04-09T11:20:11Z</time>
      </trkpt>
      <trkpt lat="48.49088" lon="7.37319">
        <ele>429</ele>
        <time>2017-04-09T11:20:12Z</time>
      </trkpt>
      <trkpt lat="48.49088" lon="7.37322">
        <ele>427</ele>
        <time>2017-04-09T11:20:13Z</time>
      </trkpt>
      <trkpt lat="48.49089" lon="7.37325">
        <ele>426</ele>
        <time>2017-04-09T11:20:14Z</time>
      </trkpt>
      <trkpt lat="48.4909" lon="7.37328">
        <ele>425</ele>
        <time>2017-04-09T11:20:15Z</time>
      </trkpt>
      <trkpt lat="48.49092" lon="7.37339">
        <ele>424</ele>
        <time>2017-04-09T11:20:19Z</time>
      </trkpt>
      <trkpt lat="48.49091" lon="7.37359">
        <ele>430</ele>
        <time>2017-04-09T11:20:26Z</time>
      </trkpt>
      <trkpt lat="48.49091" lon="7.37363">
        <ele>430</ele>
        <time>2017-04-09T11:20:27Z</time>
      </trkpt>
      <trkpt lat="48.49089" lon="7.37365">
        <ele>430</ele>
        <time>2017-04-09T11:20:28Z</time>
      </trkpt>
      <trkpt lat="48.49088" lon="7.37369">
        <ele>430</ele>
        <time>2017-04-09T11:20:29Z</time>
      </trkpt>
      <trkpt lat="48.49087" lon="7.37371">
        <ele>430</ele>
        <time>2017-04-09T11:20:30Z</time>
      </trkpt>
      <trkpt lat="48.49086" lon="7.37374">
        <ele>430</ele>
        <time>2017-04-09T11:20:31Z</time>
      </trkpt>
      <trkpt lat="48.49082" lon="7.37394">
        <ele>402</ele>
        <time>2017-04-09T11:20:38Z</time>
      </trkpt>
      <trkpt lat="48.49084" lon="7.37415">
        <ele>413</ele>
        <time>2017-04-09T11:20:45Z</time>
      </trkpt>
      <trkpt lat="48.49085" lon="7.37418">
        <ele>414</ele>
        <time>2017-04-09T11:20:46Z</time>
      </trkpt>
      <trkpt lat="48.49086" lon="7.37421">
        <ele>416</ele>
        <time>2017-04-09T11:20:47Z</time>
      </trkpt>
      <trkpt lat="48.49087" lon="7.37422">
        <ele>417</ele>
        <time>2017-04-09T11:20:48Z</time>
      </trkpt>
      <trkpt lat="48.49088" lon="7.37425">
        <ele>419</ele>
        <time>2017-04-09T11:20:49Z</time>
      </trkpt>
      <trkpt lat="48.49089" lon="7.37428">
        <ele>421</ele>
        <time>2017-04-09T11:20:50Z</time>
      </trkpt>
      <trkpt lat="48.49089" lon="7.37431">
        <ele>422</ele>
        <time>2017-04-09T11:20:51Z</time>
      </trkpt>
      <trkpt lat="48.49085" lon="7.37452">
        <ele>427</ele>
        <time>2017-04-09T11:20:58Z</time>
      </trkpt>
      <trkpt lat="48.49085" lon="7.37461">
        <ele>428</ele>
        <time>2017-04-09T11:21:01Z</time>
      </trkpt>
      <trkpt lat="48.49086" lon="7.37464">
        <ele>428</ele>
        <time>2017-04-09T11:21:02Z</time>
      </trkpt>
      <trkpt lat="48.49086" lon="7.37468">
        <ele>427</ele>
        <time>2017-04-09T11:21:03Z</time>
      </trkpt>
      <trkpt lat="48.49086" lon="7.37471">
        <ele>427</ele>
        <time>2017-04-09T11:21:04Z</time>
      </trkpt>
      <trkpt lat="48.49085" lon="7.37474">
        <ele>426</ele>
        <time>2017-04-09T11:21:05Z</time>
      </trkpt>
      <trkpt lat="48.49084" lon="7.37477">
        <ele>426</ele>
        <time>2017-04-09T11:21:06Z</time>
      </trkpt>
      <trkpt lat="48.49083" lon="7.37497">
        <ele>410</ele>
        <time>2017-04-09T11:21:13Z</time>
      </trkpt>
      <trkpt lat="48.49083" lon="7.375">
        <ele>413</ele>
        <time>2017-04-09T11:21:14Z</time>
      </trkpt>
      <trkpt lat="48.49083" lon="7.37504">
        <ele>411</ele>
        <time>2017-04-09T11:21:15Z</time>
      </trkpt>
      <trkpt lat="48.49084" lon="7.37508">
        <ele>420</ele>
        <time>2017-04-09T11:21:16Z</time>
      </trkpt>
      <trkpt lat="48.49086" lon="7.37513">
        <ele>424</ele>
        <time>2017-04-09T11:21:17Z</time>
      </trkpt>
      <trkpt lat="48.49089" lon="7.37531">
        <ele>431</ele>
        <time>2017-04-09T11:21:23Z</time>
      </trkpt>
      <trkpt lat="48.49091" lon="7.37543">
        <ele>433</ele>
        <time>2017-04-09T11:21:28Z</time>
      </trkpt>
      <trkpt lat="48.49092" lon="7.37545">
        <ele>433</ele>
        <time>2017-04-09T11:21:29Z</time>
      </trkpt>
      <trkpt lat="48.49091" lon="7.37547">
        <ele>433</ele>
        <time>2017-04-09T11:21:30Z</time>
      </trkpt>
      <trkpt lat="48.49092" lon="7.3755">
        <ele>433</ele>
        <time>2017-04-09T11:21:31Z</time>
      </trkpt>
      <trkpt lat="48.49092" lon="7.37552">
        <ele>433</ele>
        <time>2017-04-09T11:21:32Z</time>
      </trkpt>
      <trkpt lat="48.49093" lon="7.37567">
        <ele>431</ele>
        <time>2017-04-09T11:21:37Z</time>
      </trkpt>
      <trkpt lat="48.49093" lon="7.37581">
        <ele>427</ele>
        <time>2017-04-09T11:21:43Z</time>
      </trkpt>
      <trkpt lat="48.49093" lon="7.37583">
        <ele>427</ele>
        <time>2017-04-09T11:21:44Z</time>
      </trkpt>
      <trkpt lat="48.49092" lon="7.37586">
        <ele>430</ele>
        <time>2017-04-09T11:21:45Z</time>
      </trkpt>
      <trkpt lat="48.49092" lon="7.37588">
        <ele>431</ele>
        <time>2017-04-09T11:21:46Z</time>
      </trkpt>
      <trkpt lat="48.49092" lon="7.37593">
        <ele>433</ele>
        <time>2017-04-09T11:21:47Z</time>
      </trkpt>
      <trkpt lat="48.49091" lon="7.37596">
        <ele>434</ele>
        <time>2017-04-09T11:21:48Z</time>
      </trkpt>
      <trkpt lat="48.49089" lon="7.37601">
        <ele>436</ele>
        <time>2017-04-09T11:21:50Z</time>
      </trkpt>
      <trkpt lat="48.49086" lon="7.37613">
        <ele>441</ele>
        <time>2017-04-09T11:21:55Z</time>
      </trkpt>
      <trkpt lat="48.49085" lon="7.37614">
        <ele>441</ele>
        <time>2017-04-09T11:21:56Z</time>
      </trkpt>
      <trkpt lat="48.49084" lon="7.37616">
        <ele>442</ele>
        <time>2017-04-09T11:21:57Z</time>
      </trkpt>
      <trkpt lat="48.49084" lon="7.37618">
        <ele>442</ele>
        <time>2017-04-09T11:21:58Z</time>
      </trkpt>
      <trkpt lat="48.49082" lon="7.3762">
        <ele>415</ele>
        <time>2017-04-09T11:21:59Z</time>
      </trkpt>
      <trkpt lat="48.49074" lon="7.37632">
        <ele>416</ele>
        <time>2017-04-09T11:22:05Z</time>
      </trkpt>
      <trkpt lat="48.49073" lon="7.37634">
        <ele>416</ele>
        <time>2017-04-09T11:22:06Z</time>
      </trkpt>
      <trkpt lat="48.49072" lon="7.37636">
        <ele>417</ele>
        <time>2017-04-09T11:22:07Z</time>
      </trkpt>
      <trkpt lat="48.49072" lon="7.37637">
        <ele>417</ele>
        <time>2017-04-09T11:22:08Z</time>
      </trkpt>
      <trkpt lat="48.49071" lon="7.37639">
        <ele>417</ele>
        <time>2017-04-09T11:22:09Z</time>
      </trkpt>
      <trkpt lat="48.49069" lon="7.37642">
        <ele>418</ele>
        <time>2017-04-09T11:22:11Z</time>
      </trkpt>
      <trkpt lat="48.49061" lon="7.37672">
        <ele>426</ele>
        <time>2017-04-09T11:22:23Z</time>
      </trkpt>
      <trkpt lat="48.4906" lon="7.3768">
        <ele>425</ele>
        <time>2017-04-09T11:22:26Z</time>
      </trkpt>
      <trkpt lat="48.49059" lon="7.37682">
        <ele>424</ele>
        <time>2017-04-09T11:22:27Z</time>
      </trkpt>
      <trkpt lat="48.49059" lon="7.37685">
        <ele>424</ele>
        <time>2017-04-09T11:22:28Z</time>
      </trkpt>
      <trkpt lat="48.49059" lon="7.37687">
        <ele>424</ele>
        <time>2017-04-09T11:22:29Z</time>
      </trkpt>
      <trkpt lat="48.49058" lon="7.37689">
        <ele>424</ele>
        <time>2017-04-09T11:22:30Z</time>
      </trkpt>
      <trkpt lat="48.49054" lon="7.37707">
        <ele>423</ele>
        <time>2017-04-09T11:22:38Z</time>
      </trkpt>
      <trkpt lat="48.49055" lon="7.37716">
        <ele>424</ele>
        <time>2017-04-09T11:22:43Z</time>
      </trkpt>
      <trkpt lat="48.49054" lon="7.37719">
        <ele>424</ele>
        <time>2017-04-09T11:22:44Z</time>
      </trkpt>
      <trkpt lat="48.49054" lon="7.37722">
        <ele>424</ele>
        <time>2017-04-09T11:22:45Z</time>
      </trkpt>
      <trkpt lat="48.49053" lon="7.37724">
        <ele>424</ele>
        <time>2017-04-09T11:22:46Z</time>
      </trkpt>
      <trkpt lat="48.49054" lon="7.37727">
        <ele>425</ele>
        <time>2017-04-09T11:22:47Z</time>
      </trkpt>
      <trkpt lat="48.49057" lon="7.37748">
        <ele>428</ele>
        <time>2017-04-09T11:22:53Z</time>
      </trkpt>
      <trkpt lat="48.49056" lon="7.37757">
        <ele>434</ele>
        <time>2017-04-09T11:22:56Z</time>
      </trkpt>
      <trkpt lat="48.49055" lon="7.3776">
        <ele>433</ele>
        <time>2017-04-09T11:22:57Z</time>
      </trkpt>
      <trkpt lat="48.49055" lon="7.37762">
        <ele>433</ele>
        <time>2017-04-09T11:22:58Z</time>
      </trkpt>
      <trkpt lat="48.49054" lon="7.37764">
        <ele>433</ele>
        <time>2017-04-09T11:22:59Z</time>
      </trkpt>
      <trkpt lat="48.49054" lon="7.37767">
        <ele>432</ele>
        <time>2017-04-09T11:23:00Z</time>
      </trkpt>
      <trkpt lat="48.49053" lon="7.37769">
        <ele>432</ele>
        <time>2017-04-09T11:23:01Z</time>
      </trkpt>
      <trkpt lat="48.4905" lon="7.37783">
        <ele>431</ele>
        <time>2017-04-09T11:23:07Z</time>
      </trkpt>
      <trkpt lat="48.49047" lon="7.37799">
        <ele>431</ele>
        <time>2017-04-09T11:23:14Z</time>
      </trkpt>
      <trkpt lat="48.49047" lon="7.37802">
        <ele>431</ele>
        <time>2017-04-09T11:23:15Z</time>
      </trkpt>
      <trkpt lat="48.49046" lon="7.37805">
        <ele>431</ele>
        <time>2017-04-09T11:23:16Z</time>
      </trkpt>
      <trkpt lat="48.49046" lon="7.37807">
        <ele>432</ele>
        <time>2017-04-09T11:23:17Z</time>
      </trkpt>
      <trkpt lat="48.49047" lon="7.3781">
        <ele>432</ele>
        <time>2017-04-09T11:23:18Z</time>
      </trkpt>
      <trkpt lat="48.49047" lon="7.37824">
        <ele>433</ele>
        <time>2017-04-09T11:23:22Z</time>
      </trkpt>
      <trkpt lat="48.49047" lon="7.37846">
        <ele>438</ele>
        <time>2017-04-09T11:23:30Z</time>
      </trkpt>
      <trkpt lat="48.49047" lon="7.37848">
        <ele>438</ele>
        <time>2017-04-09T11:23:31Z</time>
      </trkpt>
      <trkpt lat="48.49046" lon="7.3785">
        <ele>438</ele>
        <time>2017-04-09T11:23:32Z</time>
      </trkpt>
      <trkpt lat="48.49047" lon="7.37853">
        <ele>438</ele>
        <time>2017-04-09T11:23:33Z</time>
      </trkpt>
      <trkpt lat="48.49048" lon="7.37856">
        <ele>438</ele>
        <time>2017-04-09T11:23:34Z</time>
      </trkpt>
      <trkpt lat="48.49046" lon="7.37869">
        <ele>438</ele>
        <time>2017-04-09T11:23:38Z</time>
      </trkpt>
      <trkpt lat="48.49047" lon="7.37886">
        <ele>439</ele>
        <time>2017-04-09T11:23:44Z</time>
      </trkpt>
      <trkpt lat="48.49045" lon="7.37892">
        <ele>439</ele>
        <time>2017-04-09T11:23:46Z</time>
      </trkpt>
      <trkpt lat="48.49045" lon="7.37894">
        <ele>439</ele>
        <time>2017-04-09T11:23:47Z</time>
      </trkpt>
      <trkpt lat="48.49045" lon="7.37897">
        <ele>439</ele>
        <time>2017-04-09T11:23:48Z</time>
      </trkpt>
      <trkpt lat="48.49044" lon="7.379">
        <ele>439</ele>
        <time>2017-04-09T11:23:49Z</time>
      </trkpt>
      <trkpt lat="48.49044" lon="7.37902">
        <ele>439</ele>
        <time>2017-04-09T11:23:50Z</time>
      </trkpt>
      <trkpt lat="48.49044" lon="7.37907">
        <ele>439</ele>
        <time>2017-04-09T11:23:51Z</time>
      </trkpt>
      <trkpt lat="48.49043" lon="7.37927">
        <ele>439</ele>
        <time>2017-04-09T11:23:57Z</time>
      </trkpt>
      <trkpt lat="48.49043" lon="7.37936">
        <ele>439</ele>
        <time>2017-04-09T11:24:00Z</time>
      </trkpt>
      <trkpt lat="48.49042" lon="7.37937">
        <ele>438</ele>
        <time>2017-04-09T11:24:01Z</time>
      </trkpt>
      <trkpt lat="48.49043" lon="7.3794">
        <ele>438</ele>
        <time>2017-04-09T11:24:02Z</time>
      </trkpt>
      <trkpt lat="48.49043" lon="7.37942">
        <ele>438</ele>
        <time>2017-04-09T11:24:03Z</time>
      </trkpt>
      <trkpt lat="48.49043" lon="7.37944">
        <ele>438</ele>
        <time>2017-04-09T11:24:04Z</time>
      </trkpt>
      <trkpt lat="48.49042" lon="7.37951">
        <ele>438</ele>
        <time>2017-04-09T11:24:10Z</time>
      </trkpt>
      <trkpt lat="48.4905" lon="7.37988">
        <ele>439</ele>
        <time>2017-04-09T11:27:25Z</time>
      </trkpt>
      <trkpt lat="48.49052" lon="7.37989">
        <ele>440</ele>
        <time>2017-04-09T11:27:26Z</time>
      </trkpt>
      <trkpt lat="48.49053" lon="7.37991">
        <ele>440</ele>
        <time>2017-04-09T11:27:27Z</time>
      </trkpt>
      <trkpt lat="48.49055" lon="7.37992">
        <ele>441</ele>
        <time>2017-04-09T11:27:28Z</time>
      </trkpt>
      <trkpt lat="48.49064" lon="7.37997">
        <ele>443</ele>
        <time>2017-04-09T11:27:33Z</time>
      </trkpt>
      <trkpt lat="48.49065" lon="7.37996">
        <ele>444</ele>
        <time>2017-04-09T11:27:34Z</time>
      </trkpt>
      <trkpt lat="48.49069" lon="7.37998">
        <ele>445</ele>
        <time>2017-04-09T11:27:38Z</time>
      </trkpt>
      <trkpt lat="48.49078" lon="7.38002">
        <ele>444</ele>
        <time>2017-04-09T11:27:47Z</time>
      </trkpt>
      <trkpt lat="48.49079" lon="7.38003">
        <ele>445</ele>
        <time>2017-04-09T11:27:48Z</time>
      </trkpt>
      <trkpt lat="48.4908" lon="7.38003">
        <ele>447</ele>
        <time>2017-04-09T11:27:49Z</time>
      </trkpt>
      <trkpt lat="48.49082" lon="7.38003">
        <ele>447</ele>
        <time>2017-04-09T11:27:50Z</time>
      </trkpt>
      <trkpt lat="48.49084" lon="7.38003">
        <ele>450</ele>
        <time>2017-04-09T11:27:51Z</time>
      </trkpt>
      <trkpt lat="48.49099" lon="7.38006">
        <ele>447</ele>
        <time>2017-04-09T11:27:59Z</time>
      </trkpt>
      <trkpt lat="48.491" lon="7.38006">
        <ele>447</ele>
        <time>2017-04-09T11:28:00Z</time>
      </trkpt>
      <trkpt lat="48.49102" lon="7.38006">
        <ele>446</ele>
        <time>2017-04-09T11:28:01Z</time>
      </trkpt>
      <trkpt lat="48.49103" lon="7.38006">
        <ele>446</ele>
        <time>2017-04-09T11:28:02Z</time>
      </trkpt>
      <trkpt lat="48.49105" lon="7.38006">
        <ele>446</ele>
        <time>2017-04-09T11:28:03Z</time>
      </trkpt>
      <trkpt lat="48.49122" lon="7.38007">
        <ele>447</ele>
        <time>2017-04-09T11:28:14Z</time>
      </trkpt>
      <trkpt lat="48.49138" lon="7.38008">
        <ele>449</ele>
        <time>2017-04-09T11:28:21Z</time>
      </trkpt>
      <trkpt lat="48.49139" lon="7.38008">
        <ele>449</ele>
        <time>2017-04-09T11:28:22Z</time>
      </trkpt>
      <trkpt lat="48.49142" lon="7.38008">
        <ele>450</ele>
        <time>2017-04-09T11:28:23Z</time>
      </trkpt>
      <trkpt lat="48.49144" lon="7.38008">
        <ele>450</ele>
        <time>2017-04-09T11:28:24Z</time>
      </trkpt>
      <trkpt lat="48.49145" lon="7.38008">
        <ele>451</ele>
        <time>2017-04-09T11:28:25Z</time>
      </trkpt>
      <trkpt lat="48.49147" lon="7.38008">
        <ele>451</ele>
        <time>2017-04-09T11:28:26Z</time>
      </trkpt>
      <trkpt lat="48.49165" lon="7.38009">
        <ele>457</ele>
        <time>2017-04-09T11:28:36Z</time>
      </trkpt>
      <trkpt lat="48.49166" lon="7.38009">
        <ele>457</ele>
        <time>2017-04-09T11:28:37Z</time>
      </trkpt>
      <trkpt lat="48.49168" lon="7.38009">
        <ele>460</ele>
        <time>2017-04-09T11:28:38Z</time>
      </trkpt>
      <trkpt lat="48.49169" lon="7.38009">
        <ele>460</ele>
        <time>2017-04-09T11:28:40Z</time>
      </trkpt>
      <trkpt lat="48.49173" lon="7.38009">
        <ele>459</ele>
        <time>2017-04-09T11:28:42Z</time>
      </trkpt>
      <trkpt lat="48.49174" lon="7.38008">
        <ele>459</ele>
        <time>2017-04-09T11:28:43Z</time>
      </trkpt>
      <trkpt lat="48.49176" lon="7.38009">
        <ele>459</ele>
        <time>2017-04-09T11:28:44Z</time>
      </trkpt>
      <trkpt lat="48.49179" lon="7.38011">
        <ele>458</ele>
        <time>2017-04-09T11:28:47Z</time>
      </trkpt>
      <trkpt lat="48.49184" lon="7.3801">
        <ele>457</ele>
        <time>2017-04-09T11:28:48Z</time>
      </trkpt>
      <trkpt lat="48.49189" lon="7.3801">
        <ele>456</ele>
        <time>2017-04-09T11:28:51Z</time>
      </trkpt>
      <trkpt lat="48.4919" lon="7.38011">
        <ele>456</ele>
        <time>2017-04-09T11:28:52Z</time>
      </trkpt>
      <trkpt lat="48.49191" lon="7.38011">
        <ele>456</ele>
        <time>2017-04-09T11:28:53Z</time>
      </trkpt>
      <trkpt lat="48.49193" lon="7.38011">
        <ele>456</ele>
        <time>2017-04-09T11:28:54Z</time>
      </trkpt>
      <trkpt lat="48.49196" lon="7.3801">
        <ele>456</ele>
        <time>2017-04-09T11:28:56Z</time>
      </trkpt>
      <trkpt lat="48.49197" lon="7.3801">
        <ele>456</ele>
        <time>2017-04-09T11:28:57Z</time>
      </trkpt>
      <trkpt lat="48.49202" lon="7.38009">
        <ele>455</ele>
        <time>2017-04-09T11:29:01Z</time>
      </trkpt>
      <trkpt lat="48.4921" lon="7.38003">
        <ele>456</ele>
        <time>2017-04-09T11:29:07Z</time>
      </trkpt>
      <trkpt lat="48.49217" lon="7.37997">
        <ele>471</ele>
        <time>2017-04-09T11:29:12Z</time>
      </trkpt>
      <trkpt lat="48.49218" lon="7.37996">
        <ele>471</ele>
        <time>2017-04-09T11:29:13Z</time>
      </trkpt>
      <trkpt lat="48.49219" lon="7.37995">
        <ele>471</ele>
        <time>2017-04-09T11:29:14Z</time>
      </trkpt>
      <trkpt lat="48.4922" lon="7.37994">
        <ele>471</ele>
        <time>2017-04-09T11:29:15Z</time>
      </trkpt>
      <trkpt lat="48.49223" lon="7.37992">
        <ele>471</ele>
        <time>2017-04-09T11:29:16Z</time>
      </trkpt>
      <trkpt lat="48.49228" lon="7.37989">
        <ele>471</ele>
        <time>2017-04-09T11:29:19Z</time>
      </trkpt>
      <trkpt lat="48.49244" lon="7.37982">
        <ele>470</ele>
        <time>2017-04-09T11:29:28Z</time>
      </trkpt>
      <trkpt lat="48.49245" lon="7.37982">
        <ele>470</ele>
        <time>2017-04-09T11:29:29Z</time>
      </trkpt>
      <trkpt lat="48.49247" lon="7.37981">
        <ele>470</ele>
        <time>2017-04-09T11:29:30Z</time>
      </trkpt>
      <trkpt lat="48.49249" lon="7.3798">
        <ele>471</ele>
        <time>2017-04-09T11:29:31Z</time>
      </trkpt>
      <trkpt lat="48.4925" lon="7.3798">
        <ele>470</ele>
        <time>2017-04-09T11:29:32Z</time>
      </trkpt>
      <trkpt lat="48.49251" lon="7.37979">
        <ele>470</ele>
        <time>2017-04-09T11:29:33Z</time>
      </trkpt>
      <trkpt lat="48.49252" lon="7.37979">
        <ele>470</ele>
        <time>2017-04-09T11:29:34Z</time>
      </trkpt>
      <trkpt lat="48.49259" lon="7.37977">
        <ele>471</ele>
        <time>2017-04-09T11:29:41Z</time>
      </trkpt>
      <trkpt lat="48.49263" lon="7.37976">
        <ele>471</ele>
        <time>2017-04-09T11:29:44Z</time>
      </trkpt>
      <trkpt lat="48.49264" lon="7.37975">
        <ele>472</ele>
        <time>2017-04-09T11:29:45Z</time>
      </trkpt>
      <trkpt lat="48.49266" lon="7.37974">
        <ele>472</ele>
        <time>2017-04-09T11:29:46Z</time>
      </trkpt>
      <trkpt lat="48.49267" lon="7.37973">
        <ele>472</ele>
        <time>2017-04-09T11:29:47Z</time>
      </trkpt>
      <trkpt lat="48.49269" lon="7.37973">
        <ele>472</ele>
        <time>2017-04-09T11:29:48Z</time>
      </trkpt>
      <trkpt lat="48.49271" lon="7.37973">
        <ele>472</ele>
        <time>2017-04-09T11:29:49Z</time>
      </trkpt>
      <trkpt lat="48.4929" lon="7.37963">
        <ele>474</ele>
        <time>2017-04-09T11:29:55Z</time>
      </trkpt>
      <trkpt lat="48.49297" lon="7.3796">
        <ele>474</ele>
        <time>2017-04-09T11:29:59Z</time>
      </trkpt>
      <trkpt lat="48.49299" lon="7.37959">
        <ele>474</ele>
        <time>2017-04-09T11:30:00Z</time>
      </trkpt>
      <trkpt lat="48.493" lon="7.37959">
        <ele>474</ele>
        <time>2017-04-09T11:30:01Z</time>
      </trkpt>
      <trkpt lat="48.49301" lon="7.37958">
        <ele>474</ele>
        <time>2017-04-09T11:30:02Z</time>
      </trkpt>
      <trkpt lat="48.49302" lon="7.37957">
        <ele>474</ele>
        <time>2017-04-09T11:30:03Z</time>
      </trkpt>
      <trkpt lat="48.49306" lon="7.37953">
        <ele>475</ele>
        <time>2017-04-09T11:30:06Z</time>
      </trkpt>
      <trkpt lat="48.49317" lon="7.37945">
        <ele>476</ele>
        <time>2017-04-09T11:30:14Z</time>
      </trkpt>
      <trkpt lat="48.49318" lon="7.37943">
        <ele>476</ele>
        <time>2017-04-09T11:30:15Z</time>
      </trkpt>
      <trkpt lat="48.49319" lon="7.37942">
        <ele>476</ele>
        <time>2017-04-09T11:30:16Z</time>
      </trkpt>
      <trkpt lat="48.49321" lon="7.3794">
        <ele>476</ele>
        <time>2017-04-09T11:30:17Z</time>
      </trkpt>
      <trkpt lat="48.49323" lon="7.37939">
        <ele>476</ele>
        <time>2017-04-09T11:30:18Z</time>
      </trkpt>
      <trkpt lat="48.4933" lon="7.37929">
        <ele>478</ele>
        <time>2017-04-09T11:30:22Z</time>
      </trkpt>
      <trkpt lat="48.49342" lon="7.37917">
        <ele>481</ele>
        <time>2017-04-09T11:30:28Z</time>
      </trkpt>
      <trkpt lat="48.49346" lon="7.37909">
        <ele>481</ele>
        <time>2017-04-09T11:30:33Z</time>
      </trkpt>
      <trkpt lat="48.49348" lon="7.37906">
        <ele>482</ele>
        <time>2017-04-09T11:30:34Z</time>
      </trkpt>
      <trkpt lat="48.49349" lon="7.37905">
        <ele>482</ele>
        <time>2017-04-09T11:30:35Z</time>
      </trkpt>
      <trkpt lat="48.49352" lon="7.37903">
        <ele>482</ele>
        <time>2017-04-09T11:30:36Z</time>
      </trkpt>
      <trkpt lat="48.49353" lon="7.37901">
        <ele>482</ele>
        <time>2017-04-09T11:30:37Z</time>
      </trkpt>
      <trkpt lat="48.49359" lon="7.37894">
        <ele>482</ele>
        <time>2017-04-09T11:30:42Z</time>
      </trkpt>
      <trkpt lat="48.49365" lon="7.37886">
        <ele>483</ele>
        <time>2017-04-09T11:30:47Z</time>
      </trkpt>
      <trkpt lat="48.49368" lon="7.37884">
        <ele>483</ele>
        <time>2017-04-09T11:30:48Z</time>
      </trkpt>
      <trkpt lat="48.4937" lon="7.37881">
        <ele>483</ele>
        <time>2017-04-09T11:30:49Z</time>
      </trkpt>
      <trkpt lat="48.49371" lon="7.37879">
        <ele>483</ele>
        <time>2017-04-09T11:30:50Z</time>
      </trkpt>
      <trkpt lat="48.49373" lon="7.37877">
        <ele>483</ele>
        <time>2017-04-09T11:30:51Z</time>
      </trkpt>
      <trkpt lat="48.49386" lon="7.37865">
        <ele>484</ele>
        <time>2017-04-09T11:30:57Z</time>
      </trkpt>
      <trkpt lat="48.49395" lon="7.37856">
        <ele>485</ele>
        <time>2017-04-09T11:31:01Z</time>
      </trkpt>
      <trkpt lat="48.49397" lon="7.37855">
        <ele>485</ele>
        <time>2017-04-09T11:31:02Z</time>
      </trkpt>
      <trkpt lat="48.49399" lon="7.37854">
        <ele>485</ele>
        <time>2017-04-09T11:31:03Z</time>
      </trkpt>
      <trkpt lat="48.49402" lon="7.37853">
        <ele>485</ele>
        <time>2017-04-09T11:31:04Z</time>
      </trkpt>
      <trkpt lat="48.49403" lon="7.37852">
        <ele>485</ele>
        <time>2017-04-09T11:31:05Z</time>
      </trkpt>
      <trkpt lat="48.49412" lon="7.37847">
        <ele>486</ele>
        <time>2017-04-09T11:31:11Z</time>
      </trkpt>
      <trkpt lat="48.49419" lon="7.37844">
        <ele>486</ele>
        <time>2017-04-09T11:31:16Z</time>
      </trkpt>
      <trkpt lat="48.4942" lon="7.37843">
        <ele>486</ele>
        <time>2017-04-09T11:31:17Z</time>
      </trkpt>
      <trkpt lat="48.49422" lon="7.37844">
        <ele>486</ele>
        <time>2017-04-09T11:31:18Z</time>
      </trkpt>
      <trkpt lat="48.49424" lon="7.37843">
        <ele>486</ele>
        <time>2017-04-09T11:31:19Z</time>
      </trkpt>
      <trkpt lat="48.49425" lon="7.37842">
        <ele>486</ele>
        <time>2017-04-09T11:31:20Z</time>
      </trkpt>
      <trkpt lat="48.49429" lon="7.37841">
        <ele>485</ele>
        <time>2017-04-09T11:31:21Z</time>
      </trkpt>
      <trkpt lat="48.4943" lon="7.37841">
        <ele>485</ele>
        <time>2017-04-09T11:31:22Z</time>
      </trkpt>
      <trkpt lat="48.49449" lon="7.37837">
        <ele>483</ele>
        <time>2017-04-09T11:31:31Z</time>
      </trkpt>
      <trkpt lat="48.4946" lon="7.37831">
        <ele>493</ele>
        <time>2017-04-09T11:31:35Z</time>
      </trkpt>
      <trkpt lat="48.49462" lon="7.37831">
        <ele>493</ele>
        <time>2017-04-09T11:31:36Z</time>
      </trkpt>
      <trkpt lat="48.49464" lon="7.3783">
        <ele>493</ele>
        <time>2017-04-09T11:31:37Z</time>
      </trkpt>
      <trkpt lat="48.49467" lon="7.3783">
        <ele>492</ele>
        <time>2017-04-09T11:31:38Z</time>
      </trkpt>
      <trkpt lat="48.49468" lon="7.3783">
        <ele>492</ele>
        <time>2017-04-09T11:31:39Z</time>
      </trkpt>
      <trkpt lat="48.49474" lon="7.37827">
        <ele>492</ele>
        <time>2017-04-09T11:31:44Z</time>
      </trkpt>
      <trkpt lat="48.49478" lon="7.37826">
        <ele>492</ele>
        <time>2017-04-09T11:31:47Z</time>
      </trkpt>
      <trkpt lat="48.4948" lon="7.37825">
        <ele>492</ele>
        <time>2017-04-09T11:31:48Z</time>
      </trkpt>
      <trkpt lat="48.49482" lon="7.37824">
        <ele>492</ele>
        <time>2017-04-09T11:31:49Z</time>
      </trkpt>
      <trkpt lat="48.49483" lon="7.37823">
        <ele>491</ele>
        <time>2017-04-09T11:31:50Z</time>
      </trkpt>
      <trkpt lat="48.49484" lon="7.37824">
        <ele>491</ele>
        <time>2017-04-09T11:31:51Z</time>
      </trkpt>
      <trkpt lat="48.49494" lon="7.37819">
        <ele>491</ele>
        <time>2017-04-09T11:32:00Z</time>
      </trkpt>
      <trkpt lat="48.49507" lon="7.37812">
        <ele>489</ele>
        <time>2017-04-09T11:32:05Z</time>
      </trkpt>
      <trkpt lat="48.49508" lon="7.37811">
        <ele>489</ele>
        <time>2017-04-09T11:32:06Z</time>
      </trkpt>
      <trkpt lat="48.49509" lon="7.37812">
        <ele>489</ele>
        <time>2017-04-09T11:32:07Z</time>
      </trkpt>
      <trkpt lat="48.4951" lon="7.37812">
        <ele>489</ele>
        <time>2017-04-09T11:32:08Z</time>
      </trkpt>
      <trkpt lat="48.49511" lon="7.37813">
        <ele>489</ele>
        <time>2017-04-09T11:32:09Z</time>
      </trkpt>
      <trkpt lat="48.49526" lon="7.37809">
        <ele>489</ele>
        <time>2017-04-09T11:32:16Z</time>
      </trkpt>
      <trkpt lat="48.49531" lon="7.37808">
        <ele>489</ele>
        <time>2017-04-09T11:32:19Z</time>
      </trkpt>
      <trkpt lat="48.49533" lon="7.37806">
        <ele>489</ele>
        <time>2017-04-09T11:32:20Z</time>
      </trkpt>
      <trkpt lat="48.49535" lon="7.37805">
        <ele>489</ele>
        <time>2017-04-09T11:32:21Z</time>
      </trkpt>
      <trkpt lat="48.49537" lon="7.37804">
        <ele>489</ele>
        <time>2017-04-09T11:32:22Z</time>
      </trkpt>
      <trkpt lat="48.49538" lon="7.37803">
        <ele>489</ele>
        <time>2017-04-09T11:32:23Z</time>
      </trkpt>
      <trkpt lat="48.4954" lon="7.37801">
        <ele>489</ele>
        <time>2017-04-09T11:32:24Z</time>
      </trkpt>
      <trkpt lat="48.49553" lon="7.37794">
        <ele>489</ele>
        <time>2017-04-09T11:32:30Z</time>
      </trkpt>
      <trkpt lat="48.49556" lon="7.37791">
        <ele>489</ele>
        <time>2017-04-09T11:32:31Z</time>
      </trkpt>
      <trkpt lat="48.4956" lon="7.37787">
        <ele>490</ele>
        <time>2017-04-09T11:32:32Z</time>
      </trkpt>
      <trkpt lat="48.49563" lon="7.37785">
        <ele>490</ele>
        <time>2017-04-09T11:32:33Z</time>
      </trkpt>
      <trkpt lat="48.49566" lon="7.37782">
        <ele>490</ele>
        <time>2017-04-09T11:32:34Z</time>
      </trkpt>
      <trkpt lat="48.49582" lon="7.37783">
        <ele>489</ele>
        <time>2017-04-09T11:32:37Z</time>
      </trkpt>
      <trkpt lat="48.49593" lon="7.37783">
        <ele>487</ele>
        <time>2017-04-09T11:32:44Z</time>
      </trkpt>
      <trkpt lat="48.49593" lon="7.37783">
        <ele>487</ele>
        <time>2017-04-09T11:32:45Z</time>
      </trkpt>
      <trkpt lat="48.49596" lon="7.37781">
        <ele>487</ele>
        <time>2017-04-09T11:41:49Z</time>
      </trkpt>
      <trkpt lat="48.49599" lon="7.37781">
        <ele>487</ele>
        <time>2017-04-09T11:41:50Z</time>
      </trkpt>
      <trkpt lat="48.49603" lon="7.3778">
        <ele>487</ele>
        <time>2017-04-09T11:41:51Z</time>
      </trkpt>
      <trkpt lat="48.49607" lon="7.37779">
        <ele>487</ele>
        <time>2017-04-09T11:41:52Z</time>
      </trkpt>
      <trkpt lat="48.49611" lon="7.37778">
        <ele>487</ele>
        <time>2017-04-09T11:41:53Z</time>
      </trkpt>
      <trkpt lat="48.49614" lon="7.37778">
        <ele>486</ele>
        <time>2017-04-09T11:41:54Z</time>
      </trkpt>
      <trkpt lat="48.49617" lon="7.37778">
        <ele>486</ele>
        <time>2017-04-09T11:41:55Z</time>
      </trkpt>
      <trkpt lat="48.4962" lon="7.37778">
        <ele>486</ele>
        <time>2017-04-09T11:41:56Z</time>
      </trkpt>
      <trkpt lat="48.49623" lon="7.37779">
        <ele>486</ele>
        <time>2017-04-09T11:41:57Z</time>
      </trkpt>
      <trkpt lat="48.49626" lon="7.37778">
        <ele>486</ele>
        <time>2017-04-09T11:41:58Z</time>
      </trkpt>
      <trkpt lat="48.49633" lon="7.37781">
        <ele>486</ele>
        <time>2017-04-09T11:42:02Z</time>
      </trkpt>
      <trkpt lat="48.49642" lon="7.37784">
        <ele>486</ele>
        <time>2017-04-09T11:42:05Z</time>
      </trkpt>
      <trkpt lat="48.49647" lon="7.37786">
        <ele>486</ele>
        <time>2017-04-09T11:42:06Z</time>
      </trkpt>
      <trkpt lat="48.49651" lon="7.37789">
        <ele>486</ele>
        <time>2017-04-09T11:42:07Z</time>
      </trkpt>
      <trkpt lat="48.49656" lon="7.37793">
        <ele>485</ele>
        <time>2017-04-09T11:42:08Z</time>
      </trkpt>
      <trkpt lat="48.49662" lon="7.37797">
        <ele>485</ele>
        <time>2017-04-09T11:42:09Z</time>
      </trkpt>
      <trkpt lat="48.49667" lon="7.37802">
        <ele>481</ele>
        <time>2017-04-09T11:42:10Z</time>
      </trkpt>
      <trkpt lat="48.49672" lon="7.37808">
        <ele>481</ele>
        <time>2017-04-09T11:42:11Z</time>
      </trkpt>
      <trkpt lat="48.49678" lon="7.37813">
        <ele>481</ele>
        <time>2017-04-09T11:42:12Z</time>
      </trkpt>
      <trkpt lat="48.49681" lon="7.3782">
        <ele>481</ele>
        <time>2017-04-09T11:42:13Z</time>
      </trkpt>
      <trkpt lat="48.49686" lon="7.37825">
        <ele>481</ele>
        <time>2017-04-09T11:42:14Z</time>
      </trkpt>
      <trkpt lat="48.4969" lon="7.3783">
        <ele>481</ele>
        <time>2017-04-09T11:42:15Z</time>
      </trkpt>
      <trkpt lat="48.49713" lon="7.37843">
        <ele>478</ele>
        <time>2017-04-09T11:42:19Z</time>
      </trkpt>
      <trkpt lat="48.49725" lon="7.3784">
        <ele>477</ele>
        <time>2017-04-09T11:42:21Z</time>
      </trkpt>
      <trkpt lat="48.4973" lon="7.37839">
        <ele>477</ele>
        <time>2017-04-09T11:42:22Z</time>
      </trkpt>
      <trkpt lat="48.49739" lon="7.37834">
        <ele>477</ele>
        <time>2017-04-09T11:42:24Z</time>
      </trkpt>
      <trkpt lat="48.49741" lon="7.3783">
        <ele>478</ele>
        <time>2017-04-09T11:42:25Z</time>
      </trkpt>
      <trkpt lat="48.49743" lon="7.37824">
        <ele>478</ele>
        <time>2017-04-09T11:42:26Z</time>
      </trkpt>
      <trkpt lat="48.49744" lon="7.37819">
        <ele>478</ele>
        <time>2017-04-09T11:42:27Z</time>
      </trkpt>
      <trkpt lat="48.49744" lon="7.37814">
        <ele>478</ele>
        <time>2017-04-09T11:42:28Z</time>
      </trkpt>
      <trkpt lat="48.49738" lon="7.37797">
        <ele>478</ele>
        <time>2017-04-09T11:42:32Z</time>
      </trkpt>
      <trkpt lat="48.49735" lon="7.37794">
        <ele>478</ele>
        <time>2017-04-09T11:42:33Z</time>
      </trkpt>
      <trkpt lat="48.49734" lon="7.37792">
        <ele>478</ele>
        <time>2017-04-09T11:42:34Z</time>
      </trkpt>
      <trkpt lat="48.49733" lon="7.37789">
        <ele>478</ele>
        <time>2017-04-09T11:42:35Z</time>
      </trkpt>
      <trkpt lat="48.49732" lon="7.37787">
        <ele>478</ele>
        <time>2017-04-09T11:42:36Z</time>
      </trkpt>
      <trkpt lat="48.49723" lon="7.37769">
        <ele>478</ele>
        <time>2017-04-09T11:42:41Z</time>
      </trkpt>
      <trkpt lat="48.49721" lon="7.37764">
        <ele>478</ele>
        <time>2017-04-09T11:42:42Z</time>
      </trkpt>
      <trkpt lat="48.49718" lon="7.37758">
        <ele>478</ele>
        <time>2017-04-09T11:42:43Z</time>
      </trkpt>
      <trkpt lat="48.49714" lon="7.37752">
        <ele>478</ele>
        <time>2017-04-09T11:42:44Z</time>
      </trkpt>
      <trkpt lat="48.49711" lon="7.37745">
        <ele>477</ele>
        <time>2017-04-09T11:42:45Z</time>
      </trkpt>
      <trkpt lat="48.49705" lon="7.3773">
        <ele>477</ele>
        <time>2017-04-09T11:42:47Z</time>
      </trkpt>
      <trkpt lat="48.49703" lon="7.37723">
        <ele>477</ele>
        <time>2017-04-09T11:42:48Z</time>
      </trkpt>
      <trkpt lat="48.49702" lon="7.37715">
        <ele>477</ele>
        <time>2017-04-09T11:42:49Z</time>
      </trkpt>
      <trkpt lat="48.497" lon="7.37708">
        <ele>477</ele>
        <time>2017-04-09T11:42:50Z</time>
      </trkpt>
      <trkpt lat="48.49699" lon="7.377">
        <ele>477</ele>
        <time>2017-04-09T11:42:51Z</time>
      </trkpt>
      <trkpt lat="48.49698" lon="7.37692">
        <ele>477</ele>
        <time>2017-04-09T11:42:52Z</time>
      </trkpt>
      <trkpt lat="48.49698" lon="7.37685">
        <ele>477</ele>
        <time>2017-04-09T11:42:53Z</time>
      </trkpt>
      <trkpt lat="48.49697" lon="7.37668">
        <ele>477</ele>
        <time>2017-04-09T11:42:57Z</time>
      </trkpt>
      <trkpt lat="48.49692" lon="7.37638">
        <ele>470</ele>
        <time>2017-04-09T11:43:02Z</time>
      </trkpt>
      <trkpt lat="48.49692" lon="7.3763">
        <ele>469</ele>
        <time>2017-04-09T11:43:03Z</time>
      </trkpt>
      <trkpt lat="48.49691" lon="7.37621">
        <ele>469</ele>
        <time>2017-04-09T11:43:04Z</time>
      </trkpt>
      <trkpt lat="48.4969" lon="7.37614">
        <ele>468</ele>
        <time>2017-04-09T11:43:05Z</time>
      </trkpt>
      <trkpt lat="48.4969" lon="7.37606">
        <ele>468</ele>
        <time>2017-04-09T11:43:06Z</time>
      </trkpt>
      <trkpt lat="48.49688" lon="7.37592">
        <ele>469</ele>
        <time>2017-04-09T11:43:08Z</time>
      </trkpt>
      <trkpt lat="48.49686" lon="7.37588">
        <ele>470</ele>
        <time>2017-04-09T11:43:09Z</time>
      </trkpt>
      <trkpt lat="48.49678" lon="7.37571">
        <ele>464</ele>
        <time>2017-04-09T11:43:12Z</time>
      </trkpt>
      <trkpt lat="48.49673" lon="7.37565">
        <ele>463</ele>
        <time>2017-04-09T11:43:13Z</time>
      </trkpt>
      <trkpt lat="48.49668" lon="7.37558">
        <ele>461</ele>
        <time>2017-04-09T11:43:14Z</time>
      </trkpt>
      <trkpt lat="48.49664" lon="7.37551">
        <ele>475</ele>
        <time>2017-04-09T11:43:15Z</time>
      </trkpt>
      <trkpt lat="48.49659" lon="7.37544">
        <ele>475</ele>
        <time>2017-04-09T11:43:16Z</time>
      </trkpt>
      <trkpt lat="48.49651" lon="7.37533">
        <ele>473</ele>
        <time>2017-04-09T11:43:18Z</time>
      </trkpt>
      <trkpt lat="48.49648" lon="7.37527">
        <ele>473</ele>
        <time>2017-04-09T11:43:19Z</time>
      </trkpt>
      <trkpt lat="48.49644" lon="7.37522">
        <ele>473</ele>
        <time>2017-04-09T11:43:20Z</time>
      </trkpt>
      <trkpt lat="48.49641" lon="7.37518">
        <ele>473</ele>
        <time>2017-04-09T11:43:21Z</time>
      </trkpt>
      <trkpt lat="48.49638" lon="7.37514">
        <ele>473</ele>
        <time>2017-04-09T11:43:22Z</time>
      </trkpt>
      <trkpt lat="48.49623" lon="7.37492">
        <ele>467</ele>
        <time>2017-04-09T11:43:26Z</time>
      </trkpt>
      <trkpt lat="48.4962" lon="7.37488">
        <ele>467</ele>
        <time>2017-04-09T11:43:27Z</time>
      </trkpt>
      <trkpt lat="48.49617" lon="7.37483">
        <ele>468</ele>
        <time>2017-04-09T11:43:28Z</time>
      </trkpt>
      <trkpt lat="48.49614" lon="7.37479">
        <ele>468</ele>
        <time>2017-04-09T11:43:29Z</time>
      </trkpt>
      <trkpt lat="48.49612" lon="7.37474">
        <ele>468</ele>
        <time>2017-04-09T11:43:30Z</time>
      </trkpt>
      <trkpt lat="48.4961" lon="7.37468">
        <ele>467</ele>
        <time>2017-04-09T11:43:31Z</time>
      </trkpt>
      <trkpt lat="48.49609" lon="7.37462">
        <ele>467</ele>
        <time>2017-04-09T11:43:32Z</time>
      </trkpt>
      <trkpt lat="48.49607" lon="7.37456">
        <ele>467</ele>
        <time>2017-04-09T11:43:33Z</time>
      </trkpt>
      <trkpt lat="48.49604" lon="7.37442">
        <ele>466</ele>
        <time>2017-04-09T11:43:36Z</time>
      </trkpt>
      <trkpt lat="48.49603" lon="7.37439">
        <ele>467</ele>
        <time>2017-04-09T11:43:37Z</time>
      </trkpt>
      <trkpt lat="48.49603" lon="7.37436">
        <ele>467</ele>
        <time>2017-04-09T11:43:38Z</time>
      </trkpt>
      <trkpt lat="48.49602" lon="7.37432">
        <ele>467</ele>
        <time>2017-04-09T11:43:39Z</time>
      </trkpt>
      <trkpt lat="48.49601" lon="7.37428">
        <ele>467</ele>
        <time>2017-04-09T11:43:40Z</time>
      </trkpt>
      <trkpt lat="48.49597" lon="7.37405">
        <ele>463</ele>
        <time>2017-04-09T11:43:46Z</time>
      </trkpt>
      <trkpt lat="48.49595" lon="7.3737">
        <ele>459</ele>
        <time>2017-04-09T11:43:52Z</time>
      </trkpt>
      <trkpt lat="48.49603" lon="7.37337">
        <ele>460</ele>
        <time>2017-04-09T11:43:56Z</time>
      </trkpt>
      <trkpt lat="48.49605" lon="7.3733">
        <ele>459</ele>
        <time>2017-04-09T11:43:57Z</time>
      </trkpt>
      <trkpt lat="48.49607" lon="7.37325">
        <ele>458</ele>
        <time>2017-04-09T11:43:58Z</time>
      </trkpt>
      <trkpt lat="48.49611" lon="7.37319">
        <ele>456</ele>
        <time>2017-04-09T11:43:59Z</time>
      </trkpt>
      <trkpt lat="48.49613" lon="7.37314">
        <ele>456</ele>
        <time>2017-04-09T11:44:00Z</time>
      </trkpt>
      <trkpt lat="48.49615" lon="7.37309">
        <ele>455</ele>
        <time>2017-04-09T11:44:01Z</time>
      </trkpt>
      <trkpt lat="48.49623" lon="7.37282">
        <ele>454</ele>
        <time>2017-04-09T11:44:06Z</time>
      </trkpt>
      <trkpt lat="48.49625" lon="7.37276">
        <ele>453</ele>
        <time>2017-04-09T11:44:07Z</time>
      </trkpt>
      <trkpt lat="48.49626" lon="7.37269">
        <ele>453</ele>
        <time>2017-04-09T11:44:08Z</time>
      </trkpt>
      <trkpt lat="48.49628" lon="7.37264">
        <ele>453</ele>
        <time>2017-04-09T11:44:09Z</time>
      </trkpt>
      <trkpt lat="48.49631" lon="7.37258">
        <ele>452</ele>
        <time>2017-04-09T11:44:10Z</time>
      </trkpt>
      <trkpt lat="48.49639" lon="7.37249">
        <ele>455</ele>
        <time>2017-04-09T11:44:12Z</time>
      </trkpt>
      <trkpt lat="48.49643" lon="7.37245">
        <ele>454</ele>
        <time>2017-04-09T11:44:13Z</time>
      </trkpt>
      <trkpt lat="48.49648" lon="7.37235">
        <ele>453</ele>
        <time>2017-04-09T11:44:17Z</time>
      </trkpt>
      <trkpt lat="48.49658" lon="7.37215">
        <ele>456</ele>
        <time>2017-04-09T11:44:23Z</time>
      </trkpt>
      <trkpt lat="48.4967" lon="7.37193">
        <ele>445</ele>
        <time>2017-04-09T11:44:28Z</time>
      </trkpt>
      <trkpt lat="48.49673" lon="7.37189">
        <ele>446</ele>
        <time>2017-04-09T11:44:29Z</time>
      </trkpt>
      <trkpt lat="48.49675" lon="7.37185">
        <ele>447</ele>
        <time>2017-04-09T11:44:30Z</time>
      </trkpt>
      <trkpt lat="48.49678" lon="7.37182">
        <ele>447</ele>
        <time>2017-04-09T11:44:31Z</time>
      </trkpt>
      <trkpt lat="48.49681" lon="7.37179">
        <ele>447</ele>
        <time>2017-04-09T11:44:32Z</time>
      </trkpt>
      <trkpt lat="48.49696" lon="7.37167">
        <ele>444</ele>
        <time>2017-04-09T11:44:37Z</time>
      </trkpt>
      <trkpt lat="48.49714" lon="7.37155">
        <ele>453</ele>
        <time>2017-04-09T11:44:41Z</time>
      </trkpt>
      <trkpt lat="48.49718" lon="7.37152">
        <ele>452</ele>
        <time>2017-04-09T11:44:42Z</time>
      </trkpt>
      <trkpt lat="48.49722" lon="7.3715">
        <ele>452</ele>
        <time>2017-04-09T11:44:43Z</time>
      </trkpt>
      <trkpt lat="48.49726" lon="7.37147">
        <ele>452</ele>
        <time>2017-04-09T11:44:44Z</time>
      </trkpt>
      <trkpt lat="48.49729" lon="7.37144">
        <ele>452</ele>
        <time>2017-04-09T11:44:45Z</time>
      </trkpt>
      <trkpt lat="48.49734" lon="7.37141">
        <ele>451</ele>
        <time>2017-04-09T11:44:46Z</time>
      </trkpt>
      <trkpt lat="48.49737" lon="7.37138">
        <ele>452</ele>
        <time>2017-04-09T11:44:47Z</time>
      </trkpt>
      <trkpt lat="48.49742" lon="7.37136">
        <ele>452</ele>
        <time>2017-04-09T11:44:48Z</time>
      </trkpt>
      <trkpt lat="48.49746" lon="7.37132">
        <ele>452</ele>
        <time>2017-04-09T11:44:49Z</time>
      </trkpt>
      <trkpt lat="48.4975" lon="7.37128">
        <ele>439</ele>
        <time>2017-04-09T11:44:50Z</time>
      </trkpt>
      <trkpt lat="48.49754" lon="7.37125">
        <ele>439</ele>
        <time>2017-04-09T11:44:51Z</time>
      </trkpt>
      <trkpt lat="48.49758" lon="7.3712">
        <ele>440</ele>
        <time>2017-04-09T11:44:52Z</time>
      </trkpt>
      <trkpt lat="48.49761" lon="7.37116">
        <ele>441</ele>
        <time>2017-04-09T11:44:53Z</time>
      </trkpt>
      <trkpt lat="48.49764" lon="7.37111">
        <ele>441</ele>
        <time>2017-04-09T11:44:54Z</time>
      </trkpt>
      <trkpt lat="48.49768" lon="7.37104">
        <ele>442</ele>
        <time>2017-04-09T11:44:55Z</time>
      </trkpt>
      <trkpt lat="48.49771" lon="7.37096">
        <ele>443</ele>
        <time>2017-04-09T11:44:56Z</time>
      </trkpt>
      <trkpt lat="48.49774" lon="7.37088">
        <ele>443</ele>
        <time>2017-04-09T11:44:57Z</time>
      </trkpt>
      <trkpt lat="48.49779" lon="7.37079">
        <ele>453</ele>
        <time>2017-04-09T11:44:58Z</time>
      </trkpt>
      <trkpt lat="48.49786" lon="7.37062">
        <ele>452</ele>
        <time>2017-04-09T11:44:59Z</time>
      </trkpt>
      <trkpt lat="48.49794" lon="7.37056">
        <ele>451</ele>
        <time>2017-04-09T11:45:00Z</time>
      </trkpt>
      <trkpt lat="48.49798" lon="7.37052">
        <ele>451</ele>
        <time>2017-04-09T11:45:01Z</time>
      </trkpt>
      <trkpt lat="48.49802" lon="7.37049">
        <ele>451</ele>
        <time>2017-04-09T11:45:02Z</time>
      </trkpt>
      <trkpt lat="48.49803" lon="7.37046">
        <ele>451</ele>
        <time>2017-04-09T11:45:03Z</time>
      </trkpt>
      <trkpt lat="48.49809" lon="7.37042">
        <ele>451</ele>
        <time>2017-04-09T11:45:04Z</time>
      </trkpt>
      <trkpt lat="48.49811" lon="7.3704">
        <ele>450</ele>
        <time>2017-04-09T11:45:05Z</time>
      </trkpt>
      <trkpt lat="48.49814" lon="7.37037">
        <ele>450</ele>
        <time>2017-04-09T11:45:06Z</time>
      </trkpt>
      <trkpt lat="48.49818" lon="7.37031">
        <ele>450</ele>
        <time>2017-04-09T11:45:07Z</time>
      </trkpt>
      <trkpt lat="48.49823" lon="7.37026">
        <ele>450</ele>
        <time>2017-04-09T11:45:08Z</time>
      </trkpt>
      <trkpt lat="48.49828" lon="7.37021">
        <ele>450</ele>
        <time>2017-04-09T11:45:09Z</time>
      </trkpt>
      <trkpt lat="48.49833" lon="7.37015">
        <ele>449</ele>
        <time>2017-04-09T11:45:10Z</time>
      </trkpt>
      <trkpt lat="48.49839" lon="7.37007">
        <ele>441</ele>
        <time>2017-04-09T11:45:11Z</time>
      </trkpt>
      <trkpt lat="48.49844" lon="7.36998">
        <ele>445</ele>
        <time>2017-04-09T11:45:12Z</time>
      </trkpt>
      <trkpt lat="48.4985" lon="7.36989">
        <ele>444</ele>
        <time>2017-04-09T11:45:13Z</time>
      </trkpt>
      <trkpt lat="48.49857" lon="7.36979">
        <ele>443</ele>
        <time>2017-04-09T11:45:14Z</time>
      </trkpt>
      <trkpt lat="48.49863" lon="7.3697">
        <ele>443</ele>
        <time>2017-04-09T11:45:15Z</time>
      </trkpt>
      <trkpt lat="48.4987" lon="7.36961">
        <ele>443</ele>
        <time>2017-04-09T11:45:16Z</time>
      </trkpt>
      <trkpt lat="48.49876" lon="7.36951">
        <ele>442</ele>
        <time>2017-04-09T11:45:17Z</time>
      </trkpt>
      <trkpt lat="48.49882" lon="7.36942">
        <ele>442</ele>
        <time>2017-04-09T11:45:18Z</time>
      </trkpt>
      <trkpt lat="48.49886" lon="7.36933">
        <ele>441</ele>
        <time>2017-04-09T11:45:19Z</time>
      </trkpt>
      <trkpt lat="48.49891" lon="7.36926">
        <ele>440</ele>
        <time>2017-04-09T11:45:20Z</time>
      </trkpt>
      <trkpt lat="48.49894" lon="7.36917">
        <ele>440</ele>
        <time>2017-04-09T11:45:21Z</time>
      </trkpt>
      <trkpt lat="48.49897" lon="7.36909">
        <ele>442</ele>
        <time>2017-04-09T11:45:22Z</time>
      </trkpt>
      <trkpt lat="48.499" lon="7.36899">
        <ele>442</ele>
        <time>2017-04-09T11:45:23Z</time>
      </trkpt>
      <trkpt lat="48.49904" lon="7.36888">
        <ele>443</ele>
        <time>2017-04-09T11:45:24Z</time>
      </trkpt>
      <trkpt lat="48.49907" lon="7.36879">
        <ele>443</ele>
        <time>2017-04-09T11:45:25Z</time>
      </trkpt>
      <trkpt lat="48.4991" lon="7.3687">
        <ele>443</ele>
        <time>2017-04-09T11:45:26Z</time>
      </trkpt>
      <trkpt lat="48.49912" lon="7.36861">
        <ele>442</ele>
        <time>2017-04-09T11:45:27Z</time>
      </trkpt>
      <trkpt lat="48.49919" lon="7.36838">
        <ele>432</ele>
        <time>2017-04-09T11:45:30Z</time>
      </trkpt>
      <trkpt lat="48.49921" lon="7.36829">
        <ele>431</ele>
        <time>2017-04-09T11:45:31Z</time>
      </trkpt>
      <trkpt lat="48.49923" lon="7.36821">
        <ele>429</ele>
        <time>2017-04-09T11:45:32Z</time>
      </trkpt>
      <trkpt lat="48.49925" lon="7.36812">
        <ele>428</ele>
        <time>2017-04-09T11:45:33Z</time>
      </trkpt>
      <trkpt lat="48.49928" lon="7.36803">
        <ele>427</ele>
        <time>2017-04-09T11:45:34Z</time>
      </trkpt>
      <trkpt lat="48.49931" lon="7.36794">
        <ele>426</ele>
        <time>2017-04-09T11:45:35Z</time>
      </trkpt>
      <trkpt lat="48.49934" lon="7.36784">
        <ele>425</ele>
        <time>2017-04-09T11:45:36Z</time>
      </trkpt>
      <trkpt lat="48.49937" lon="7.36775">
        <ele>425</ele>
        <time>2017-04-09T11:45:37Z</time>
      </trkpt>
      <trkpt lat="48.49941" lon="7.36767">
        <ele>425</ele>
        <time>2017-04-09T11:45:38Z</time>
      </trkpt>
      <trkpt lat="48.49945" lon="7.36758">
        <ele>424</ele>
        <time>2017-04-09T11:45:39Z</time>
      </trkpt>
      <trkpt lat="48.49948" lon="7.36742">
        <ele>419</ele>
        <time>2017-04-09T11:45:41Z</time>
      </trkpt>
      <trkpt lat="48.49948" lon="7.36733">
        <ele>418</ele>
        <time>2017-04-09T11:45:42Z</time>
      </trkpt>
      <trkpt lat="48.49947" lon="7.36726">
        <ele>418</ele>
        <time>2017-04-09T11:45:43Z</time>
      </trkpt>
      <trkpt lat="48.49944" lon="7.3672">
        <ele>418</ele>
        <time>2017-04-09T11:45:44Z</time>
      </trkpt>
      <trkpt lat="48.49942" lon="7.36714">
        <ele>418</ele>
        <time>2017-04-09T11:45:45Z</time>
      </trkpt>
      <trkpt lat="48.4994" lon="7.36711">
        <ele>418</ele>
        <time>2017-04-09T11:45:47Z</time>
      </trkpt>
      <trkpt lat="48.49939" lon="7.3671">
        <ele>418</ele>
        <time>2017-04-09T11:45:48Z</time>
      </trkpt>
      <trkpt lat="48.49937" lon="7.36707">
        <ele>418</ele>
        <time>2017-04-09T11:45:52Z</time>
      </trkpt>
      <trkpt lat="48.49931" lon="7.36705">
        <ele>418</ele>
        <time>2017-04-09T11:46:57Z</time>
      </trkpt>
      <trkpt lat="48.49925" lon="7.36698">
        <ele>418</ele>
        <time>2017-04-09T11:46:59Z</time>
      </trkpt>
      <trkpt lat="48.49924" lon="7.36695">
        <ele>418</ele>
        <time>2017-04-09T11:47:00Z</time>
      </trkpt>
      <trkpt lat="48.49923" lon="7.36692">
        <ele>418</ele>
        <time>2017-04-09T11:47:01Z</time>
      </trkpt>
      <trkpt lat="48.49922" lon="7.36689">
        <ele>418</ele>
        <time>2017-04-09T11:47:02Z</time>
      </trkpt>
      <trkpt lat="48.4992" lon="7.36685">
        <ele>419</ele>
        <time>2017-04-09T11:47:03Z</time>
      </trkpt>
      <trkpt lat="48.49922" lon="7.36675">
        <ele>419</ele>
        <time>2017-04-09T11:47:06Z</time>
      </trkpt>
      <trkpt lat="48.49924" lon="7.36674">
        <ele>419</ele>
        <time>2017-04-09T11:47:07Z</time>
      </trkpt>
      <trkpt lat="48.4993" lon="7.36678">
        <ele>418</ele>
        <time>2017-04-09T11:47:10Z</time>
      </trkpt>
      <trkpt lat="48.49937" lon="7.36682">
        <ele>417</ele>
        <time>2017-04-09T11:47:13Z</time>
      </trkpt>
      <trkpt lat="48.49939" lon="7.36685">
        <ele>417</ele>
        <time>2017-04-09T11:47:14Z</time>
      </trkpt>
      <trkpt lat="48.49942" lon="7.36687">
        <ele>417</ele>
        <time>2017-04-09T11:47:15Z</time>
      </trkpt>
      <trkpt lat="48.49945" lon="7.36689">
        <ele>416</ele>
        <time>2017-04-09T11:47:16Z</time>
      </trkpt>
      <trkpt lat="48.49948" lon="7.3669">
        <ele>416</ele>
        <time>2017-04-09T11:47:17Z</time>
      </trkpt>
      <trkpt lat="48.49956" lon="7.36697">
        <ele>415</ele>
        <time>2017-04-09T11:47:20Z</time>
      </trkpt>
      <trkpt lat="48.49959" lon="7.36699">
        <ele>415</ele>
        <time>2017-04-09T11:47:21Z</time>
      </trkpt>
      <trkpt lat="48.49962" lon="7.367">
        <ele>415</ele>
        <time>2017-04-09T11:47:22Z</time>
      </trkpt>
      <trkpt lat="48.49965" lon="7.36702">
        <ele>415</ele>
        <time>2017-04-09T11:47:23Z</time>
      </trkpt>
      <trkpt lat="48.49968" lon="7.36704">
        <ele>414</ele>
        <time>2017-04-09T11:47:24Z</time>
      </trkpt>
      <trkpt lat="48.49974" lon="7.36707">
        <ele>414</ele>
        <time>2017-04-09T11:47:27Z</time>
      </trkpt>
      <trkpt lat="48.49976" lon="7.36709">
        <ele>414</ele>
        <time>2017-04-09T11:47:28Z</time>
      </trkpt>
      <trkpt lat="48.49979" lon="7.36712">
        <ele>414</ele>
        <time>2017-04-09T11:47:29Z</time>
      </trkpt>
      <trkpt lat="48.49984" lon="7.36716">
        <ele>414</ele>
        <time>2017-04-09T11:47:30Z</time>
      </trkpt>
      <trkpt lat="48.49988" lon="7.36721">
        <ele>414</ele>
        <time>2017-04-09T11:47:31Z</time>
      </trkpt>
      <trkpt lat="48.49993" lon="7.36727">
        <ele>414</ele>
        <time>2017-04-09T11:47:32Z</time>
      </trkpt>
      <trkpt lat="48.50004" lon="7.3674">
        <ele>407</ele>
        <time>2017-04-09T11:47:35Z</time>
      </trkpt>
      <trkpt lat="48.50007" lon="7.36745">
        <ele>407</ele>
        <time>2017-04-09T11:47:36Z</time>
      </trkpt>
      <trkpt lat="48.50009" lon="7.3675">
        <ele>407</ele>
        <time>2017-04-09T11:47:37Z</time>
      </trkpt>
      <trkpt lat="48.50011" lon="7.36754">
        <ele>409</ele>
        <time>2017-04-09T11:47:38Z</time>
      </trkpt>
      <trkpt lat="48.50015" lon="7.36761">
        <ele>408</ele>
        <time>2017-04-09T11:47:39Z</time>
      </trkpt>
      <trkpt lat="48.50022" lon="7.36774">
        <ele>407</ele>
        <time>2017-04-09T11:47:41Z</time>
      </trkpt>
      <trkpt lat="48.50023" lon="7.36781">
        <ele>407</ele>
        <time>2017-04-09T11:47:42Z</time>
      </trkpt>
      <trkpt lat="48.50024" lon="7.36788">
        <ele>407</ele>
        <time>2017-04-09T11:47:43Z</time>
      </trkpt>
      <trkpt lat="48.50026" lon="7.36795">
        <ele>407</ele>
        <time>2017-04-09T11:47:44Z</time>
      </trkpt>
      <trkpt lat="48.50028" lon="7.36803">
        <ele>407</ele>
        <time>2017-04-09T11:47:45Z</time>
      </trkpt>
      <trkpt lat="48.50029" lon="7.3681">
        <ele>407</ele>
        <time>2017-04-09T11:47:46Z</time>
      </trkpt>
      <trkpt lat="48.50028" lon="7.36819">
        <ele>408</ele>
        <time>2017-04-09T11:47:47Z</time>
      </trkpt>
      <trkpt lat="48.50028" lon="7.36827">
        <ele>409</ele>
        <time>2017-04-09T11:47:48Z</time>
      </trkpt>
      <trkpt lat="48.50027" lon="7.36837">
        <ele>408</ele>
        <time>2017-04-09T11:47:49Z</time>
      </trkpt>
      <trkpt lat="48.50025" lon="7.36846">
        <ele>408</ele>
        <time>2017-04-09T11:47:50Z</time>
      </trkpt>
      <trkpt lat="48.50022" lon="7.36855">
        <ele>408</ele>
        <time>2017-04-09T11:47:51Z</time>
      </trkpt>
      <trkpt lat="48.5002" lon="7.36864">
        <ele>407</ele>
        <time>2017-04-09T11:47:52Z</time>
      </trkpt>
      <trkpt lat="48.50018" lon="7.36874">
        <ele>407</ele>
        <time>2017-04-09T11:47:53Z</time>
      </trkpt>
      <trkpt lat="48.50016" lon="7.36884">
        <ele>407</ele>
        <time>2017-04-09T11:47:54Z</time>
      </trkpt>
      <trkpt lat="48.50014" lon="7.36895">
        <ele>407</ele>
        <time>2017-04-09T11:47:55Z</time>
      </trkpt>
      <trkpt lat="48.50012" lon="7.36906">
        <ele>409</ele>
        <time>2017-04-09T11:47:56Z</time>
      </trkpt>
      <trkpt lat="48.50011" lon="7.36918">
        <ele>406</ele>
        <time>2017-04-09T11:47:57Z</time>
      </trkpt>
      <trkpt lat="48.50008" lon="7.36931">
        <ele>403</ele>
        <time>2017-04-09T11:47:58Z</time>
      </trkpt>
      <trkpt lat="48.50007" lon="7.36943">
        <ele>399</ele>
        <time>2017-04-09T11:47:59Z</time>
      </trkpt>
      <trkpt lat="48.50005" lon="7.36956">
        <ele>397</ele>
        <time>2017-04-09T11:48:00Z</time>
      </trkpt>
      <trkpt lat="48.50002" lon="7.36968">
        <ele>396</ele>
        <time>2017-04-09T11:48:01Z</time>
      </trkpt>
      <trkpt lat="48.50001" lon="7.36977">
        <ele>395</ele>
        <time>2017-04-09T11:48:02Z</time>
      </trkpt>
      <trkpt lat="48.5" lon="7.36989">
        <ele>405</ele>
        <time>2017-04-09T11:48:03Z</time>
      </trkpt>
      <trkpt lat="48.49999" lon="7.36999">
        <ele>399</ele>
        <time>2017-04-09T11:48:04Z</time>
      </trkpt>
      <trkpt lat="48.49997" lon="7.37009">
        <ele>398</ele>
        <time>2017-04-09T11:48:05Z</time>
      </trkpt>
      <trkpt lat="48.49994" lon="7.37016">
        <ele>399</ele>
        <time>2017-04-09T11:48:06Z</time>
      </trkpt>
      <trkpt lat="48.49989" lon="7.37023">
        <ele>398</ele>
        <time>2017-04-09T11:48:07Z</time>
      </trkpt>
      <trkpt lat="48.49983" lon="7.37029">
        <ele>398</ele>
        <time>2017-04-09T11:48:08Z</time>
      </trkpt>
      <trkpt lat="48.49976" lon="7.37035">
        <ele>398</ele>
        <time>2017-04-09T11:48:09Z</time>
      </trkpt>
      <trkpt lat="48.49969" lon="7.37042">
        <ele>398</ele>
        <time>2017-04-09T11:48:10Z</time>
      </trkpt>
      <trkpt lat="48.49963" lon="7.37049">
        <ele>398</ele>
        <time>2017-04-09T11:48:11Z</time>
      </trkpt>
      <trkpt lat="48.49955" lon="7.37056">
        <ele>399</ele>
        <time>2017-04-09T11:48:12Z</time>
      </trkpt>
      <trkpt lat="48.49949" lon="7.37065">
        <ele>399</ele>
        <time>2017-04-09T11:48:13Z</time>
      </trkpt>
      <trkpt lat="48.49943" lon="7.37073">
        <ele>399</ele>
        <time>2017-04-09T11:48:14Z</time>
      </trkpt>
      <trkpt lat="48.49938" lon="7.3708">
        <ele>400</ele>
        <time>2017-04-09T11:48:15Z</time>
      </trkpt>
      <trkpt lat="48.49933" lon="7.37088">
        <ele>390</ele>
        <time>2017-04-09T11:48:16Z</time>
      </trkpt>
      <trkpt lat="48.49929" lon="7.37095">
        <ele>390</ele>
        <time>2017-04-09T11:48:17Z</time>
      </trkpt>
      <trkpt lat="48.49924" lon="7.37101">
        <ele>389</ele>
        <time>2017-04-09T11:48:18Z</time>
      </trkpt>
      <trkpt lat="48.49921" lon="7.37109">
        <ele>386</ele>
        <time>2017-04-09T11:48:19Z</time>
      </trkpt>
      <trkpt lat="48.49918" lon="7.37117">
        <ele>384</ele>
        <time>2017-04-09T11:48:20Z</time>
      </trkpt>
      <trkpt lat="48.49915" lon="7.37127">
        <ele>399</ele>
        <time>2017-04-09T11:48:21Z</time>
      </trkpt>
      <trkpt lat="48.49911" lon="7.37136">
        <ele>397</ele>
        <time>2017-04-09T11:48:22Z</time>
      </trkpt>
      <trkpt lat="48.49909" lon="7.37146">
        <ele>394</ele>
        <time>2017-04-09T11:48:23Z</time>
      </trkpt>
      <trkpt lat="48.49905" lon="7.37155">
        <ele>391</ele>
        <time>2017-04-09T11:48:24Z</time>
      </trkpt>
      <trkpt lat="48.49902" lon="7.37164">
        <ele>390</ele>
        <time>2017-04-09T11:48:25Z</time>
      </trkpt>
      <trkpt lat="48.49898" lon="7.37174">
        <ele>383</ele>
        <time>2017-04-09T11:48:26Z</time>
      </trkpt>
      <trkpt lat="48.49896" lon="7.37183">
        <ele>384</ele>
        <time>2017-04-09T11:48:27Z</time>
      </trkpt>
      <trkpt lat="48.49891" lon="7.37193">
        <ele>384</ele>
        <time>2017-04-09T11:48:28Z</time>
      </trkpt>
      <trkpt lat="48.49888" lon="7.37202">
        <ele>384</ele>
        <time>2017-04-09T11:48:29Z</time>
      </trkpt>
      <trkpt lat="48.49884" lon="7.3721">
        <ele>384</ele>
        <time>2017-04-09T11:48:30Z</time>
      </trkpt>
      <trkpt lat="48.49881" lon="7.37219">
        <ele>384</ele>
        <time>2017-04-09T11:48:31Z</time>
      </trkpt>
      <trkpt lat="48.49877" lon="7.37228">
        <ele>383</ele>
        <time>2017-04-09T11:48:32Z</time>
      </trkpt>
      <trkpt lat="48.49873" lon="7.37238">
        <ele>383</ele>
        <time>2017-04-09T11:48:33Z</time>
      </trkpt>
      <trkpt lat="48.49868" lon="7.37248">
        <ele>384</ele>
        <time>2017-04-09T11:48:34Z</time>
      </trkpt>
      <trkpt lat="48.49864" lon="7.37258">
        <ele>378</ele>
        <time>2017-04-09T11:48:35Z</time>
      </trkpt>
      <trkpt lat="48.49861" lon="7.37267">
        <ele>379</ele>
        <time>2017-04-09T11:48:36Z</time>
      </trkpt>
      <trkpt lat="48.49858" lon="7.37276">
        <ele>378</ele>
        <time>2017-04-09T11:48:37Z</time>
      </trkpt>
      <trkpt lat="48.49858" lon="7.37287">
        <ele>378</ele>
        <time>2017-04-09T11:48:38Z</time>
      </trkpt>
      <trkpt lat="48.4986" lon="7.373">
        <ele>377</ele>
        <time>2017-04-09T11:48:39Z</time>
      </trkpt>
      <trkpt lat="48.49862" lon="7.37313">
        <ele>377</ele>
        <time>2017-04-09T11:48:40Z</time>
      </trkpt>
      <trkpt lat="48.49864" lon="7.37328">
        <ele>377</ele>
        <time>2017-04-09T11:48:42Z</time>
      </trkpt>
      <trkpt lat="48.49883" lon="7.37338">
        <ele>379</ele>
        <time>2017-04-09T11:48:47Z</time>
      </trkpt>
      <trkpt lat="48.49886" lon="7.37336">
        <ele>378</ele>
        <time>2017-04-09T11:48:48Z</time>
      </trkpt>
      <trkpt lat="48.4989" lon="7.37331">
        <ele>374</ele>
        <time>2017-04-09T11:48:49Z</time>
      </trkpt>
      <trkpt lat="48.49893" lon="7.37327">
        <ele>373</ele>
        <time>2017-04-09T11:48:50Z</time>
      </trkpt>
      <trkpt lat="48.49894" lon="7.37321">
        <ele>373</ele>
        <time>2017-04-09T11:48:51Z</time>
      </trkpt>
      <trkpt lat="48.49895" lon="7.37314">
        <ele>374</ele>
        <time>2017-04-09T11:48:52Z</time>
      </trkpt>
      <trkpt lat="48.49896" lon="7.37307">
        <ele>374</ele>
        <time>2017-04-09T11:48:53Z</time>
      </trkpt>
      <trkpt lat="48.49897" lon="7.373">
        <ele>374</ele>
        <time>2017-04-09T11:48:54Z</time>
      </trkpt>
      <trkpt lat="48.49899" lon="7.37294">
        <ele>374</ele>
        <time>2017-04-09T11:48:55Z</time>
      </trkpt>
      <trkpt lat="48.49901" lon="7.37288">
        <ele>374</ele>
        <time>2017-04-09T11:48:56Z</time>
      </trkpt>
      <trkpt lat="48.49904" lon="7.37282">
        <ele>373</ele>
        <time>2017-04-09T11:48:57Z</time>
      </trkpt>
      <trkpt lat="48.49907" lon="7.37275">
        <ele>372</ele>
        <time>2017-04-09T11:48:58Z</time>
      </trkpt>
      <trkpt lat="48.4991" lon="7.37268">
        <ele>371</ele>
        <time>2017-04-09T11:48:59Z</time>
      </trkpt>
      <trkpt lat="48.49915" lon="7.3726">
        <ele>369</ele>
        <time>2017-04-09T11:49:00Z</time>
      </trkpt>
      <trkpt lat="48.4992" lon="7.37253">
        <ele>366</ele>
        <time>2017-04-09T11:49:01Z</time>
      </trkpt>
      <trkpt lat="48.49927" lon="7.37246">
        <ele>366</ele>
        <time>2017-04-09T11:49:02Z</time>
      </trkpt>
      <trkpt lat="48.49934" lon="7.37237">
        <ele>366</ele>
        <time>2017-04-09T11:49:03Z</time>
      </trkpt>
      <trkpt lat="48.4994" lon="7.3723">
        <ele>365</ele>
        <time>2017-04-09T11:49:04Z</time>
      </trkpt>
      <trkpt lat="48.49945" lon="7.37224">
        <ele>365</ele>
        <time>2017-04-09T11:49:05Z</time>
      </trkpt>
      <trkpt lat="48.49949" lon="7.37219">
        <ele>365</ele>
        <time>2017-04-09T11:49:06Z</time>
      </trkpt>
      <trkpt lat="48.49954" lon="7.37212">
        <ele>365</ele>
        <time>2017-04-09T11:49:08Z</time>
      </trkpt>
      <trkpt lat="48.49958" lon="7.3721">
        <ele>365</ele>
        <time>2017-04-09T11:49:09Z</time>
      </trkpt>
      <trkpt lat="48.49962" lon="7.3721">
        <ele>364</ele>
        <time>2017-04-09T11:49:10Z</time>
      </trkpt>
      <trkpt lat="48.49965" lon="7.37212">
        <ele>364</ele>
        <time>2017-04-09T11:49:11Z</time>
      </trkpt>
      <trkpt lat="48.49969" lon="7.37214">
        <ele>364</ele>
        <time>2017-04-09T11:49:12Z</time>
      </trkpt>
      <trkpt lat="48.49976" lon="7.37215">
        <ele>363</ele>
        <time>2017-04-09T11:49:13Z</time>
      </trkpt>
      <trkpt lat="48.49983" lon="7.37213">
        <ele>363</ele>
        <time>2017-04-09T11:49:14Z</time>
      </trkpt>
      <trkpt lat="48.49988" lon="7.37211">
        <ele>362</ele>
        <time>2017-04-09T11:49:15Z</time>
      </trkpt>
      <trkpt lat="48.49992" lon="7.37207">
        <ele>362</ele>
        <time>2017-04-09T11:49:16Z</time>
      </trkpt>
      <trkpt lat="48.49996" lon="7.37203">
        <ele>362</ele>
        <time>2017-04-09T11:49:17Z</time>
      </trkpt>
      <trkpt lat="48.5" lon="7.37199">
        <ele>362</ele>
        <time>2017-04-09T11:49:18Z</time>
      </trkpt>
      <trkpt lat="48.50004" lon="7.37194">
        <ele>357</ele>
        <time>2017-04-09T11:49:19Z</time>
      </trkpt>
      <trkpt lat="48.50008" lon="7.3719">
        <ele>356</ele>
        <time>2017-04-09T11:49:20Z</time>
      </trkpt>
      <trkpt lat="48.50014" lon="7.37184">
        <ele>356</ele>
        <time>2017-04-09T11:49:21Z</time>
      </trkpt>
      <trkpt lat="48.50019" lon="7.37179">
        <ele>356</ele>
        <time>2017-04-09T11:49:22Z</time>
      </trkpt>
      <trkpt lat="48.50026" lon="7.37174">
        <ele>356</ele>
        <time>2017-04-09T11:49:23Z</time>
      </trkpt>
      <trkpt lat="48.50032" lon="7.37168">
        <ele>355</ele>
        <time>2017-04-09T11:49:24Z</time>
      </trkpt>
      <trkpt lat="48.50038" lon="7.37161">
        <ele>355</ele>
        <time>2017-04-09T11:49:25Z</time>
      </trkpt>
      <trkpt lat="48.50044" lon="7.37154">
        <ele>354</ele>
        <time>2017-04-09T11:49:26Z</time>
      </trkpt>
      <trkpt lat="48.5005" lon="7.37147">
        <ele>354</ele>
        <time>2017-04-09T11:49:27Z</time>
      </trkpt>
      <trkpt lat="48.50057" lon="7.37142">
        <ele>354</ele>
        <time>2017-04-09T11:49:28Z</time>
      </trkpt>
      <trkpt lat="48.50062" lon="7.37135">
        <ele>354</ele>
        <time>2017-04-09T11:49:29Z</time>
      </trkpt>
      <trkpt lat="48.50068" lon="7.37127">
        <ele>354</ele>
        <time>2017-04-09T11:49:30Z</time>
      </trkpt>
      <trkpt lat="48.50074" lon="7.3712">
        <ele>354</ele>
        <time>2017-04-09T11:49:31Z</time>
      </trkpt>
      <trkpt lat="48.5008" lon="7.37112">
        <ele>353</ele>
        <time>2017-04-09T11:49:32Z</time>
      </trkpt>
      <trkpt lat="48.50088" lon="7.37104">
        <ele>345</ele>
        <time>2017-04-09T11:49:33Z</time>
      </trkpt>
      <trkpt lat="48.50096" lon="7.37096">
        <ele>345</ele>
        <time>2017-04-09T11:49:34Z</time>
      </trkpt>
      <trkpt lat="48.50104" lon="7.37088">
        <ele>345</ele>
        <time>2017-04-09T11:49:35Z</time>
      </trkpt>
      <trkpt lat="48.5011" lon="7.3708">
        <ele>346</ele>
        <time>2017-04-09T11:49:36Z</time>
      </trkpt>
      <trkpt lat="48.50119" lon="7.37073">
        <ele>345</ele>
        <time>2017-04-09T11:49:37Z</time>
      </trkpt>
      <trkpt lat="48.50128" lon="7.37065">
        <ele>344</ele>
        <time>2017-04-09T11:49:38Z</time>
      </trkpt>
      <trkpt lat="48.50135" lon="7.37057">
        <ele>343</ele>
        <time>2017-04-09T11:49:39Z</time>
      </trkpt>
      <trkpt lat="48.50142" lon="7.37048">
        <ele>343</ele>
        <time>2017-04-09T11:49:40Z</time>
      </trkpt>
      <trkpt lat="48.50148" lon="7.3704">
        <ele>343</ele>
        <time>2017-04-09T11:49:41Z</time>
      </trkpt>
      <trkpt lat="48.50154" lon="7.37031">
        <ele>342</ele>
        <time>2017-04-09T11:49:42Z</time>
      </trkpt>
      <trkpt lat="48.50164" lon="7.37024">
        <ele>341</ele>
        <time>2017-04-09T11:49:43Z</time>
      </trkpt>
      <trkpt lat="48.50171" lon="7.37014">
        <ele>334</ele>
        <time>2017-04-09T11:49:44Z</time>
      </trkpt>
      <trkpt lat="48.50179" lon="7.37003">
        <ele>334</ele>
        <time>2017-04-09T11:49:45Z</time>
      </trkpt>
      <trkpt lat="48.50186" lon="7.36992">
        <ele>335</ele>
        <time>2017-04-09T11:49:46Z</time>
      </trkpt>
      <trkpt lat="48.50193" lon="7.3698">
        <ele>335</ele>
        <time>2017-04-09T11:49:47Z</time>
      </trkpt>
      <trkpt lat="48.502" lon="7.3697">
        <ele>335</ele>
        <time>2017-04-09T11:49:48Z</time>
      </trkpt>
      <trkpt lat="48.50206" lon="7.3696">
        <ele>335</ele>
        <time>2017-04-09T11:49:49Z</time>
      </trkpt>
      <trkpt lat="48.50211" lon="7.3695">
        <ele>335</ele>
        <time>2017-04-09T11:49:50Z</time>
      </trkpt>
      <trkpt lat="48.50218" lon="7.36941">
        <ele>334</ele>
        <time>2017-04-09T11:49:51Z</time>
      </trkpt>
      <trkpt lat="48.50226" lon="7.36931">
        <ele>332</ele>
        <time>2017-04-09T11:49:52Z</time>
      </trkpt>
      <trkpt lat="48.50232" lon="7.36924">
        <ele>331</ele>
        <time>2017-04-09T11:49:53Z</time>
      </trkpt>
      <trkpt lat="48.50238" lon="7.36918">
        <ele>329</ele>
        <time>2017-04-09T11:49:54Z</time>
      </trkpt>
      <trkpt lat="48.50243" lon="7.36912">
        <ele>331</ele>
        <time>2017-04-09T11:49:55Z</time>
      </trkpt>
      <trkpt lat="48.50248" lon="7.36907">
        <ele>331</ele>
        <time>2017-04-09T11:49:56Z</time>
      </trkpt>
      <trkpt lat="48.50253" lon="7.36901">
        <ele>324</ele>
        <time>2017-04-09T11:49:57Z</time>
      </trkpt>
      <trkpt lat="48.5026" lon="7.36895">
        <ele>324</ele>
        <time>2017-04-09T11:49:58Z</time>
      </trkpt>
      <trkpt lat="48.50269" lon="7.3689">
        <ele>323</ele>
        <time>2017-04-09T11:49:59Z</time>
      </trkpt>
      <trkpt lat="48.50276" lon="7.36884">
        <ele>323</ele>
        <time>2017-04-09T11:50:00Z</time>
      </trkpt>
      <trkpt lat="48.50283" lon="7.36877">
        <ele>323</ele>
        <time>2017-04-09T11:50:01Z</time>
      </trkpt>
      <trkpt lat="48.5029" lon="7.36869">
        <ele>322</ele>
        <time>2017-04-09T11:50:02Z</time>
      </trkpt>
      <trkpt lat="48.50297" lon="7.3686">
        <ele>321</ele>
        <time>2017-04-09T11:50:03Z</time>
      </trkpt>
      <trkpt lat="48.5031" lon="7.36849">
        <ele>319</ele>
        <time>2017-04-09T11:50:04Z</time>
      </trkpt>
      <trkpt lat="48.50315" lon="7.36842">
        <ele>317</ele>
        <time>2017-04-09T11:50:05Z</time>
      </trkpt>
      <trkpt lat="48.50319" lon="7.36837">
        <ele>315</ele>
        <time>2017-04-09T11:50:06Z</time>
      </trkpt>
      <trkpt lat="48.50323" lon="7.36832">
        <ele>315</ele>
        <time>2017-04-09T11:50:07Z</time>
      </trkpt>
      <trkpt lat="48.50326" lon="7.36827">
        <ele>314</ele>
        <time>2017-04-09T11:50:08Z</time>
      </trkpt>
      <trkpt lat="48.50329" lon="7.36822">
        <ele>315</ele>
        <time>2017-04-09T11:50:09Z</time>
      </trkpt>
      <trkpt lat="48.5033" lon="7.36816">
        <ele>317</ele>
        <time>2017-04-09T11:50:10Z</time>
      </trkpt>
      <trkpt lat="48.50331" lon="7.36805">
        <ele>319</ele>
        <time>2017-04-09T11:50:12Z</time>
      </trkpt>
      <trkpt lat="48.50332" lon="7.36798">
        <ele>320</ele>
        <time>2017-04-09T11:50:13Z</time>
      </trkpt>
      <trkpt lat="48.50335" lon="7.3679">
        <ele>310</ele>
        <time>2017-04-09T11:50:14Z</time>
      </trkpt>
      <trkpt lat="48.50337" lon="7.36782">
        <ele>310</ele>
        <time>2017-04-09T11:50:15Z</time>
      </trkpt>
      <trkpt lat="48.5034" lon="7.36772">
        <ele>310</ele>
        <time>2017-04-09T11:50:16Z</time>
      </trkpt>
      <trkpt lat="48.50345" lon="7.36764">
        <ele>310</ele>
        <time>2017-04-09T11:50:17Z</time>
      </trkpt>
      <trkpt lat="48.5035" lon="7.36753">
        <ele>309</ele>
        <time>2017-04-09T11:50:18Z</time>
      </trkpt>
      <trkpt lat="48.50354" lon="7.36742">
        <ele>309</ele>
        <time>2017-04-09T11:50:19Z</time>
      </trkpt>
      <trkpt lat="48.50359" lon="7.36732">
        <ele>309</ele>
        <time>2017-04-09T11:50:20Z</time>
      </trkpt>
      <trkpt lat="48.50365" lon="7.36722">
        <ele>309</ele>
        <time>2017-04-09T11:50:21Z</time>
      </trkpt>
      <trkpt lat="48.50372" lon="7.36712">
        <ele>309</ele>
        <time>2017-04-09T11:50:22Z</time>
      </trkpt>
      <trkpt lat="48.50378" lon="7.36702">
        <ele>309</ele>
        <time>2017-04-09T11:50:23Z</time>
      </trkpt>
      <trkpt lat="48.50382" lon="7.36693">
        <ele>308</ele>
        <time>2017-04-09T11:50:24Z</time>
      </trkpt>
      <trkpt lat="48.50388" lon="7.36684">
        <ele>307</ele>
        <time>2017-04-09T11:50:25Z</time>
      </trkpt>
      <trkpt lat="48.50394" lon="7.36676">
        <ele>306</ele>
        <time>2017-04-09T11:50:26Z</time>
      </trkpt>
      <trkpt lat="48.50401" lon="7.36668">
        <ele>304</ele>
        <time>2017-04-09T11:50:27Z</time>
      </trkpt>
      <trkpt lat="48.50406" lon="7.36661">
        <ele>303</ele>
        <time>2017-04-09T11:50:28Z</time>
      </trkpt>
      <trkpt lat="48.50412" lon="7.36656">
        <ele>303</ele>
        <time>2017-04-09T11:50:29Z</time>
      </trkpt>
      <trkpt lat="48.50417" lon="7.3665">
        <ele>300</ele>
        <time>2017-04-09T11:50:30Z</time>
      </trkpt>
      <trkpt lat="48.50423" lon="7.36646">
        <ele>301</ele>
        <time>2017-04-09T11:50:31Z</time>
      </trkpt>
      <trkpt lat="48.50431" lon="7.36643">
        <ele>301</ele>
        <time>2017-04-09T11:50:32Z</time>
      </trkpt>
      <trkpt lat="48.50438" lon="7.3664">
        <ele>302</ele>
        <time>2017-04-09T11:50:33Z</time>
      </trkpt>
      <trkpt lat="48.50446" lon="7.3664">
        <ele>302</ele>
        <time>2017-04-09T11:50:34Z</time>
      </trkpt>
      <trkpt lat="48.50456" lon="7.36641">
        <ele>302</ele>
        <time>2017-04-09T11:50:35Z</time>
      </trkpt>
      <trkpt lat="48.50463" lon="7.36644">
        <ele>302</ele>
        <time>2017-04-09T11:50:36Z</time>
      </trkpt>
      <trkpt lat="48.50469" lon="7.36645">
        <ele>302</ele>
        <time>2017-04-09T11:50:37Z</time>
      </trkpt>
      <trkpt lat="48.50474" lon="7.36649">
        <ele>301</ele>
        <time>2017-04-09T11:50:38Z</time>
      </trkpt>
      <trkpt lat="48.50479" lon="7.36652">
        <ele>301</ele>
        <time>2017-04-09T11:50:39Z</time>
      </trkpt>
      <trkpt lat="48.50497" lon="7.36656">
        <ele>300</ele>
        <time>2017-04-09T11:50:43Z</time>
      </trkpt>
      <trkpt lat="48.50507" lon="7.36657">
        <ele>300</ele>
        <time>2017-04-09T11:50:45Z</time>
      </trkpt>
      <trkpt lat="48.50514" lon="7.36655">
        <ele>301</ele>
        <time>2017-04-09T11:50:46Z</time>
      </trkpt>
      <trkpt lat="48.5052" lon="7.36654">
        <ele>301</ele>
        <time>2017-04-09T11:50:47Z</time>
      </trkpt>
      <trkpt lat="48.50526" lon="7.36653">
        <ele>301</ele>
        <time>2017-04-09T11:50:48Z</time>
      </trkpt>
      <trkpt lat="48.50533" lon="7.3665">
        <ele>302</ele>
        <time>2017-04-09T11:50:49Z</time>
      </trkpt>
      <trkpt lat="48.50539" lon="7.36646">
        <ele>302</ele>
        <time>2017-04-09T11:50:50Z</time>
      </trkpt>
      <trkpt lat="48.50545" lon="7.36641">
        <ele>302</ele>
        <time>2017-04-09T11:50:51Z</time>
      </trkpt>
      <trkpt lat="48.50551" lon="7.36635">
        <ele>302</ele>
        <time>2017-04-09T11:50:52Z</time>
      </trkpt>
      <trkpt lat="48.50557" lon="7.36628">
        <ele>302</ele>
        <time>2017-04-09T11:50:53Z</time>
      </trkpt>
      <trkpt lat="48.50568" lon="7.36614">
        <ele>302</ele>
        <time>2017-04-09T11:50:55Z</time>
      </trkpt>
      <trkpt lat="48.50574" lon="7.36606">
        <ele>302</ele>
        <time>2017-04-09T11:50:56Z</time>
      </trkpt>
      <trkpt lat="48.50581" lon="7.36599">
        <ele>301</ele>
        <time>2017-04-09T11:50:57Z</time>
      </trkpt>
      <trkpt lat="48.50589" lon="7.36592">
        <ele>301</ele>
        <time>2017-04-09T11:50:58Z</time>
      </trkpt>
      <trkpt lat="48.50596" lon="7.36585">
        <ele>302</ele>
        <time>2017-04-09T11:50:59Z</time>
      </trkpt>
      <trkpt lat="48.50604" lon="7.36578">
        <ele>300</ele>
        <time>2017-04-09T11:51:00Z</time>
      </trkpt>
      <trkpt lat="48.5061" lon="7.3657">
        <ele>300</ele>
        <time>2017-04-09T11:51:01Z</time>
      </trkpt>
      <trkpt lat="48.50617" lon="7.36563">
        <ele>300</ele>
        <time>2017-04-09T11:51:02Z</time>
      </trkpt>
      <trkpt lat="48.50624" lon="7.36557">
        <ele>300</ele>
        <time>2017-04-09T11:51:03Z</time>
      </trkpt>
      <trkpt lat="48.50632" lon="7.36551">
        <ele>300</ele>
        <time>2017-04-09T11:51:04Z</time>
      </trkpt>
      <trkpt lat="48.50647" lon="7.36541">
        <ele>299</ele>
        <time>2017-04-09T11:51:06Z</time>
      </trkpt>
      <trkpt lat="48.50656" lon="7.36535">
        <ele>298</ele>
        <time>2017-04-09T11:51:07Z</time>
      </trkpt>
      <trkpt lat="48.50663" lon="7.3653">
        <ele>298</ele>
        <time>2017-04-09T11:51:08Z</time>
      </trkpt>
      <trkpt lat="48.5067" lon="7.36524">
        <ele>299</ele>
        <time>2017-04-09T11:51:09Z</time>
      </trkpt>
      <trkpt lat="48.50677" lon="7.36517">
        <ele>298</ele>
        <time>2017-04-09T11:51:10Z</time>
      </trkpt>
      <trkpt lat="48.50685" lon="7.36507">
        <ele>298</ele>
        <time>2017-04-09T11:51:11Z</time>
      </trkpt>
      <trkpt lat="48.50692" lon="7.36499">
        <ele>294</ele>
        <time>2017-04-09T11:51:12Z</time>
      </trkpt>
      <trkpt lat="48.50698" lon="7.36491">
        <ele>295</ele>
        <time>2017-04-09T11:51:13Z</time>
      </trkpt>
      <trkpt lat="48.50704" lon="7.36484">
        <ele>295</ele>
        <time>2017-04-09T11:51:14Z</time>
      </trkpt>
      <trkpt lat="48.50711" lon="7.36476">
        <ele>295</ele>
        <time>2017-04-09T11:51:15Z</time>
      </trkpt>
      <trkpt lat="48.50718" lon="7.36468">
        <ele>295</ele>
        <time>2017-04-09T11:51:16Z</time>
      </trkpt>
      <trkpt lat="48.50725" lon="7.36458">
        <ele>294</ele>
        <time>2017-04-09T11:51:17Z</time>
      </trkpt>
      <trkpt lat="48.50731" lon="7.36451">
        <ele>294</ele>
        <time>2017-04-09T11:51:18Z</time>
      </trkpt>
      <trkpt lat="48.50739" lon="7.36443">
        <ele>293</ele>
        <time>2017-04-09T11:51:19Z</time>
      </trkpt>
      <trkpt lat="48.50746" lon="7.36436">
        <ele>292</ele>
        <time>2017-04-09T11:51:20Z</time>
      </trkpt>
      <trkpt lat="48.50777" lon="7.36415">
        <ele>287</ele>
        <time>2017-04-09T11:51:24Z</time>
      </trkpt>
      <trkpt lat="48.50784" lon="7.36411">
        <ele>287</ele>
        <time>2017-04-09T11:51:25Z</time>
      </trkpt>
      <trkpt lat="48.50791" lon="7.36408">
        <ele>286</ele>
        <time>2017-04-09T11:51:26Z</time>
      </trkpt>
      <trkpt lat="48.50799" lon="7.36405">
        <ele>286</ele>
        <time>2017-04-09T11:51:27Z</time>
      </trkpt>
      <trkpt lat="48.50807" lon="7.36402">
        <ele>286</ele>
        <time>2017-04-09T11:51:28Z</time>
      </trkpt>
      <trkpt lat="48.50815" lon="7.36399">
        <ele>285</ele>
        <time>2017-04-09T11:51:29Z</time>
      </trkpt>
      <trkpt lat="48.50822" lon="7.36399">
        <ele>285</ele>
        <time>2017-04-09T11:51:30Z</time>
      </trkpt>
      <trkpt lat="48.5083" lon="7.36398">
        <ele>285</ele>
        <time>2017-04-09T11:51:31Z</time>
      </trkpt>
      <trkpt lat="48.50877" lon="7.36386">
        <ele>280</ele>
        <time>2017-04-09T11:51:37Z</time>
      </trkpt>
      <trkpt lat="48.50884" lon="7.36383">
        <ele>280</ele>
        <time>2017-04-09T11:51:38Z</time>
      </trkpt>
      <trkpt lat="48.50891" lon="7.3638">
        <ele>280</ele>
        <time>2017-04-09T11:51:39Z</time>
      </trkpt>
      <trkpt lat="48.50898" lon="7.36377">
        <ele>279</ele>
        <time>2017-04-09T11:51:40Z</time>
      </trkpt>
      <trkpt lat="48.50905" lon="7.36373">
        <ele>279</ele>
        <time>2017-04-09T11:51:41Z</time>
      </trkpt>
      <trkpt lat="48.50914" lon="7.36372">
        <ele>279</ele>
        <time>2017-04-09T11:51:42Z</time>
      </trkpt>
      <trkpt lat="48.50921" lon="7.36369">
        <ele>277</ele>
        <time>2017-04-09T11:51:43Z</time>
      </trkpt>
      <trkpt lat="48.50929" lon="7.36366">
        <ele>277</ele>
        <time>2017-04-09T11:51:44Z</time>
      </trkpt>
      <trkpt lat="48.50935" lon="7.36362">
        <ele>276</ele>
        <time>2017-04-09T11:51:45Z</time>
      </trkpt>
      <trkpt lat="48.50944" lon="7.3636">
        <ele>276</ele>
        <time>2017-04-09T11:51:46Z</time>
      </trkpt>
      <trkpt lat="48.50952" lon="7.36358">
        <ele>276</ele>
        <time>2017-04-09T11:51:47Z</time>
      </trkpt>
      <trkpt lat="48.50961" lon="7.36355">
        <ele>276</ele>
        <time>2017-04-09T11:51:48Z</time>
      </trkpt>
      <trkpt lat="48.50968" lon="7.36351">
        <ele>275</ele>
        <time>2017-04-09T11:51:49Z</time>
      </trkpt>
      <trkpt lat="48.50976" lon="7.36349">
        <ele>275</ele>
        <time>2017-04-09T11:51:50Z</time>
      </trkpt>
      <trkpt lat="48.50984" lon="7.36346">
        <ele>274</ele>
        <time>2017-04-09T11:51:51Z</time>
      </trkpt>
      <trkpt lat="48.50992" lon="7.36343">
        <ele>272</ele>
        <time>2017-04-09T11:51:52Z</time>
      </trkpt>
      <trkpt lat="48.51001" lon="7.36341">
        <ele>271</ele>
        <time>2017-04-09T11:51:53Z</time>
      </trkpt>
      <trkpt lat="48.51011" lon="7.3634">
        <ele>271</ele>
        <time>2017-04-09T11:51:54Z</time>
      </trkpt>
      <trkpt lat="48.51019" lon="7.36339">
        <ele>272</ele>
        <time>2017-04-09T11:51:55Z</time>
      </trkpt>
      <trkpt lat="48.51028" lon="7.3634">
        <ele>273</ele>
        <time>2017-04-09T11:51:56Z</time>
      </trkpt>
      <trkpt lat="48.51037" lon="7.3634">
        <ele>273</ele>
        <time>2017-04-09T11:51:57Z</time>
      </trkpt>
      <trkpt lat="48.51046" lon="7.3634">
        <ele>273</ele>
        <time>2017-04-09T11:51:58Z</time>
      </trkpt>
      <trkpt lat="48.51054" lon="7.36341">
        <ele>273</ele>
        <time>2017-04-09T11:51:59Z</time>
      </trkpt>
      <trkpt lat="48.51073" lon="7.36342">
        <ele>270</ele>
        <time>2017-04-09T11:52:02Z</time>
      </trkpt>
      <trkpt lat="48.51093" lon="7.36343">
        <ele>268</ele>
        <time>2017-04-09T11:52:05Z</time>
      </trkpt>
      <trkpt lat="48.511" lon="7.36343">
        <ele>268</ele>
        <time>2017-04-09T11:52:06Z</time>
      </trkpt>
      <trkpt lat="48.51109" lon="7.36344">
        <ele>269</ele>
        <time>2017-04-09T11:52:07Z</time>
      </trkpt>
      <trkpt lat="48.51116" lon="7.36344">
        <ele>269</ele>
        <time>2017-04-09T11:52:08Z</time>
      </trkpt>
      <trkpt lat="48.51123" lon="7.36345">
        <ele>269</ele>
        <time>2017-04-09T11:52:09Z</time>
      </trkpt>
      <trkpt lat="48.5113" lon="7.36346">
        <ele>268</ele>
        <time>2017-04-09T11:52:10Z</time>
      </trkpt>
      <trkpt lat="48.51138" lon="7.36346">
        <ele>267</ele>
        <time>2017-04-09T11:52:11Z</time>
      </trkpt>
      <trkpt lat="48.51146" lon="7.36347">
        <ele>266</ele>
        <time>2017-04-09T11:52:12Z</time>
      </trkpt>
      <trkpt lat="48.51154" lon="7.36346">
        <ele>265</ele>
        <time>2017-04-09T11:52:13Z</time>
      </trkpt>
      <trkpt lat="48.51162" lon="7.36345">
        <ele>264</ele>
        <time>2017-04-09T11:52:14Z</time>
      </trkpt>
      <trkpt lat="48.51171" lon="7.36346">
        <ele>261</ele>
        <time>2017-04-09T11:52:15Z</time>
      </trkpt>
      <trkpt lat="48.5118" lon="7.36346">
        <ele>261</ele>
        <time>2017-04-09T11:52:16Z</time>
      </trkpt>
      <trkpt lat="48.51189" lon="7.36347">
        <ele>262</ele>
        <time>2017-04-09T11:52:17Z</time>
      </trkpt>
      <trkpt lat="48.51197" lon="7.36348">
        <ele>262</ele>
        <time>2017-04-09T11:52:18Z</time>
      </trkpt>
      <trkpt lat="48.51206" lon="7.36349">
        <ele>262</ele>
        <time>2017-04-09T11:52:19Z</time>
      </trkpt>
      <trkpt lat="48.51214" lon="7.36351">
        <ele>262</ele>
        <time>2017-04-09T11:52:20Z</time>
      </trkpt>
      <trkpt lat="48.51224" lon="7.36352">
        <ele>262</ele>
        <time>2017-04-09T11:52:21Z</time>
      </trkpt>
      <trkpt lat="48.51232" lon="7.36352">
        <ele>261</ele>
        <time>2017-04-09T11:52:22Z</time>
      </trkpt>
      <trkpt lat="48.51242" lon="7.36354">
        <ele>261</ele>
        <time>2017-04-09T11:52:23Z</time>
      </trkpt>
      <trkpt lat="48.51252" lon="7.36355">
        <ele>259</ele>
        <time>2017-04-09T11:52:24Z</time>
      </trkpt>
      <trkpt lat="48.51261" lon="7.36356">
        <ele>260</ele>
        <time>2017-04-09T11:52:25Z</time>
      </trkpt>
      <trkpt lat="48.51271" lon="7.36357">
        <ele>260</ele>
        <time>2017-04-09T11:52:26Z</time>
      </trkpt>
      <trkpt lat="48.51281" lon="7.36358">
        <ele>260</ele>
        <time>2017-04-09T11:52:27Z</time>
      </trkpt>
      <trkpt lat="48.5129" lon="7.36356">
        <ele>260</ele>
        <time>2017-04-09T11:52:28Z</time>
      </trkpt>
      <trkpt lat="48.513" lon="7.36355">
        <ele>260</ele>
        <time>2017-04-09T11:52:29Z</time>
      </trkpt>
      <trkpt lat="48.5131" lon="7.36353">
        <ele>260</ele>
        <time>2017-04-09T11:52:30Z</time>
      </trkpt>
      <trkpt lat="48.51318" lon="7.36352">
        <ele>259</ele>
        <time>2017-04-09T11:52:31Z</time>
      </trkpt>
      <trkpt lat="48.51328" lon="7.36349">
        <ele>258</ele>
        <time>2017-04-09T11:52:32Z</time>
      </trkpt>
      <trkpt lat="48.51338" lon="7.36346">
        <ele>258</ele>
        <time>2017-04-09T11:52:33Z</time>
      </trkpt>
      <trkpt lat="48.51346" lon="7.36341">
        <ele>259</ele>
        <time>2017-04-09T11:52:34Z</time>
      </trkpt>
      <trkpt lat="48.51354" lon="7.36337">
        <ele>259</ele>
        <time>2017-04-09T11:52:35Z</time>
      </trkpt>
      <trkpt lat="48.51374" lon="7.36329">
        <ele>253</ele>
        <time>2017-04-09T11:52:38Z</time>
      </trkpt>
      <trkpt lat="48.5138" lon="7.36329">
        <ele>253</ele>
        <time>2017-04-09T11:52:39Z</time>
      </trkpt>
      <trkpt lat="48.51401" lon="7.36334">
        <ele>258</ele>
        <time>2017-04-09T11:52:42Z</time>
      </trkpt>
      <trkpt lat="48.51407" lon="7.36336">
        <ele>257</ele>
        <time>2017-04-09T11:52:43Z</time>
      </trkpt>
      <trkpt lat="48.5144" lon="7.36336">
        <ele>258</ele>
        <time>2017-04-09T11:52:48Z</time>
      </trkpt>
      <trkpt lat="48.51447" lon="7.36336">
        <ele>258</ele>
        <time>2017-04-09T11:52:49Z</time>
      </trkpt>
      <trkpt lat="48.51454" lon="7.36337">
        <ele>258</ele>
        <time>2017-04-09T11:52:50Z</time>
      </trkpt>
      <trkpt lat="48.51462" lon="7.36337">
        <ele>258</ele>
        <time>2017-04-09T11:52:51Z</time>
      </trkpt>
      <trkpt lat="48.51469" lon="7.36336">
        <ele>257</ele>
        <time>2017-04-09T11:52:52Z</time>
      </trkpt>
      <trkpt lat="48.51477" lon="7.36335">
        <ele>256</ele>
        <time>2017-04-09T11:52:53Z</time>
      </trkpt>
      <trkpt lat="48.51484" lon="7.36335">
        <ele>255</ele>
        <time>2017-04-09T11:52:54Z</time>
      </trkpt>
      <trkpt lat="48.51491" lon="7.36334">
        <ele>253</ele>
        <time>2017-04-09T11:52:55Z</time>
      </trkpt>
      <trkpt lat="48.51499" lon="7.36334">
        <ele>250</ele>
        <time>2017-04-09T11:52:56Z</time>
      </trkpt>
      <trkpt lat="48.51506" lon="7.36334">
        <ele>250</ele>
        <time>2017-04-09T11:52:57Z</time>
      </trkpt>
      <trkpt lat="48.5152" lon="7.36337">
        <ele>251</ele>
        <time>2017-04-09T11:52:59Z</time>
      </trkpt>
      <trkpt lat="48.51527" lon="7.36339">
        <ele>252</ele>
        <time>2017-04-09T11:53:00Z</time>
      </trkpt>
      <trkpt lat="48.51564" lon="7.36357">
        <ele>251</ele>
        <time>2017-04-09T11:53:06Z</time>
      </trkpt>
      <trkpt lat="48.51588" lon="7.36373">
        <ele>244</ele>
        <time>2017-04-09T11:53:11Z</time>
      </trkpt>
      <trkpt lat="48.51592" lon="7.36378">
        <ele>244</ele>
        <time>2017-04-09T11:53:12Z</time>
      </trkpt>
      <trkpt lat="48.51622" lon="7.36411">
        <ele>243</ele>
        <time>2017-04-09T11:53:18Z</time>
      </trkpt>
      <trkpt lat="48.51641" lon="7.36431">
        <ele>245</ele>
        <time>2017-04-09T11:53:22Z</time>
      </trkpt>
      <trkpt lat="48.51645" lon="7.36437">
        <ele>245</ele>
        <time>2017-04-09T11:53:23Z</time>
      </trkpt>
      <trkpt lat="48.51649" lon="7.36443">
        <ele>245</ele>
        <time>2017-04-09T11:53:24Z</time>
      </trkpt>
      <trkpt lat="48.51654" lon="7.36449">
        <ele>245</ele>
        <time>2017-04-09T11:53:25Z</time>
      </trkpt>
      <trkpt lat="48.51659" lon="7.36455">
        <ele>246</ele>
        <time>2017-04-09T11:53:26Z</time>
      </trkpt>
      <trkpt lat="48.51664" lon="7.36459">
        <ele>246</ele>
        <time>2017-04-09T11:53:27Z</time>
      </trkpt>
      <trkpt lat="48.51672" lon="7.36465">
        <ele>238</ele>
        <time>2017-04-09T11:53:29Z</time>
      </trkpt>
      <trkpt lat="48.51696" lon="7.36479">
        <ele>237</ele>
        <time>2017-04-09T11:53:34Z</time>
      </trkpt>
      <trkpt lat="48.51715" lon="7.36491">
        <ele>236</ele>
        <time>2017-04-09T11:53:38Z</time>
      </trkpt>
      <trkpt lat="48.51719" lon="7.36494">
        <ele>236</ele>
        <time>2017-04-09T11:53:39Z</time>
      </trkpt>
      <trkpt lat="48.51725" lon="7.36498">
        <ele>235</ele>
        <time>2017-04-09T11:53:40Z</time>
      </trkpt>
      <trkpt lat="48.51728" lon="7.36501">
        <ele>239</ele>
        <time>2017-04-09T11:53:41Z</time>
      </trkpt>
      <trkpt lat="48.51734" lon="7.36505">
        <ele>239</ele>
        <time>2017-04-09T11:53:42Z</time>
      </trkpt>
      <trkpt lat="48.51761" lon="7.36528">
        <ele>233</ele>
        <time>2017-04-09T11:53:47Z</time>
      </trkpt>
      <trkpt lat="48.51792" lon="7.36556">
        <ele>232</ele>
        <time>2017-04-09T11:53:53Z</time>
      </trkpt>
      <trkpt lat="48.51798" lon="7.36561">
        <ele>232</ele>
        <time>2017-04-09T11:53:54Z</time>
      </trkpt>
      <trkpt lat="48.51804" lon="7.36566">
        <ele>231</ele>
        <time>2017-04-09T11:53:55Z</time>
      </trkpt>
      <trkpt lat="48.5181" lon="7.3657">
        <ele>231</ele>
        <time>2017-04-09T11:53:56Z</time>
      </trkpt>
      <trkpt lat="48.51815" lon="7.36575">
        <ele>230</ele>
        <time>2017-04-09T11:53:57Z</time>
      </trkpt>
      <trkpt lat="48.51825" lon="7.36586">
        <ele>231</ele>
        <time>2017-04-09T11:53:59Z</time>
      </trkpt>
      <trkpt lat="48.51834" lon="7.36598">
        <ele>227</ele>
        <time>2017-04-09T11:54:01Z</time>
      </trkpt>
      <trkpt lat="48.51838" lon="7.36606">
        <ele>227</ele>
        <time>2017-04-09T11:54:02Z</time>
      </trkpt>
      <trkpt lat="48.51842" lon="7.36614">
        <ele>227</ele>
        <time>2017-04-09T11:54:03Z</time>
      </trkpt>
      <trkpt lat="48.51844" lon="7.36622">
        <ele>227</ele>
        <time>2017-04-09T11:54:04Z</time>
      </trkpt>
      <trkpt lat="48.51848" lon="7.36631">
        <ele>227</ele>
        <time>2017-04-09T11:54:05Z</time>
      </trkpt>
      <trkpt lat="48.51851" lon="7.36639">
        <ele>227</ele>
        <time>2017-04-09T11:54:06Z</time>
      </trkpt>
      <trkpt lat="48.51855" lon="7.36648">
        <ele>227</ele>
        <time>2017-04-09T11:54:07Z</time>
      </trkpt>
      <trkpt lat="48.51862" lon="7.36672">
        <ele>229</ele>
        <time>2017-04-09T11:54:10Z</time>
      </trkpt>
      <trkpt lat="48.51869" lon="7.36697">
        <ele>229</ele>
        <time>2017-04-09T11:54:13Z</time>
      </trkpt>
      <trkpt lat="48.51873" lon="7.36736">
        <ele>229</ele>
        <time>2017-04-09T11:54:18Z</time>
      </trkpt>
      <trkpt lat="48.51873" lon="7.36744">
        <ele>229</ele>
        <time>2017-04-09T11:54:19Z</time>
      </trkpt>
      <trkpt lat="48.51876" lon="7.36799">
        <ele>232</ele>
        <time>2017-04-09T11:54:27Z</time>
      </trkpt>
      <trkpt lat="48.51881" lon="7.36847">
        <ele>234</ele>
        <time>2017-04-09T11:54:35Z</time>
      </trkpt>
      <trkpt lat="48.51888" lon="7.36896">
        <ele>234</ele>
        <time>2017-04-09T11:54:43Z</time>
      </trkpt>
      <trkpt lat="48.51898" lon="7.36936">
        <ele>235</ele>
        <time>2017-04-09T11:54:50Z</time>
      </trkpt>
      <trkpt lat="48.51907" lon="7.36972">
        <ele>237</ele>
        <time>2017-04-09T11:54:55Z</time>
      </trkpt>
      <trkpt lat="48.51909" lon="7.36981">
        <ele>236</ele>
        <time>2017-04-09T11:54:56Z</time>
      </trkpt>
      <trkpt lat="48.51913" lon="7.36998">
        <ele>232</ele>
        <time>2017-04-09T11:54:58Z</time>
      </trkpt>
      <trkpt lat="48.51916" lon="7.37008">
        <ele>236</ele>
        <time>2017-04-09T11:54:59Z</time>
      </trkpt>
      <trkpt lat="48.5192" lon="7.37016">
        <ele>230</ele>
        <time>2017-04-09T11:55:00Z</time>
      </trkpt>
      <trkpt lat="48.51924" lon="7.37025">
        <ele>230</ele>
        <time>2017-04-09T11:55:01Z</time>
      </trkpt>
      <trkpt lat="48.51926" lon="7.37033">
        <ele>231</ele>
        <time>2017-04-09T11:55:02Z</time>
      </trkpt>
      <trkpt lat="48.5193" lon="7.37042">
        <ele>231</ele>
        <time>2017-04-09T11:55:03Z</time>
      </trkpt>
      <trkpt lat="48.51933" lon="7.37049">
        <ele>232</ele>
        <time>2017-04-09T11:55:04Z</time>
      </trkpt>
      <trkpt lat="48.51936" lon="7.37056">
        <ele>232</ele>
        <time>2017-04-09T11:55:05Z</time>
      </trkpt>
      <trkpt lat="48.51942" lon="7.3707">
        <ele>233</ele>
        <time>2017-04-09T11:55:07Z</time>
      </trkpt>
      <trkpt lat="48.51946" lon="7.37077">
        <ele>233</ele>
        <time>2017-04-09T11:55:08Z</time>
      </trkpt>
      <trkpt lat="48.51949" lon="7.37083">
        <ele>232</ele>
        <time>2017-04-09T11:55:09Z</time>
      </trkpt>
      <trkpt lat="48.51952" lon="7.3709">
        <ele>239</ele>
        <time>2017-04-09T11:55:10Z</time>
      </trkpt>
      <trkpt lat="48.51955" lon="7.37095">
        <ele>239</ele>
        <time>2017-04-09T11:55:11Z</time>
      </trkpt>
      <trkpt lat="48.51958" lon="7.371">
        <ele>238</ele>
        <time>2017-04-09T11:55:12Z</time>
      </trkpt>
      <trkpt lat="48.51977" lon="7.37139">
        <ele>239</ele>
        <time>2017-04-09T11:55:19Z</time>
      </trkpt>
      <trkpt lat="48.51989" lon="7.37168">
        <ele>244</ele>
        <time>2017-04-09T11:55:24Z</time>
      </trkpt>
      <trkpt lat="48.52001" lon="7.37197">
        <ele>235</ele>
        <time>2017-04-09T11:55:30Z</time>
      </trkpt>
      <trkpt lat="48.52015" lon="7.37221">
        <ele>237</ele>
        <time>2017-04-09T11:55:35Z</time>
      </trkpt>
      <trkpt lat="48.5204" lon="7.37254">
        <ele>243</ele>
        <time>2017-04-09T11:55:41Z</time>
      </trkpt>
      <trkpt lat="48.52048" lon="7.37265">
        <ele>241</ele>
        <time>2017-04-09T11:55:43Z</time>
      </trkpt>
      <trkpt lat="48.52061" lon="7.37283">
        <ele>241</ele>
        <time>2017-04-09T11:55:47Z</time>
      </trkpt>
      <trkpt lat="48.52064" lon="7.37287">
        <ele>241</ele>
        <time>2017-04-09T11:55:48Z</time>
      </trkpt>
      <trkpt lat="48.52066" lon="7.37291">
        <ele>241</ele>
        <time>2017-04-09T11:55:49Z</time>
      </trkpt>
      <trkpt lat="48.52071" lon="7.37298">
        <ele>241</ele>
        <time>2017-04-09T11:55:50Z</time>
      </trkpt>
      <trkpt lat="48.52074" lon="7.37302">
        <ele>241</ele>
        <time>2017-04-09T11:55:51Z</time>
      </trkpt>
      <trkpt lat="48.52079" lon="7.37314">
        <ele>241</ele>
        <time>2017-04-09T11:55:54Z</time>
      </trkpt>
      <trkpt lat="48.52093" lon="7.37343">
        <ele>236</ele>
        <time>2017-04-09T11:56:01Z</time>
      </trkpt>
      <trkpt lat="48.52097" lon="7.3736">
        <ele>237</ele>
        <time>2017-04-09T11:56:06Z</time>
      </trkpt>
      <trkpt lat="48.52099" lon="7.37362">
        <ele>237</ele>
        <time>2017-04-09T11:56:07Z</time>
      </trkpt>
      <trkpt lat="48.52101" lon="7.37365">
        <ele>237</ele>
        <time>2017-04-09T11:56:08Z</time>
      </trkpt>
      <trkpt lat="48.52103" lon="7.37367">
        <ele>237</ele>
        <time>2017-04-09T11:56:09Z</time>
      </trkpt>
      <trkpt lat="48.52106" lon="7.3737">
        <ele>237</ele>
        <time>2017-04-09T11:56:10Z</time>
      </trkpt>
      <trkpt lat="48.52117" lon="7.37382">
        <ele>237</ele>
        <time>2017-04-09T11:56:13Z</time>
      </trkpt>
      <trkpt lat="48.52138" lon="7.37401">
        <ele>235</ele>
        <time>2017-04-09T11:56:18Z</time>
      </trkpt>
      <trkpt lat="48.52142" lon="7.37405">
        <ele>235</ele>
        <time>2017-04-09T11:56:19Z</time>
      </trkpt>
      <trkpt lat="48.52146" lon="7.37409">
        <ele>234</ele>
        <time>2017-04-09T11:56:20Z</time>
      </trkpt>
      <trkpt lat="48.52152" lon="7.37418">
        <ele>242</ele>
        <time>2017-04-09T11:56:21Z</time>
      </trkpt>
      <trkpt lat="48.52155" lon="7.37424">
        <ele>241</ele>
        <time>2017-04-09T11:56:22Z</time>
      </trkpt>
      <trkpt lat="48.52163" lon="7.37438">
        <ele>245</ele>
        <time>2017-04-09T11:56:25Z</time>
      </trkpt>
      <trkpt lat="48.52179" lon="7.37465">
        <ele>237</ele>
        <time>2017-04-09T11:56:31Z</time>
      </trkpt>
      <trkpt lat="48.52194" lon="7.37488">
        <ele>238</ele>
        <time>2017-04-09T11:56:36Z</time>
      </trkpt>
      <trkpt lat="48.52211" lon="7.37514">
        <ele>244</ele>
        <time>2017-04-09T11:56:42Z</time>
      </trkpt>
      <trkpt lat="48.52215" lon="7.3752">
        <ele>244</ele>
        <time>2017-04-09T11:56:43Z</time>
      </trkpt>
      <trkpt lat="48.5222" lon="7.37526">
        <ele>243</ele>
        <time>2017-04-09T11:56:44Z</time>
      </trkpt>
      <trkpt lat="48.52224" lon="7.37532">
        <ele>243</ele>
        <time>2017-04-09T11:56:45Z</time>
      </trkpt>
      <trkpt lat="48.52228" lon="7.37538">
        <ele>243</ele>
        <time>2017-04-09T11:56:46Z</time>
      </trkpt>
      <trkpt lat="48.52232" lon="7.37544">
        <ele>243</ele>
        <time>2017-04-09T11:56:47Z</time>
      </trkpt>
      <trkpt lat="48.52236" lon="7.37551">
        <ele>243</ele>
        <time>2017-04-09T11:56:48Z</time>
      </trkpt>
      <trkpt lat="48.5224" lon="7.37557">
        <ele>243</ele>
        <time>2017-04-09T11:56:49Z</time>
      </trkpt>
      <trkpt lat="48.52247" lon="7.37563">
        <ele>242</ele>
        <time>2017-04-09T11:56:50Z</time>
      </trkpt>
      <trkpt lat="48.52253" lon="7.37569">
        <ele>232</ele>
        <time>2017-04-09T11:56:51Z</time>
      </trkpt>
      <trkpt lat="48.52266" lon="7.37588">
        <ele>236</ele>
        <time>2017-04-09T11:56:53Z</time>
      </trkpt>
      <trkpt lat="48.52282" lon="7.37609">
        <ele>235</ele>
        <time>2017-04-09T11:56:57Z</time>
      </trkpt>
      <trkpt lat="48.52303" lon="7.37643">
        <ele>235</ele>
        <time>2017-04-09T11:57:04Z</time>
      </trkpt>
      <trkpt lat="48.52317" lon="7.37667">
        <ele>239</ele>
        <time>2017-04-09T11:57:10Z</time>
      </trkpt>
      <trkpt lat="48.52325" lon="7.37674">
        <ele>237</ele>
        <time>2017-04-09T11:57:11Z</time>
      </trkpt>
      <trkpt lat="48.52339" lon="7.37686">
        <ele>230</ele>
        <time>2017-04-09T11:57:13Z</time>
      </trkpt>
      <trkpt lat="48.52343" lon="7.3769">
        <ele>230</ele>
        <time>2017-04-09T11:57:14Z</time>
      </trkpt>
      <trkpt lat="48.52353" lon="7.377">
        <ele>230</ele>
        <time>2017-04-09T11:57:15Z</time>
      </trkpt>
      <trkpt lat="48.52362" lon="7.37707">
        <ele>230</ele>
        <time>2017-04-09T11:57:16Z</time>
      </trkpt>
      <trkpt lat="48.52369" lon="7.37717">
        <ele>230</ele>
        <time>2017-04-09T11:57:17Z</time>
      </trkpt>
      <trkpt lat="48.52389" lon="7.37761">
        <ele>237</ele>
        <time>2017-04-09T11:57:22Z</time>
      </trkpt>
      <trkpt lat="48.52396" lon="7.37778">
        <ele>238</ele>
        <time>2017-04-09T11:57:24Z</time>
      </trkpt>
      <trkpt lat="48.52406" lon="7.37791">
        <ele>238</ele>
        <time>2017-04-09T11:57:26Z</time>
      </trkpt>
      <trkpt lat="48.52425" lon="7.37815">
        <ele>230</ele>
        <time>2017-04-09T11:57:30Z</time>
      </trkpt>
      <trkpt lat="48.52435" lon="7.37826">
        <ele>230</ele>
        <time>2017-04-09T11:57:32Z</time>
      </trkpt>
      <trkpt lat="48.52447" lon="7.37842">
        <ele>234</ele>
        <time>2017-04-09T11:57:35Z</time>
      </trkpt>
      <trkpt lat="48.52456" lon="7.37852">
        <ele>234</ele>
        <time>2017-04-09T11:57:37Z</time>
      </trkpt>
      <trkpt lat="48.52469" lon="7.37867">
        <ele>233</ele>
        <time>2017-04-09T11:57:40Z</time>
      </trkpt>
      <trkpt lat="48.52492" lon="7.37894">
        <ele>232</ele>
        <time>2017-04-09T11:57:46Z</time>
      </trkpt>
      <trkpt lat="48.52505" lon="7.37913">
        <ele>228</ele>
        <time>2017-04-09T11:57:51Z</time>
      </trkpt>
      <trkpt lat="48.52528" lon="7.37954">
        <ele>230</ele>
        <time>2017-04-09T11:57:58Z</time>
      </trkpt>
      <trkpt lat="48.52544" lon="7.37976">
        <ele>230</ele>
        <time>2017-04-09T11:58:03Z</time>
      </trkpt>
      <trkpt lat="48.52557" lon="7.37996">
        <ele>229</ele>
        <time>2017-04-09T11:58:08Z</time>
      </trkpt>
      <trkpt lat="48.52579" lon="7.38021">
        <ele>231</ele>
        <time>2017-04-09T11:58:14Z</time>
      </trkpt>
      <trkpt lat="48.52601" lon="7.38042">
        <ele>223</ele>
        <time>2017-04-09T11:58:19Z</time>
      </trkpt>
      <trkpt lat="48.52611" lon="7.38051">
        <ele>223</ele>
        <time>2017-04-09T11:58:21Z</time>
      </trkpt>
      <trkpt lat="48.52629" lon="7.38065">
        <ele>222</ele>
        <time>2017-04-09T11:58:24Z</time>
      </trkpt>
      <trkpt lat="48.52637" lon="7.3807">
        <ele>222</ele>
        <time>2017-04-09T11:58:25Z</time>
      </trkpt>
      <trkpt lat="48.52645" lon="7.38076">
        <ele>221</ele>
        <time>2017-04-09T11:58:26Z</time>
      </trkpt>
      <trkpt lat="48.52653" lon="7.38085">
        <ele>220</ele>
        <time>2017-04-09T11:58:27Z</time>
      </trkpt>
      <trkpt lat="48.52659" lon="7.38093">
        <ele>220</ele>
        <time>2017-04-09T11:58:28Z</time>
      </trkpt>
      <trkpt lat="48.52666" lon="7.38101">
        <ele>220</ele>
        <time>2017-04-09T11:58:29Z</time>
      </trkpt>
      <trkpt lat="48.52671" lon="7.38108">
        <ele>218</ele>
        <time>2017-04-09T11:58:30Z</time>
      </trkpt>
      <trkpt lat="48.52677" lon="7.38114">
        <ele>218</ele>
        <time>2017-04-09T11:58:31Z</time>
      </trkpt>
      <trkpt lat="48.52683" lon="7.3812">
        <ele>218</ele>
        <time>2017-04-09T11:58:32Z</time>
      </trkpt>
      <trkpt lat="48.52689" lon="7.38126">
        <ele>218</ele>
        <time>2017-04-09T11:58:33Z</time>
      </trkpt>
      <trkpt lat="48.52704" lon="7.38142">
        <ele>218</ele>
        <time>2017-04-09T11:58:36Z</time>
      </trkpt>
      <trkpt lat="48.52745" lon="7.38186">
        <ele>217</ele>
        <time>2017-04-09T11:58:45Z</time>
      </trkpt>
      <trkpt lat="48.52754" lon="7.38207">
        <ele>216</ele>
        <time>2017-04-09T11:58:48Z</time>
      </trkpt>
      <trkpt lat="48.5276" lon="7.3822">
        <ele>217</ele>
        <time>2017-04-09T11:58:50Z</time>
      </trkpt>
      <trkpt lat="48.52775" lon="7.38249">
        <ele>217</ele>
        <time>2017-04-09T11:58:55Z</time>
      </trkpt>
      <trkpt lat="48.5278" lon="7.38252">
        <ele>218</ele>
        <time>2017-04-09T11:58:56Z</time>
      </trkpt>
      <trkpt lat="48.52794" lon="7.3825">
        <ele>217</ele>
        <time>2017-04-09T11:58:59Z</time>
      </trkpt>
      <trkpt lat="48.52811" lon="7.38236">
        <ele>217</ele>
        <time>2017-04-09T11:59:03Z</time>
      </trkpt>
      <trkpt lat="48.52816" lon="7.38238">
        <ele>217</ele>
        <time>2017-04-09T11:59:04Z</time>
      </trkpt>
      <trkpt lat="48.52842" lon="7.38266">
        <ele>218</ele>
        <time>2017-04-09T11:59:11Z</time>
      </trkpt>
      <trkpt lat="48.52869" lon="7.38301">
        <ele>219</ele>
        <time>2017-04-09T11:59:18Z</time>
      </trkpt>
      <trkpt lat="48.52894" lon="7.38337">
        <ele>225</ele>
        <time>2017-04-09T11:59:24Z</time>
      </trkpt>
      <trkpt lat="48.52905" lon="7.38353">
        <ele>226</ele>
        <time>2017-04-09T11:59:27Z</time>
      </trkpt>
      <trkpt lat="48.5291" lon="7.38358">
        <ele>226</ele>
        <time>2017-04-09T11:59:28Z</time>
      </trkpt>
      <trkpt lat="48.52913" lon="7.38363">
        <ele>227</ele>
        <time>2017-04-09T11:59:29Z</time>
      </trkpt>
      <trkpt lat="48.52916" lon="7.38368">
        <ele>228</ele>
        <time>2017-04-09T11:59:30Z</time>
      </trkpt>
      <trkpt lat="48.52919" lon="7.38374">
        <ele>224</ele>
        <time>2017-04-09T11:59:31Z</time>
      </trkpt>
      <trkpt lat="48.52931" lon="7.38397">
        <ele>227</ele>
        <time>2017-04-09T11:59:36Z</time>
      </trkpt>
      <trkpt lat="48.52934" lon="7.38402">
        <ele>227</ele>
        <time>2017-04-09T11:59:37Z</time>
      </trkpt>
      <trkpt lat="48.52936" lon="7.38407">
        <ele>228</ele>
        <time>2017-04-09T11:59:38Z</time>
      </trkpt>
      <trkpt lat="48.52939" lon="7.38412">
        <ele>228</ele>
        <time>2017-04-09T11:59:39Z</time>
      </trkpt>
      <trkpt lat="48.52941" lon="7.38417">
        <ele>235</ele>
        <time>2017-04-09T11:59:40Z</time>
      </trkpt>
      <trkpt lat="48.52948" lon="7.38435">
        <ele>235</ele>
        <time>2017-04-09T11:59:43Z</time>
      </trkpt>
      <trkpt lat="48.52951" lon="7.3844">
        <ele>235</ele>
        <time>2017-04-09T11:59:44Z</time>
      </trkpt>
      <trkpt lat="48.52953" lon="7.38446">
        <ele>236</ele>
        <time>2017-04-09T11:59:45Z</time>
      </trkpt>
      <trkpt lat="48.52955" lon="7.38452">
        <ele>236</ele>
        <time>2017-04-09T11:59:46Z</time>
      </trkpt>
      <trkpt lat="48.52958" lon="7.38458">
        <ele>236</ele>
        <time>2017-04-09T11:59:47Z</time>
      </trkpt>
      <trkpt lat="48.52974" lon="7.38494">
        <ele>234</ele>
        <time>2017-04-09T11:59:53Z</time>
      </trkpt>
      <trkpt lat="48.53005" lon="7.38556">
        <ele>230</ele>
        <time>2017-04-09T12:00:03Z</time>
      </trkpt>
      <trkpt lat="48.53031" lon="7.38605">
        <ele>235</ele>
        <time>2017-04-09T12:00:11Z</time>
      </trkpt>
      <trkpt lat="48.53055" lon="7.38656">
        <ele>232</ele>
        <time>2017-04-09T12:00:19Z</time>
      </trkpt>
      <trkpt lat="48.53078" lon="7.38722">
        <ele>240</ele>
        <time>2017-04-09T12:00:29Z</time>
      </trkpt>
      <trkpt lat="48.53091" lon="7.38769">
        <ele>230</ele>
        <time>2017-04-09T12:00:36Z</time>
      </trkpt>
      <trkpt lat="48.53093" lon="7.38777">
        <ele>229</ele>
        <time>2017-04-09T12:00:37Z</time>
      </trkpt>
      <trkpt lat="48.53095" lon="7.38786">
        <ele>229</ele>
        <time>2017-04-09T12:00:38Z</time>
      </trkpt>
      <trkpt lat="48.53099" lon="7.38795">
        <ele>229</ele>
        <time>2017-04-09T12:00:39Z</time>
      </trkpt>
      <trkpt lat="48.53103" lon="7.38805">
        <ele>230</ele>
        <time>2017-04-09T12:00:40Z</time>
      </trkpt>
      <trkpt lat="48.53106" lon="7.38817">
        <ele>230</ele>
        <time>2017-04-09T12:00:41Z</time>
      </trkpt>
      <trkpt lat="48.5311" lon="7.38829">
        <ele>231</ele>
        <time>2017-04-09T12:00:42Z</time>
      </trkpt>
      <trkpt lat="48.53113" lon="7.38842">
        <ele>231</ele>
        <time>2017-04-09T12:00:43Z</time>
      </trkpt>
      <trkpt lat="48.53117" lon="7.38856">
        <ele>230</ele>
        <time>2017-04-09T12:00:44Z</time>
      </trkpt>
      <trkpt lat="48.5312" lon="7.38871">
        <ele>229</ele>
        <time>2017-04-09T12:00:45Z</time>
      </trkpt>
      <trkpt lat="48.53122" lon="7.38886">
        <ele>229</ele>
        <time>2017-04-09T12:00:46Z</time>
      </trkpt>
      <trkpt lat="48.53124" lon="7.38902">
        <ele>229</ele>
        <time>2017-04-09T12:00:47Z</time>
      </trkpt>
      <trkpt lat="48.53126" lon="7.38916">
        <ele>228</ele>
        <time>2017-04-09T12:00:48Z</time>
      </trkpt>
      <trkpt lat="48.53129" lon="7.3893">
        <ele>229</ele>
        <time>2017-04-09T12:00:49Z</time>
      </trkpt>
      <trkpt lat="48.53132" lon="7.38944">
        <ele>229</ele>
        <time>2017-04-09T12:00:50Z</time>
      </trkpt>
      <trkpt lat="48.53136" lon="7.38958">
        <ele>228</ele>
        <time>2017-04-09T12:00:51Z</time>
      </trkpt>
      <trkpt lat="48.53141" lon="7.38971">
        <ele>227</ele>
        <time>2017-04-09T12:00:52Z</time>
      </trkpt>
      <trkpt lat="48.53145" lon="7.38999">
        <ele>225</ele>
        <time>2017-04-09T12:00:54Z</time>
      </trkpt>
      <trkpt lat="48.53146" lon="7.39025">
        <ele>229</ele>
        <time>2017-04-09T12:00:56Z</time>
      </trkpt>
      <trkpt lat="48.53147" lon="7.3906">
        <ele>229</ele>
        <time>2017-04-09T12:00:59Z</time>
      </trkpt>
      <trkpt lat="48.5315" lon="7.39071">
        <ele>227</ele>
        <time>2017-04-09T12:01:00Z</time>
      </trkpt>
      <trkpt lat="48.53156" lon="7.39134">
        <ele>232</ele>
        <time>2017-04-09T12:01:06Z</time>
      </trkpt>
      <trkpt lat="48.53162" lon="7.39189">
        <ele>234</ele>
        <time>2017-04-09T12:01:12Z</time>
      </trkpt>
      <trkpt lat="48.53166" lon="7.39205">
        <ele>237</ele>
        <time>2017-04-09T12:01:14Z</time>
      </trkpt>
      <trkpt lat="48.53173" lon="7.39221">
        <ele>219</ele>
        <time>2017-04-09T12:01:16Z</time>
      </trkpt>
      <trkpt lat="48.53186" lon="7.39268">
        <ele>222</ele>
        <time>2017-04-09T12:01:22Z</time>
      </trkpt>
      <trkpt lat="48.53186" lon="7.39275">
        <ele>222</ele>
        <time>2017-04-09T12:01:23Z</time>
      </trkpt>
      <trkpt lat="48.5319" lon="7.39293">
        <ele>222</ele>
        <time>2017-04-09T12:01:26Z</time>
      </trkpt>
      <trkpt lat="48.53193" lon="7.39303">
        <ele>222</ele>
        <time>2017-04-09T12:01:28Z</time>
      </trkpt>
      <trkpt lat="48.53194" lon="7.39309">
        <ele>222</ele>
        <time>2017-04-09T12:01:29Z</time>
      </trkpt>
      <trkpt lat="48.53196" lon="7.39314">
        <ele>222</ele>
        <time>2017-04-09T12:01:30Z</time>
      </trkpt>
      <trkpt lat="48.53199" lon="7.39322">
        <ele>222</ele>
        <time>2017-04-09T12:01:31Z</time>
      </trkpt>
      <trkpt lat="48.53205" lon="7.39329">
        <ele>221</ele>
        <time>2017-04-09T12:01:32Z</time>
      </trkpt>
      <trkpt lat="48.53215" lon="7.39348">
        <ele>222</ele>
        <time>2017-04-09T12:01:35Z</time>
      </trkpt>
      <trkpt lat="48.53217" lon="7.39355">
        <ele>222</ele>
        <time>2017-04-09T12:01:36Z</time>
      </trkpt>
      <trkpt lat="48.53218" lon="7.3936">
        <ele>222</ele>
        <time>2017-04-09T12:01:37Z</time>
      </trkpt>
      <trkpt lat="48.53219" lon="7.39365">
        <ele>222</ele>
        <time>2017-04-09T12:01:38Z</time>
      </trkpt>
      <trkpt lat="48.5322" lon="7.39371">
        <ele>222</ele>
        <time>2017-04-09T12:01:39Z</time>
      </trkpt>
      <trkpt lat="48.53223" lon="7.39403">
        <ele>221</ele>
        <time>2017-04-09T12:01:44Z</time>
      </trkpt>
      <trkpt lat="48.53224" lon="7.3945">
        <ele>224</ele>
        <time>2017-04-09T12:01:51Z</time>
      </trkpt>
      <trkpt lat="48.53221" lon="7.39479">
        <ele>225</ele>
        <time>2017-04-09T12:01:55Z</time>
      </trkpt>
      <trkpt lat="48.53219" lon="7.39494">
        <ele>225</ele>
        <time>2017-04-09T12:01:57Z</time>
      </trkpt>
      <trkpt lat="48.53215" lon="7.39531">
        <ele>228</ele>
        <time>2017-04-09T12:02:02Z</time>
      </trkpt>
      <trkpt lat="48.53214" lon="7.3954">
        <ele>228</ele>
        <time>2017-04-09T12:02:03Z</time>
      </trkpt>
      <trkpt lat="48.53212" lon="7.39548">
        <ele>229</ele>
        <time>2017-04-09T12:02:04Z</time>
      </trkpt>
      <trkpt lat="48.53211" lon="7.39556">
        <ele>229</ele>
        <time>2017-04-09T12:02:05Z</time>
      </trkpt>
      <trkpt lat="48.5321" lon="7.39564">
        <ele>229</ele>
        <time>2017-04-09T12:02:06Z</time>
      </trkpt>
      <trkpt lat="48.53208" lon="7.39597">
        <ele>230</ele>
        <time>2017-04-09T12:02:10Z</time>
      </trkpt>
      <trkpt lat="48.53208" lon="7.39612">
        <ele>230</ele>
        <time>2017-04-09T12:02:12Z</time>
      </trkpt>
      <trkpt lat="48.53208" lon="7.39619">
        <ele>230</ele>
        <time>2017-04-09T12:02:13Z</time>
      </trkpt>
      <trkpt lat="48.53212" lon="7.39652">
        <ele>230</ele>
        <time>2017-04-09T12:02:17Z</time>
      </trkpt>
      <trkpt lat="48.53221" lon="7.39715">
        <ele>231</ele>
        <time>2017-04-09T12:02:23Z</time>
      </trkpt>
      <trkpt lat="48.53228" lon="7.39762">
        <ele>232</ele>
        <time>2017-04-09T12:02:28Z</time>
      </trkpt>
      <trkpt lat="48.5323" lon="7.39771">
        <ele>233</ele>
        <time>2017-04-09T12:02:29Z</time>
      </trkpt>
      <trkpt lat="48.53238" lon="7.39795">
        <ele>234</ele>
        <time>2017-04-09T12:02:32Z</time>
      </trkpt>
      <trkpt lat="48.53247" lon="7.39812">
        <ele>233</ele>
        <time>2017-04-09T12:02:34Z</time>
      </trkpt>
      <trkpt lat="48.53256" lon="7.39846">
        <ele>226</ele>
        <time>2017-04-09T12:02:38Z</time>
      </trkpt>
      <trkpt lat="48.53262" lon="7.39864">
        <ele>225</ele>
        <time>2017-04-09T12:02:40Z</time>
      </trkpt>
      <trkpt lat="48.53265" lon="7.39872">
        <ele>225</ele>
        <time>2017-04-09T12:02:41Z</time>
      </trkpt>
      <trkpt lat="48.53267" lon="7.39882">
        <ele>225</ele>
        <time>2017-04-09T12:02:42Z</time>
      </trkpt>
      <trkpt lat="48.5327" lon="7.3989">
        <ele>226</ele>
        <time>2017-04-09T12:02:43Z</time>
      </trkpt>
      <trkpt lat="48.53275" lon="7.39901">
        <ele>226</ele>
        <time>2017-04-09T12:02:44Z</time>
      </trkpt>
      <trkpt lat="48.53279" lon="7.39911">
        <ele>226</ele>
        <time>2017-04-09T12:02:45Z</time>
      </trkpt>
      <trkpt lat="48.53282" lon="7.39921">
        <ele>229</ele>
        <time>2017-04-09T12:02:46Z</time>
      </trkpt>
      <trkpt lat="48.53294" lon="7.3996">
        <ele>228</ele>
        <time>2017-04-09T12:02:50Z</time>
      </trkpt>
      <trkpt lat="48.53297" lon="7.3997">
        <ele>228</ele>
        <time>2017-04-09T12:02:51Z</time>
      </trkpt>
      <trkpt lat="48.53301" lon="7.39981">
        <ele>228</ele>
        <time>2017-04-09T12:02:52Z</time>
      </trkpt>
      <trkpt lat="48.53304" lon="7.39991">
        <ele>227</ele>
        <time>2017-04-09T12:02:53Z</time>
      </trkpt>
      <trkpt lat="48.53306" lon="7.40001">
        <ele>231</ele>
        <time>2017-04-09T12:02:54Z</time>
      </trkpt>
      <trkpt lat="48.53319" lon="7.40046">
        <ele>232</ele>
        <time>2017-04-09T12:02:59Z</time>
      </trkpt>
      <trkpt lat="48.53322" lon="7.40061">
        <ele>232</ele>
        <time>2017-04-09T12:03:01Z</time>
      </trkpt>
      <trkpt lat="48.53321" lon="7.40068">
        <ele>231</ele>
        <time>2017-04-09T12:03:02Z</time>
      </trkpt>
      <trkpt lat="48.53322" lon="7.40076">
        <ele>229</ele>
        <time>2017-04-09T12:03:03Z</time>
      </trkpt>
      <trkpt lat="48.53322" lon="7.40085">
        <ele>230</ele>
        <time>2017-04-09T12:03:04Z</time>
      </trkpt>
      <trkpt lat="48.53324" lon="7.40094">
        <ele>232</ele>
        <time>2017-04-09T12:03:05Z</time>
      </trkpt>
      <trkpt lat="48.53325" lon="7.40118">
        <ele>237</ele>
        <time>2017-04-09T12:03:08Z</time>
      </trkpt>
      <trkpt lat="48.53327" lon="7.40134">
        <ele>237</ele>
        <time>2017-04-09T12:03:10Z</time>
      </trkpt>
      <trkpt lat="48.53328" lon="7.4015">
        <ele>234</ele>
        <time>2017-04-09T12:03:12Z</time>
      </trkpt>
      <trkpt lat="48.53328" lon="7.40158">
        <ele>232</ele>
        <time>2017-04-09T12:03:13Z</time>
      </trkpt>
      <trkpt lat="48.53328" lon="7.40165">
        <ele>230</ele>
        <time>2017-04-09T12:03:14Z</time>
      </trkpt>
      <trkpt lat="48.53329" lon="7.40172">
        <ele>231</ele>
        <time>2017-04-09T12:03:15Z</time>
      </trkpt>
      <trkpt lat="48.53329" lon="7.40178">
        <ele>233</ele>
        <time>2017-04-09T12:03:16Z</time>
      </trkpt>
      <trkpt lat="48.5333" lon="7.40185">
        <ele>235</ele>
        <time>2017-04-09T12:03:17Z</time>
      </trkpt>
      <trkpt lat="48.5333" lon="7.40232">
        <ele>235</ele>
        <time>2017-04-09T12:03:23Z</time>
      </trkpt>
      <trkpt lat="48.53334" lon="7.40284">
        <ele>218</ele>
        <time>2017-04-09T12:03:28Z</time>
      </trkpt>
      <trkpt lat="48.53334" lon="7.40294">
        <ele>218</ele>
        <time>2017-04-09T12:03:29Z</time>
      </trkpt>
      <trkpt lat="48.53335" lon="7.40306">
        <ele>218</ele>
        <time>2017-04-09T12:03:30Z</time>
      </trkpt>
      <trkpt lat="48.53335" lon="7.40318">
        <ele>218</ele>
        <time>2017-04-09T12:03:31Z</time>
      </trkpt>
      <trkpt lat="48.53336" lon="7.40329">
        <ele>220</ele>
        <time>2017-04-09T12:03:32Z</time>
      </trkpt>
      <trkpt lat="48.53336" lon="7.40341">
        <ele>219</ele>
        <time>2017-04-09T12:03:33Z</time>
      </trkpt>
      <trkpt lat="48.53336" lon="7.40375">
        <ele>215</ele>
        <time>2017-04-09T12:03:36Z</time>
      </trkpt>
      <trkpt lat="48.53335" lon="7.40447">
        <ele>213</ele>
        <time>2017-04-09T12:03:43Z</time>
      </trkpt>
      <trkpt lat="48.53337" lon="7.40467">
        <ele>212</ele>
        <time>2017-04-09T12:03:45Z</time>
      </trkpt>
      <trkpt lat="48.53339" lon="7.40476">
        <ele>212</ele>
        <time>2017-04-09T12:03:46Z</time>
      </trkpt>
      <trkpt lat="48.53339" lon="7.40492">
        <ele>213</ele>
        <time>2017-04-09T12:03:48Z</time>
      </trkpt>
      <trkpt lat="48.53338" lon="7.40497">
        <ele>213</ele>
        <time>2017-04-09T12:03:49Z</time>
      </trkpt>
      <trkpt lat="48.53337" lon="7.40502">
        <ele>213</ele>
        <time>2017-04-09T12:03:50Z</time>
      </trkpt>
      <trkpt lat="48.53342" lon="7.40519">
        <ele>211</ele>
        <time>2017-04-09T12:03:53Z</time>
      </trkpt>
      <trkpt lat="48.53346" lon="7.40532">
        <ele>210</ele>
        <time>2017-04-09T12:03:55Z</time>
      </trkpt>
      <trkpt lat="48.53347" lon="7.40554">
        <ele>210</ele>
        <time>2017-04-09T12:03:58Z</time>
      </trkpt>
      <trkpt lat="48.53344" lon="7.40603">
        <ele>210</ele>
        <time>2017-04-09T12:04:04Z</time>
      </trkpt>
      <trkpt lat="48.53344" lon="7.4062">
        <ele>209</ele>
        <time>2017-04-09T12:04:06Z</time>
      </trkpt>
      <trkpt lat="48.53344" lon="7.40629">
        <ele>209</ele>
        <time>2017-04-09T12:04:07Z</time>
      </trkpt>
      <trkpt lat="48.53343" lon="7.40639">
        <ele>209</ele>
        <time>2017-04-09T12:04:08Z</time>
      </trkpt>
      <trkpt lat="48.53343" lon="7.40647">
        <ele>209</ele>
        <time>2017-04-09T12:04:09Z</time>
      </trkpt>
      <trkpt lat="48.53343" lon="7.40657">
        <ele>210</ele>
        <time>2017-04-09T12:04:10Z</time>
      </trkpt>
      <trkpt lat="48.53344" lon="7.40666">
        <ele>210</ele>
        <time>2017-04-09T12:04:11Z</time>
      </trkpt>
      <trkpt lat="48.53343" lon="7.40742">
        <ele>207</ele>
        <time>2017-04-09T12:04:19Z</time>
      </trkpt>
      <trkpt lat="48.53346" lon="7.40815">
        <ele>205</ele>
        <time>2017-04-09T12:04:27Z</time>
      </trkpt>
      <trkpt lat="48.53344" lon="7.40895">
        <ele>203</ele>
        <time>2017-04-09T12:04:35Z</time>
      </trkpt>
      <trkpt lat="48.53341" lon="7.40984">
        <ele>203</ele>
        <time>2017-04-09T12:04:44Z</time>
      </trkpt>
      <trkpt lat="48.53337" lon="7.4107">
        <ele>203</ele>
        <time>2017-04-09T12:04:53Z</time>
      </trkpt>
      <trkpt lat="48.53336" lon="7.411">
        <ele>203</ele>
        <time>2017-04-09T12:04:56Z</time>
      </trkpt>
      <trkpt lat="48.53336" lon="7.41129">
        <ele>203</ele>
        <time>2017-04-09T12:04:59Z</time>
      </trkpt>
      <trkpt lat="48.53334" lon="7.41215">
        <ele>201</ele>
        <time>2017-04-09T12:05:08Z</time>
      </trkpt>
      <trkpt lat="48.53334" lon="7.41236">
        <ele>201</ele>
        <time>2017-04-09T12:05:10Z</time>
      </trkpt>
      <trkpt lat="48.53332" lon="7.41327">
        <ele>202</ele>
        <time>2017-04-09T12:05:19Z</time>
      </trkpt>
      <trkpt lat="48.53332" lon="7.41337">
        <ele>202</ele>
        <time>2017-04-09T12:05:20Z</time>
      </trkpt>
      <trkpt lat="48.53332" lon="7.41346">
        <ele>203</ele>
        <time>2017-04-09T12:05:21Z</time>
      </trkpt>
      <trkpt lat="48.53332" lon="7.41356">
        <ele>203</ele>
        <time>2017-04-09T12:05:22Z</time>
      </trkpt>
      <trkpt lat="48.53331" lon="7.41365">
        <ele>203</ele>
        <time>2017-04-09T12:05:23Z</time>
      </trkpt>
      <trkpt lat="48.5333" lon="7.41375">
        <ele>203</ele>
        <time>2017-04-09T12:05:24Z</time>
      </trkpt>
      <trkpt lat="48.53329" lon="7.41414">
        <ele>203</ele>
        <time>2017-04-09T12:05:28Z</time>
      </trkpt>
      <trkpt lat="48.53328" lon="7.41501">
        <ele>203</ele>
        <time>2017-04-09T12:05:37Z</time>
      </trkpt>
      <trkpt lat="48.53326" lon="7.4153">
        <ele>203</ele>
        <time>2017-04-09T12:05:40Z</time>
      </trkpt>
      <trkpt lat="48.53324" lon="7.41615">
        <ele>202</ele>
        <time>2017-04-09T12:05:49Z</time>
      </trkpt>
      <trkpt lat="48.53321" lon="7.41699">
        <ele>201</ele>
        <time>2017-04-09T12:05:58Z</time>
      </trkpt>
      <trkpt lat="48.5332" lon="7.41725">
        <ele>201</ele>
        <time>2017-04-09T12:06:01Z</time>
      </trkpt>
      <trkpt lat="48.53318" lon="7.41812">
        <ele>200</ele>
        <time>2017-04-09T12:06:11Z</time>
      </trkpt>
      <trkpt lat="48.53315" lon="7.41896">
        <ele>201</ele>
        <time>2017-04-09T12:06:20Z</time>
      </trkpt>
      <trkpt lat="48.53314" lon="7.41905">
        <ele>201</ele>
        <time>2017-04-09T12:06:21Z</time>
      </trkpt>
      <trkpt lat="48.53314" lon="7.41914">
        <ele>202</ele>
        <time>2017-04-09T12:06:22Z</time>
      </trkpt>
      <trkpt lat="48.53314" lon="7.41923">
        <ele>202</ele>
        <time>2017-04-09T12:06:23Z</time>
      </trkpt>
      <trkpt lat="48.53313" lon="7.41932">
        <ele>202</ele>
        <time>2017-04-09T12:06:24Z</time>
      </trkpt>
      <trkpt lat="48.53313" lon="7.4194">
        <ele>202</ele>
        <time>2017-04-09T12:06:25Z</time>
      </trkpt>
      <trkpt lat="48.53308" lon="7.41999">
        <ele>202</ele>
        <time>2017-04-09T12:06:32Z</time>
      </trkpt>
      <trkpt lat="48.53306" lon="7.42069">
        <ele>202</ele>
        <time>2017-04-09T12:06:41Z</time>
      </trkpt>
      <trkpt lat="48.53305" lon="7.42078">
        <ele>202</ele>
        <time>2017-04-09T12:06:42Z</time>
      </trkpt>
      <trkpt lat="48.53305" lon="7.42086">
        <ele>202</ele>
        <time>2017-04-09T12:06:43Z</time>
      </trkpt>
      <trkpt lat="48.53304" lon="7.42094">
        <ele>202</ele>
        <time>2017-04-09T12:06:44Z</time>
      </trkpt>
      <trkpt lat="48.53304" lon="7.42102">
        <ele>202</ele>
        <time>2017-04-09T12:06:45Z</time>
      </trkpt>
      <trkpt lat="48.53301" lon="7.4217">
        <ele>202</ele>
        <time>2017-04-09T12:06:53Z</time>
      </trkpt>
      <trkpt lat="48.53299" lon="7.42241">
        <ele>202</ele>
        <time>2017-04-09T12:07:02Z</time>
      </trkpt>
      <trkpt lat="48.53295" lon="7.42301">
        <ele>201</ele>
        <time>2017-04-09T12:07:10Z</time>
      </trkpt>
      <trkpt lat="48.53298" lon="7.42356">
        <ele>201</ele>
        <time>2017-04-09T12:07:17Z</time>
      </trkpt>
      <trkpt lat="48.53299" lon="7.4241">
        <ele>201</ele>
        <time>2017-04-09T12:07:24Z</time>
      </trkpt>
      <trkpt lat="48.53297" lon="7.42458">
        <ele>201</ele>
        <time>2017-04-09T12:07:31Z</time>
      </trkpt>
      <trkpt lat="48.53297" lon="7.42479">
        <ele>201</ele>
        <time>2017-04-09T12:07:34Z</time>
      </trkpt>
      <trkpt lat="48.53296" lon="7.42509">
        <ele>200</ele>
        <time>2017-04-09T12:07:38Z</time>
      </trkpt>
      <trkpt lat="48.53296" lon="7.42516">
        <ele>200</ele>
        <time>2017-04-09T12:07:39Z</time>
      </trkpt>
      <trkpt lat="48.53296" lon="7.42563">
        <ele>200</ele>
        <time>2017-04-09T12:07:45Z</time>
      </trkpt>
      <trkpt lat="48.53296" lon="7.4257">
        <ele>200</ele>
        <time>2017-04-09T12:07:46Z</time>
      </trkpt>
      <trkpt lat="48.53295" lon="7.42634">
        <ele>199</ele>
        <time>2017-04-09T12:07:54Z</time>
      </trkpt>
      <trkpt lat="48.53293" lon="7.42705">
        <ele>199</ele>
        <time>2017-04-09T12:08:03Z</time>
      </trkpt>
      <trkpt lat="48.53293" lon="7.42786">
        <ele>199</ele>
        <time>2017-04-09T12:08:13Z</time>
      </trkpt>
      <trkpt lat="48.53294" lon="7.42828">
        <ele>199</ele>
        <time>2017-04-09T12:08:18Z</time>
      </trkpt>
      <trkpt lat="48.53293" lon="7.42853">
        <ele>200</ele>
        <time>2017-04-09T12:08:21Z</time>
      </trkpt>
      <trkpt lat="48.53288" lon="7.42916">
        <ele>200</ele>
        <time>2017-04-09T12:08:29Z</time>
      </trkpt>
      <trkpt lat="48.53284" lon="7.42952">
        <ele>201</ele>
        <time>2017-04-09T12:08:34Z</time>
      </trkpt>
      <trkpt lat="48.53285" lon="7.42964">
        <ele>201</ele>
        <time>2017-04-09T12:08:36Z</time>
      </trkpt>
      <trkpt lat="48.53288" lon="7.42969">
        <ele>201</ele>
        <time>2017-04-09T12:08:37Z</time>
      </trkpt>
      <trkpt lat="48.53292" lon="7.42973">
        <ele>201</ele>
        <time>2017-04-09T12:08:38Z</time>
      </trkpt>
      <trkpt lat="48.53295" lon="7.42975">
        <ele>200</ele>
        <time>2017-04-09T12:08:39Z</time>
      </trkpt>
      <trkpt lat="48.53299" lon="7.42977">
        <ele>200</ele>
        <time>2017-04-09T12:08:40Z</time>
      </trkpt>
      <trkpt lat="48.53304" lon="7.42977">
        <ele>200</ele>
        <time>2017-04-09T12:08:41Z</time>
      </trkpt>
      <trkpt lat="48.53311" lon="7.42978">
        <ele>200</ele>
        <time>2017-04-09T12:08:43Z</time>
      </trkpt>
      <trkpt lat="48.53321" lon="7.4298">
        <ele>200</ele>
        <time>2017-04-09T12:08:45Z</time>
      </trkpt>
      <trkpt lat="48.53337" lon="7.42987">
        <ele>200</ele>
        <time>2017-04-09T12:08:48Z</time>
      </trkpt>
      <trkpt lat="48.53374" lon="7.43002">
        <ele>200</ele>
        <time>2017-04-09T12:08:54Z</time>
      </trkpt>
      <trkpt lat="48.53388" lon="7.4301">
        <ele>200</ele>
        <time>2017-04-09T12:08:57Z</time>
      </trkpt>
      <trkpt lat="48.534" lon="7.43015">
        <ele>200</ele>
        <time>2017-04-09T12:08:59Z</time>
      </trkpt>
      <trkpt lat="48.53405" lon="7.43019">
        <ele>200</ele>
        <time>2017-04-09T12:09:00Z</time>
      </trkpt>
      <trkpt lat="48.53411" lon="7.43023">
        <ele>200</ele>
        <time>2017-04-09T12:09:01Z</time>
      </trkpt>
      <trkpt lat="48.53416" lon="7.43027">
        <ele>200</ele>
        <time>2017-04-09T12:09:02Z</time>
      </trkpt>
      <trkpt lat="48.53421" lon="7.43031">
        <ele>200</ele>
        <time>2017-04-09T12:09:03Z</time>
      </trkpt>
      <trkpt lat="48.53443" lon="7.43047">
        <ele>200</ele>
        <time>2017-04-09T12:09:07Z</time>
      </trkpt>
      <trkpt lat="48.53491" lon="7.43072">
        <ele>199</ele>
        <time>2017-04-09T12:09:15Z</time>
      </trkpt>
      <trkpt lat="48.53496" lon="7.43076">
        <ele>198</ele>
        <time>2017-04-09T12:09:16Z</time>
      </trkpt>
      <trkpt lat="48.53502" lon="7.4308">
        <ele>198</ele>
        <time>2017-04-09T12:09:17Z</time>
      </trkpt>
      <trkpt lat="48.53507" lon="7.43084">
        <ele>198</ele>
        <time>2017-04-09T12:09:18Z</time>
      </trkpt>
      <trkpt lat="48.53512" lon="7.43088">
        <ele>198</ele>
        <time>2017-04-09T12:09:19Z</time>
      </trkpt>
      <trkpt lat="48.53523" lon="7.43099">
        <ele>198</ele>
        <time>2017-04-09T12:09:21Z</time>
      </trkpt>
      <trkpt lat="48.5355" lon="7.43131">
        <ele>197</ele>
        <time>2017-04-09T12:09:27Z</time>
      </trkpt>
      <trkpt lat="48.53573" lon="7.43178">
        <ele>196</ele>
        <time>2017-04-09T12:09:33Z</time>
      </trkpt>
      <trkpt lat="48.5358" lon="7.43226">
        <ele>196</ele>
        <time>2017-04-09T12:09:38Z</time>
      </trkpt>
      <trkpt lat="48.53583" lon="7.43245">
        <ele>195</ele>
        <time>2017-04-09T12:09:40Z</time>
      </trkpt>
      <trkpt lat="48.53596" lon="7.43265">
        <ele>195</ele>
        <time>2017-04-09T12:09:43Z</time>
      </trkpt>
      <trkpt lat="48.536" lon="7.43271">
        <ele>195</ele>
        <time>2017-04-09T12:09:44Z</time>
      </trkpt>
      <trkpt lat="48.5363" lon="7.43305">
        <ele>194</ele>
        <time>2017-04-09T12:09:50Z</time>
      </trkpt>
      <trkpt lat="48.53652" lon="7.43342">
        <ele>194</ele>
        <time>2017-04-09T12:09:56Z</time>
      </trkpt>
      <trkpt lat="48.53677" lon="7.43381">
        <ele>194</ele>
        <time>2017-04-09T12:10:02Z</time>
      </trkpt>
      <trkpt lat="48.53708" lon="7.43436">
        <ele>194</ele>
        <time>2017-04-09T12:10:10Z</time>
      </trkpt>
      <trkpt lat="48.53728" lon="7.43486">
        <ele>194</ele>
        <time>2017-04-09T12:10:17Z</time>
      </trkpt>
      <trkpt lat="48.53746" lon="7.43533">
        <ele>195</ele>
        <time>2017-04-09T12:10:24Z</time>
      </trkpt>
      <trkpt lat="48.5376" lon="7.43579">
        <ele>196</ele>
        <time>2017-04-09T12:10:31Z</time>
      </trkpt>
      <trkpt lat="48.53765" lon="7.43601">
        <ele>196</ele>
        <time>2017-04-09T12:10:34Z</time>
      </trkpt>
      <trkpt lat="48.53765" lon="7.43617">
        <ele>196</ele>
        <time>2017-04-09T12:10:36Z</time>
      </trkpt>
      <trkpt lat="48.53766" lon="7.43632">
        <ele>197</ele>
        <time>2017-04-09T12:10:38Z</time>
      </trkpt>
      <trkpt lat="48.53769" lon="7.43655">
        <ele>197</ele>
        <time>2017-04-09T12:10:41Z</time>
      </trkpt>
      <trkpt lat="48.53761" lon="7.43715">
        <ele>196</ele>
        <time>2017-04-09T12:10:48Z</time>
      </trkpt>
      <trkpt lat="48.5375" lon="7.43738">
        <ele>195</ele>
        <time>2017-04-09T12:10:51Z</time>
      </trkpt>
      <trkpt lat="48.53745" lon="7.43745">
        <ele>195</ele>
        <time>2017-04-09T12:10:52Z</time>
      </trkpt>
      <trkpt lat="48.53727" lon="7.43752">
        <ele>193</ele>
        <time>2017-04-09T12:10:56Z</time>
      </trkpt>
      <trkpt lat="48.5372" lon="7.43739">
        <ele>195</ele>
        <time>2017-04-09T12:10:59Z</time>
      </trkpt>
      <trkpt lat="48.53719" lon="7.43734">
        <ele>195</ele>
        <time>2017-04-09T12:11:00Z</time>
      </trkpt>
      <trkpt lat="48.53718" lon="7.4373">
        <ele>195</ele>
        <time>2017-04-09T12:11:01Z</time>
      </trkpt>
      <trkpt lat="48.53718" lon="7.43725">
        <ele>195</ele>
        <time>2017-04-09T12:11:02Z</time>
      </trkpt>
      <trkpt lat="48.5372" lon="7.4372">
        <ele>195</ele>
        <time>2017-04-09T12:11:03Z</time>
      </trkpt>
      <trkpt lat="48.53721" lon="7.43717">
        <ele>195</ele>
        <time>2017-04-09T12:11:04Z</time>
      </trkpt>
      <trkpt lat="48.53723" lon="7.43713">
        <ele>195</ele>
        <time>2017-04-09T12:11:05Z</time>
      </trkpt>
      <trkpt lat="48.53726" lon="7.43711">
        <ele>195</ele>
        <time>2017-04-09T12:11:06Z</time>
      </trkpt>
      <trkpt lat="48.53729" lon="7.4371">
        <ele>195</ele>
        <time>2017-04-09T12:11:07Z</time>
      </trkpt>
      <trkpt lat="48.53732" lon="7.4371">
        <ele>195</ele>
        <time>2017-04-09T12:11:08Z</time>
      </trkpt>
      <trkpt lat="48.5374" lon="7.43712">
        <ele>195</ele>
        <time>2017-04-09T12:11:11Z</time>
      </trkpt>
      <trkpt lat="48.53743" lon="7.43713">
        <ele>195</ele>
        <time>2017-04-09T12:11:12Z</time>
      </trkpt>
      <trkpt lat="48.53746" lon="7.43714">
        <ele>195</ele>
        <time>2017-04-09T12:11:13Z</time>
      </trkpt>
      <trkpt lat="48.53748" lon="7.43715">
        <ele>195</ele>
        <time>2017-04-09T12:11:14Z</time>
      </trkpt>
      <trkpt lat="48.53751" lon="7.43718">
        <ele>196</ele>
        <time>2017-04-09T12:11:15Z</time>
      </trkpt>
      <trkpt lat="48.53763" lon="7.43734">
        <ele>195</ele>
        <time>2017-04-09T12:11:19Z</time>
      </trkpt>
      <trkpt lat="48.53789" lon="7.43767">
        <ele>194</ele>
        <time>2017-04-09T12:11:26Z</time>
      </trkpt>
      <trkpt lat="48.53803" lon="7.43788">
        <ele>194</ele>
        <time>2017-04-09T12:11:30Z</time>
      </trkpt>
      <trkpt lat="48.53806" lon="7.43793">
        <ele>194</ele>
        <time>2017-04-09T12:11:31Z</time>
      </trkpt>
      <trkpt lat="48.53809" lon="7.43798">
        <ele>194</ele>
        <time>2017-04-09T12:11:32Z</time>
      </trkpt>
      <trkpt lat="48.53811" lon="7.43805">
        <ele>194</ele>
        <time>2017-04-09T12:11:33Z</time>
      </trkpt>
      <trkpt lat="48.53811" lon="7.43812">
        <ele>194</ele>
        <time>2017-04-09T12:11:34Z</time>
      </trkpt>
      <trkpt lat="48.53812" lon="7.43817">
        <ele>194</ele>
        <time>2017-04-09T12:11:35Z</time>
      </trkpt>
      <trkpt lat="48.53814" lon="7.43821">
        <ele>194</ele>
        <time>2017-04-09T12:11:36Z</time>
      </trkpt>
      <trkpt lat="48.53818" lon="7.43825">
        <ele>193</ele>
        <time>2017-04-09T12:11:37Z</time>
      </trkpt>
      <trkpt lat="48.53822" lon="7.43827">
        <ele>193</ele>
        <time>2017-04-09T12:11:38Z</time>
      </trkpt>
      <trkpt lat="48.53828" lon="7.43847">
        <ele>193</ele>
        <time>2017-04-09T12:11:43Z</time>
      </trkpt>
      <trkpt lat="48.5382" lon="7.43844">
        <ele>193</ele>
        <time>2017-04-09T12:11:44Z</time>
      </trkpt>
      <trkpt lat="48.53816" lon="7.43843">
        <ele>193</ele>
        <time>2017-04-09T12:11:45Z</time>
      </trkpt>
      <trkpt lat="48.53793" lon="7.43847">
        <ele>193</ele>
        <time>2017-04-09T12:11:50Z</time>
      </trkpt>
      <trkpt lat="48.53789" lon="7.43849">
        <ele>193</ele>
        <time>2017-04-09T12:11:51Z</time>
      </trkpt>
      <trkpt lat="48.53783" lon="7.43852">
        <ele>193</ele>
        <time>2017-04-09T12:11:52Z</time>
      </trkpt>
      <trkpt lat="48.53779" lon="7.43856">
        <ele>193</ele>
        <time>2017-04-09T12:11:53Z</time>
      </trkpt>
      <trkpt lat="48.53773" lon="7.4386">
        <ele>193</ele>
        <time>2017-04-09T12:11:54Z</time>
      </trkpt>
      <trkpt lat="48.53768" lon="7.43865">
        <ele>193</ele>
        <time>2017-04-09T12:11:55Z</time>
      </trkpt>
      <trkpt lat="48.53764" lon="7.43872">
        <ele>193</ele>
        <time>2017-04-09T12:11:56Z</time>
      </trkpt>
      <trkpt lat="48.53754" lon="7.43905">
        <ele>192</ele>
        <time>2017-04-09T12:12:00Z</time>
      </trkpt>
      <trkpt lat="48.53756" lon="7.43916">
        <ele>192</ele>
        <time>2017-04-09T12:12:01Z</time>
      </trkpt>
      <trkpt lat="48.53758" lon="7.43925">
        <ele>192</ele>
        <time>2017-04-09T12:12:02Z</time>
      </trkpt>
      <trkpt lat="48.5376" lon="7.43935">
        <ele>192</ele>
        <time>2017-04-09T12:12:03Z</time>
      </trkpt>
      <trkpt lat="48.53761" lon="7.43944">
        <ele>192</ele>
        <time>2017-04-09T12:12:04Z</time>
      </trkpt>
      <trkpt lat="48.53762" lon="7.43953">
        <ele>192</ele>
        <time>2017-04-09T12:12:05Z</time>
      </trkpt>
      <trkpt lat="48.53765" lon="7.43987">
        <ele>192</ele>
        <time>2017-04-09T12:12:09Z</time>
      </trkpt>
      <trkpt lat="48.53776" lon="7.44074">
        <ele>192</ele>
        <time>2017-04-09T12:12:20Z</time>
      </trkpt>
      <trkpt lat="48.53783" lon="7.44138">
        <ele>194</ele>
        <time>2017-04-09T12:12:28Z</time>
      </trkpt>
      <trkpt lat="48.5379" lon="7.442">
        <ele>194</ele>
        <time>2017-04-09T12:12:36Z</time>
      </trkpt>
      <trkpt lat="48.53793" lon="7.44214">
        <ele>194</ele>
        <time>2017-04-09T12:12:38Z</time>
      </trkpt>
      <trkpt lat="48.53801" lon="7.44223">
        <ele>194</ele>
        <time>2017-04-09T12:12:40Z</time>
      </trkpt>
      <trkpt lat="48.53816" lon="7.44226">
        <ele>194</ele>
        <time>2017-04-09T12:12:43Z</time>
      </trkpt>
      <trkpt lat="48.53837" lon="7.44251">
        <ele>195</ele>
        <time>2017-04-09T12:12:50Z</time>
      </trkpt>
      <trkpt lat="48.53841" lon="7.44264">
        <ele>195</ele>
        <time>2017-04-09T12:12:54Z</time>
      </trkpt>
      <trkpt lat="48.53849" lon="7.44271">
        <ele>195</ele>
        <time>2017-04-09T12:13:00Z</time>
      </trkpt>
      <trkpt lat="48.53842" lon="7.44254">
        <ele>195</ele>
        <time>2017-04-09T12:13:06Z</time>
      </trkpt>
      <trkpt lat="48.53839" lon="7.44251">
        <ele>195</ele>
        <time>2017-04-09T12:13:08Z</time>
      </trkpt>
      <trkpt lat="48.53839" lon="7.44252">
        <ele>195</ele>
        <time>2017-04-09T12:13:09Z</time>
      </trkpt>
      <trkpt lat="48.53839" lon="7.44252">
        <ele>195</ele>
        <time>2017-04-09T12:13:10Z</time>
      </trkpt>
      <trkpt lat="48.53839" lon="7.44252">
        <ele>195</ele>
        <time>2017-04-09T12:13:59Z</time>
      </trkpt>
      <trkpt lat="48.53839" lon="7.44252">
        <ele>195</ele>
        <time>2017-04-09T12:14:02Z</time>
      </trkpt>
      <trkpt lat="48.53831" lon="7.44249">
        <ele>195</ele>
        <time>2017-04-09T12:48:37Z</time>
      </trkpt>
      <trkpt lat="48.53829" lon="7.44244">
        <ele>195</ele>
        <time>2017-04-09T12:48:38Z</time>
      </trkpt>
      <trkpt lat="48.53817" lon="7.44227">
        <ele>194</ele>
        <time>2017-04-09T12:48:43Z</time>
      </trkpt>
      <trkpt lat="48.53802" lon="7.44223">
        <ele>194</ele>
        <time>2017-04-09T12:48:48Z</time>
      </trkpt>
      <trkpt lat="48.53793" lon="7.44227">
        <ele>194</ele>
        <time>2017-04-09T12:48:51Z</time>
      </trkpt>
      <trkpt lat="48.53792" lon="7.4423">
        <ele>194</ele>
        <time>2017-04-09T12:48:52Z</time>
      </trkpt>
      <trkpt lat="48.53792" lon="7.44236">
        <ele>194</ele>
        <time>2017-04-09T12:48:53Z</time>
      </trkpt>
      <trkpt lat="48.53792" lon="7.44247">
        <ele>194</ele>
        <time>2017-04-09T12:48:55Z</time>
      </trkpt>
      <trkpt lat="48.53796" lon="7.443">
        <ele>193</ele>
        <time>2017-04-09T12:49:05Z</time>
      </trkpt>
      <trkpt lat="48.53801" lon="7.44355">
        <ele>191</ele>
        <time>2017-04-09T12:49:14Z</time>
      </trkpt>
      <trkpt lat="48.53802" lon="7.44375">
        <ele>191</ele>
        <time>2017-04-09T12:49:17Z</time>
      </trkpt>
      <trkpt lat="48.53803" lon="7.44381">
        <ele>191</ele>
        <time>2017-04-09T12:49:18Z</time>
      </trkpt>
      <trkpt lat="48.53804" lon="7.44387">
        <ele>191</ele>
        <time>2017-04-09T12:49:19Z</time>
      </trkpt>
      <trkpt lat="48.53805" lon="7.44393">
        <ele>191</ele>
        <time>2017-04-09T12:49:20Z</time>
      </trkpt>
      <trkpt lat="48.53806" lon="7.444">
        <ele>191</ele>
        <time>2017-04-09T12:49:21Z</time>
      </trkpt>
      <trkpt lat="48.53807" lon="7.44406">
        <ele>191</ele>
        <time>2017-04-09T12:49:22Z</time>
      </trkpt>
      <trkpt lat="48.53812" lon="7.4443">
        <ele>191</ele>
        <time>2017-04-09T12:49:26Z</time>
      </trkpt>
      <trkpt lat="48.53814" lon="7.44443">
        <ele>191</ele>
        <time>2017-04-09T12:49:28Z</time>
      </trkpt>
      <trkpt lat="48.53822" lon="7.44481">
        <ele>192</ele>
        <time>2017-04-09T12:49:34Z</time>
      </trkpt>
      <trkpt lat="48.53821" lon="7.44494">
        <ele>192</ele>
        <time>2017-04-09T12:49:36Z</time>
      </trkpt>
      <trkpt lat="48.53817" lon="7.44536">
        <ele>192</ele>
        <time>2017-04-09T12:49:42Z</time>
      </trkpt>
      <trkpt lat="48.53817" lon="7.4455">
        <ele>192</ele>
        <time>2017-04-09T12:49:44Z</time>
      </trkpt>
      <trkpt lat="48.53819" lon="7.44618">
        <ele>191</ele>
        <time>2017-04-09T12:49:54Z</time>
      </trkpt>
      <trkpt lat="48.53821" lon="7.44673">
        <ele>190</ele>
        <time>2017-04-09T12:50:02Z</time>
      </trkpt>
      <trkpt lat="48.5382" lon="7.44679">
        <ele>190</ele>
        <time>2017-04-09T12:50:03Z</time>
      </trkpt>
      <trkpt lat="48.53803" lon="7.44694">
        <ele>191</ele>
        <time>2017-04-09T12:50:07Z</time>
      </trkpt>
      <trkpt lat="48.53787" lon="7.44694">
        <ele>191</ele>
        <time>2017-04-09T12:50:10Z</time>
      </trkpt>
      <trkpt lat="48.53772" lon="7.44695">
        <ele>191</ele>
        <time>2017-04-09T12:50:13Z</time>
      </trkpt>
      <trkpt lat="48.53737" lon="7.44699">
        <ele>190</ele>
        <time>2017-04-09T12:50:21Z</time>
      </trkpt>
      <trkpt lat="48.53728" lon="7.447">
        <ele>190</ele>
        <time>2017-04-09T12:50:23Z</time>
      </trkpt>
      <trkpt lat="48.53711" lon="7.447">
        <ele>190</ele>
        <time>2017-04-09T12:50:27Z</time>
      </trkpt>
      <trkpt lat="48.53677" lon="7.44705">
        <ele>190</ele>
        <time>2017-04-09T12:50:34Z</time>
      </trkpt>
      <trkpt lat="48.53673" lon="7.44707">
        <ele>190</ele>
        <time>2017-04-09T12:50:35Z</time>
      </trkpt>
      <trkpt lat="48.53666" lon="7.44718">
        <ele>190</ele>
        <time>2017-04-09T12:50:37Z</time>
      </trkpt>
      <trkpt lat="48.53663" lon="7.44732">
        <ele>190</ele>
        <time>2017-04-09T12:50:39Z</time>
      </trkpt>
      <trkpt lat="48.53662" lon="7.44747">
        <ele>191</ele>
        <time>2017-04-09T12:50:41Z</time>
      </trkpt>
      <trkpt lat="48.53663" lon="7.4481">
        <ele>192</ele>
        <time>2017-04-09T12:50:49Z</time>
      </trkpt>
      <trkpt lat="48.53663" lon="7.44818">
        <ele>192</ele>
        <time>2017-04-09T12:50:50Z</time>
      </trkpt>
      <trkpt lat="48.53663" lon="7.44825">
        <ele>192</ele>
        <time>2017-04-09T12:50:51Z</time>
      </trkpt>
      <trkpt lat="48.53663" lon="7.44833">
        <ele>192</ele>
        <time>2017-04-09T12:50:52Z</time>
      </trkpt>
      <trkpt lat="48.53663" lon="7.44841">
        <ele>192</ele>
        <time>2017-04-09T12:50:53Z</time>
      </trkpt>
      <trkpt lat="48.53663" lon="7.44848">
        <ele>191</ele>
        <time>2017-04-09T12:50:54Z</time>
      </trkpt>
      <trkpt lat="48.53663" lon="7.4488">
        <ele>191</ele>
        <time>2017-04-09T12:50:58Z</time>
      </trkpt>
      <trkpt lat="48.53663" lon="7.44888">
        <ele>190</ele>
        <time>2017-04-09T12:50:59Z</time>
      </trkpt>
      <trkpt lat="48.53667" lon="7.44955">
        <ele>190</ele>
        <time>2017-04-09T12:51:08Z</time>
      </trkpt>
      <trkpt lat="48.53676" lon="7.45027">
        <ele>190</ele>
        <time>2017-04-09T12:51:18Z</time>
      </trkpt>
      <trkpt lat="48.53679" lon="7.45056">
        <ele>190</ele>
        <time>2017-04-09T12:51:22Z</time>
      </trkpt>
      <trkpt lat="48.53676" lon="7.45069">
        <ele>190</ele>
        <time>2017-04-09T12:51:24Z</time>
      </trkpt>
      <trkpt lat="48.53669" lon="7.45075">
        <ele>190</ele>
        <time>2017-04-09T12:51:26Z</time>
      </trkpt>
      <trkpt lat="48.53665" lon="7.45076">
        <ele>190</ele>
        <time>2017-04-09T12:51:27Z</time>
      </trkpt>
      <trkpt lat="48.53626" lon="7.45086">
        <ele>192</ele>
        <time>2017-04-09T12:51:35Z</time>
      </trkpt>
      <trkpt lat="48.53621" lon="7.45086">
        <ele>192</ele>
        <time>2017-04-09T12:51:36Z</time>
      </trkpt>
      <trkpt lat="48.53607" lon="7.45085">
        <ele>192</ele>
        <time>2017-04-09T12:51:39Z</time>
      </trkpt>
      <trkpt lat="48.53603" lon="7.45087">
        <ele>192</ele>
        <time>2017-04-09T12:51:40Z</time>
      </trkpt>
      <trkpt lat="48.53588" lon="7.45101">
        <ele>192</ele>
        <time>2017-04-09T12:51:44Z</time>
      </trkpt>
      <trkpt lat="48.53583" lon="7.45111">
        <ele>192</ele>
        <time>2017-04-09T12:51:46Z</time>
      </trkpt>
      <trkpt lat="48.53581" lon="7.45129">
        <ele>191</ele>
        <time>2017-04-09T12:51:49Z</time>
      </trkpt>
      <trkpt lat="48.5358" lon="7.45149">
        <ele>191</ele>
        <time>2017-04-09T12:51:52Z</time>
      </trkpt>
      <trkpt lat="48.53579" lon="7.45169">
        <ele>192</ele>
        <time>2017-04-09T12:51:55Z</time>
      </trkpt>
      <trkpt lat="48.53578" lon="7.45219">
        <ele>190</ele>
        <time>2017-04-09T12:52:02Z</time>
      </trkpt>
      <trkpt lat="48.53584" lon="7.45269">
        <ele>190</ele>
        <time>2017-04-09T12:52:09Z</time>
      </trkpt>
      <trkpt lat="48.53585" lon="7.45276">
        <ele>190</ele>
        <time>2017-04-09T12:52:10Z</time>
      </trkpt>
      <trkpt lat="48.53591" lon="7.45316">
        <ele>190</ele>
        <time>2017-04-09T12:52:16Z</time>
      </trkpt>
      <trkpt lat="48.53586" lon="7.45325">
        <ele>190</ele>
        <time>2017-04-09T12:52:18Z</time>
      </trkpt>
      <trkpt lat="48.53577" lon="7.45332">
        <ele>190</ele>
        <time>2017-04-09T12:52:20Z</time>
      </trkpt>
      <trkpt lat="48.53555" lon="7.45336">
        <ele>190</ele>
        <time>2017-04-09T12:52:24Z</time>
      </trkpt>
      <trkpt lat="48.53539" lon="7.45339">
        <ele>191</ele>
        <time>2017-04-09T12:52:27Z</time>
      </trkpt>
      <trkpt lat="48.53508" lon="7.45344">
        <ele>191</ele>
        <time>2017-04-09T12:52:32Z</time>
      </trkpt>
      <trkpt lat="48.53502" lon="7.45343">
        <ele>191</ele>
        <time>2017-04-09T12:52:33Z</time>
      </trkpt>
      <trkpt lat="48.53497" lon="7.45342">
        <ele>192</ele>
        <time>2017-04-09T12:52:34Z</time>
      </trkpt>
      <trkpt lat="48.53494" lon="7.45343">
        <ele>192</ele>
        <time>2017-04-09T12:52:35Z</time>
      </trkpt>
      <trkpt lat="48.5349" lon="7.45344">
        <ele>192</ele>
        <time>2017-04-09T12:52:36Z</time>
      </trkpt>
      <trkpt lat="48.53485" lon="7.45346">
        <ele>191</ele>
        <time>2017-04-09T12:52:38Z</time>
      </trkpt>
      <trkpt lat="48.53471" lon="7.4535">
        <ele>191</ele>
        <time>2017-04-09T12:52:47Z</time>
      </trkpt>
      <trkpt lat="48.53467" lon="7.4535">
        <ele>191</ele>
        <time>2017-04-09T12:52:52Z</time>
      </trkpt>
      <trkpt lat="48.53467" lon="7.4535">
        <ele>191</ele>
        <time>2017-04-09T12:52:53Z</time>
      </trkpt>
      <trkpt lat="48.53464" lon="7.45351">
        <ele>191</ele>
        <time>2017-04-09T12:53:05Z</time>
      </trkpt>
      <trkpt lat="48.53459" lon="7.45356">
        <ele>191</ele>
        <time>2017-04-09T12:53:07Z</time>
      </trkpt>
      <trkpt lat="48.5345" lon="7.4536">
        <ele>191</ele>
        <time>2017-04-09T12:53:12Z</time>
      </trkpt>
      <trkpt lat="48.53445" lon="7.45362">
        <ele>191</ele>
        <time>2017-04-09T12:53:18Z</time>
      </trkpt>
      <trkpt lat="48.53432" lon="7.4538">
        <ele>191</ele>
        <time>2017-04-09T12:53:51Z</time>
      </trkpt>
      <trkpt lat="48.53419" lon="7.45379">
        <ele>191</ele>
        <time>2017-04-09T12:53:56Z</time>
      </trkpt>
      <trkpt lat="48.53384" lon="7.45357">
        <ele>192</ele>
        <time>2017-04-09T12:54:05Z</time>
      </trkpt>
      <trkpt lat="48.53376" lon="7.45376">
        <ele>192</ele>
        <time>2017-04-09T12:54:08Z</time>
      </trkpt>
      <trkpt lat="48.53376" lon="7.45384">
        <ele>192</ele>
        <time>2017-04-09T12:54:09Z</time>
      </trkpt>
      <trkpt lat="48.53379" lon="7.45425">
        <ele>191</ele>
        <time>2017-04-09T12:54:16Z</time>
      </trkpt>
      <trkpt lat="48.53382" lon="7.45444">
        <ele>191</ele>
        <time>2017-04-09T12:54:19Z</time>
      </trkpt>
      <trkpt lat="48.53388" lon="7.45462">
        <ele>191</ele>
        <time>2017-04-09T12:54:22Z</time>
      </trkpt>
      <trkpt lat="48.53392" lon="7.45473">
        <ele>191</ele>
        <time>2017-04-09T12:54:24Z</time>
      </trkpt>
      <trkpt lat="48.53395" lon="7.45478">
        <ele>191</ele>
        <time>2017-04-09T12:54:25Z</time>
      </trkpt>
      <trkpt lat="48.53397" lon="7.45484">
        <ele>191</ele>
        <time>2017-04-09T12:54:26Z</time>
      </trkpt>
      <trkpt lat="48.534" lon="7.45489">
        <ele>191</ele>
        <time>2017-04-09T12:54:27Z</time>
      </trkpt>
      <trkpt lat="48.53402" lon="7.45494">
        <ele>191</ele>
        <time>2017-04-09T12:54:28Z</time>
      </trkpt>
      <trkpt lat="48.53407" lon="7.45523">
        <ele>190</ele>
        <time>2017-04-09T12:54:32Z</time>
      </trkpt>
      <trkpt lat="48.53407" lon="7.45556">
        <ele>190</ele>
        <time>2017-04-09T12:54:37Z</time>
      </trkpt>
      <trkpt lat="48.53404" lon="7.45591">
        <ele>189</ele>
        <time>2017-04-09T12:54:43Z</time>
      </trkpt>
      <trkpt lat="48.53398" lon="7.45637">
        <ele>189</ele>
        <time>2017-04-09T12:54:49Z</time>
      </trkpt>
      <trkpt lat="48.53393" lon="7.45676">
        <ele>189</ele>
        <time>2017-04-09T12:54:55Z</time>
      </trkpt>
      <trkpt lat="48.53382" lon="7.45725">
        <ele>189</ele>
        <time>2017-04-09T12:55:02Z</time>
      </trkpt>
      <trkpt lat="48.53375" lon="7.45774">
        <ele>189</ele>
        <time>2017-04-09T12:55:09Z</time>
      </trkpt>
      <trkpt lat="48.5337" lon="7.45823">
        <ele>189</ele>
        <time>2017-04-09T12:55:16Z</time>
      </trkpt>
      <trkpt lat="48.5337" lon="7.45829">
        <ele>189</ele>
        <time>2017-04-09T12:55:17Z</time>
      </trkpt>
      <trkpt lat="48.53371" lon="7.45876">
        <ele>188</ele>
        <time>2017-04-09T12:55:24Z</time>
      </trkpt>
      <trkpt lat="48.53374" lon="7.45947">
        <ele>187</ele>
        <time>2017-04-09T12:55:34Z</time>
      </trkpt>
      <trkpt lat="48.53378" lon="7.46015">
        <ele>188</ele>
        <time>2017-04-09T12:55:44Z</time>
      </trkpt>
      <trkpt lat="48.53383" lon="7.4606">
        <ele>188</ele>
        <time>2017-04-09T12:55:51Z</time>
      </trkpt>
      <trkpt lat="48.53387" lon="7.46099">
        <ele>189</ele>
        <time>2017-04-09T12:55:58Z</time>
      </trkpt>
      <trkpt lat="48.53374" lon="7.46112">
        <ele>189</ele>
        <time>2017-04-09T12:56:02Z</time>
      </trkpt>
      <trkpt lat="48.5337" lon="7.46115">
        <ele>189</ele>
        <time>2017-04-09T12:56:03Z</time>
      </trkpt>
      <trkpt lat="48.5334" lon="7.46136">
        <ele>188</ele>
        <time>2017-04-09T12:56:10Z</time>
      </trkpt>
      <trkpt lat="48.53304" lon="7.46153">
        <ele>188</ele>
        <time>2017-04-09T12:56:18Z</time>
      </trkpt>
      <trkpt lat="48.53274" lon="7.46173">
        <ele>188</ele>
        <time>2017-04-09T12:56:25Z</time>
      </trkpt>
      <trkpt lat="48.53267" lon="7.46179">
        <ele>188</ele>
        <time>2017-04-09T12:56:27Z</time>
      </trkpt>
      <trkpt lat="48.5326" lon="7.46191">
        <ele>188</ele>
        <time>2017-04-09T12:56:29Z</time>
      </trkpt>
      <trkpt lat="48.53251" lon="7.46209">
        <ele>188</ele>
        <time>2017-04-09T12:56:32Z</time>
      </trkpt>
      <trkpt lat="48.53248" lon="7.46215">
        <ele>188</ele>
        <time>2017-04-09T12:56:33Z</time>
      </trkpt>
      <trkpt lat="48.53243" lon="7.46226">
        <ele>188</ele>
        <time>2017-04-09T12:56:35Z</time>
      </trkpt>
      <trkpt lat="48.53227" lon="7.46269">
        <ele>188</ele>
        <time>2017-04-09T12:56:42Z</time>
      </trkpt>
      <trkpt lat="48.53199" lon="7.46321">
        <ele>188</ele>
        <time>2017-04-09T12:56:49Z</time>
      </trkpt>
      <trkpt lat="48.53179" lon="7.46364">
        <ele>189</ele>
        <time>2017-04-09T12:56:55Z</time>
      </trkpt>
      <trkpt lat="48.53154" lon="7.46423">
        <ele>189</ele>
        <time>2017-04-09T12:57:02Z</time>
      </trkpt>
      <trkpt lat="48.53125" lon="7.46482">
        <ele>188</ele>
        <time>2017-04-09T12:57:10Z</time>
      </trkpt>
      <trkpt lat="48.53103" lon="7.46528">
        <ele>187</ele>
        <time>2017-04-09T12:57:16Z</time>
      </trkpt>
      <trkpt lat="48.53099" lon="7.46536">
        <ele>187</ele>
        <time>2017-04-09T12:57:17Z</time>
      </trkpt>
      <trkpt lat="48.53096" lon="7.46544">
        <ele>187</ele>
        <time>2017-04-09T12:57:18Z</time>
      </trkpt>
      <trkpt lat="48.53094" lon="7.46552">
        <ele>187</ele>
        <time>2017-04-09T12:57:19Z</time>
      </trkpt>
      <trkpt lat="48.53093" lon="7.4656">
        <ele>187</ele>
        <time>2017-04-09T12:57:20Z</time>
      </trkpt>
      <trkpt lat="48.53092" lon="7.46569">
        <ele>186</ele>
        <time>2017-04-09T12:57:21Z</time>
      </trkpt>
      <trkpt lat="48.53072" lon="7.46621">
        <ele>185</ele>
        <time>2017-04-09T12:57:28Z</time>
      </trkpt>
      <trkpt lat="48.53042" lon="7.46686">
        <ele>184</ele>
        <time>2017-04-09T12:57:37Z</time>
      </trkpt>
      <trkpt lat="48.53022" lon="7.46731">
        <ele>184</ele>
        <time>2017-04-09T12:57:43Z</time>
      </trkpt>
      <trkpt lat="48.52999" lon="7.46782">
        <ele>184</ele>
        <time>2017-04-09T12:57:50Z</time>
      </trkpt>
      <trkpt lat="48.52968" lon="7.46846">
        <ele>184</ele>
        <time>2017-04-09T12:57:59Z</time>
      </trkpt>
      <trkpt lat="48.52942" lon="7.46904">
        <ele>184</ele>
        <time>2017-04-09T12:58:07Z</time>
      </trkpt>
      <trkpt lat="48.52909" lon="7.4698">
        <ele>184</ele>
        <time>2017-04-09T12:58:17Z</time>
      </trkpt>
      <trkpt lat="48.52906" lon="7.46987">
        <ele>184</ele>
        <time>2017-04-09T12:58:18Z</time>
      </trkpt>
      <trkpt lat="48.52903" lon="7.47013">
        <ele>184</ele>
        <time>2017-04-09T12:58:21Z</time>
      </trkpt>
      <trkpt lat="48.52908" lon="7.47036">
        <ele>184</ele>
        <time>2017-04-09T12:58:24Z</time>
      </trkpt>
      <trkpt lat="48.52909" lon="7.47044">
        <ele>183</ele>
        <time>2017-04-09T12:58:25Z</time>
      </trkpt>
      <trkpt lat="48.52907" lon="7.47052">
        <ele>183</ele>
        <time>2017-04-09T12:58:26Z</time>
      </trkpt>
      <trkpt lat="48.52904" lon="7.47058">
        <ele>183</ele>
        <time>2017-04-09T12:58:27Z</time>
      </trkpt>
      <trkpt lat="48.529" lon="7.47062">
        <ele>183</ele>
        <time>2017-04-09T12:58:28Z</time>
      </trkpt>
      <trkpt lat="48.52895" lon="7.47064">
        <ele>183</ele>
        <time>2017-04-09T12:58:29Z</time>
      </trkpt>
      <trkpt lat="48.52889" lon="7.47066">
        <ele>183</ele>
        <time>2017-04-09T12:58:30Z</time>
      </trkpt>
      <trkpt lat="48.52884" lon="7.47068">
        <ele>183</ele>
        <time>2017-04-09T12:58:31Z</time>
      </trkpt>
      <trkpt lat="48.52878" lon="7.4707">
        <ele>183</ele>
        <time>2017-04-09T12:58:32Z</time>
      </trkpt>
      <trkpt lat="48.52873" lon="7.47073">
        <ele>183</ele>
        <time>2017-04-09T12:58:33Z</time>
      </trkpt>
      <trkpt lat="48.52865" lon="7.47084">
        <ele>183</ele>
        <time>2017-04-09T12:58:35Z</time>
      </trkpt>
      <trkpt lat="48.52847" lon="7.47126">
        <ele>184</ele>
        <time>2017-04-09T12:58:41Z</time>
      </trkpt>
      <trkpt lat="48.52829" lon="7.47163">
        <ele>184</ele>
        <time>2017-04-09T12:58:46Z</time>
      </trkpt>
      <trkpt lat="48.52825" lon="7.4717">
        <ele>184</ele>
        <time>2017-04-09T12:58:47Z</time>
      </trkpt>
      <trkpt lat="48.52821" lon="7.47177">
        <ele>184</ele>
        <time>2017-04-09T12:58:48Z</time>
      </trkpt>
      <trkpt lat="48.52817" lon="7.47184">
        <ele>184</ele>
        <time>2017-04-09T12:58:49Z</time>
      </trkpt>
      <trkpt lat="48.52814" lon="7.47191">
        <ele>184</ele>
        <time>2017-04-09T12:58:50Z</time>
      </trkpt>
      <trkpt lat="48.52792" lon="7.47238">
        <ele>184</ele>
        <time>2017-04-09T12:58:57Z</time>
      </trkpt>
      <trkpt lat="48.52757" lon="7.4731">
        <ele>182</ele>
        <time>2017-04-09T12:59:08Z</time>
      </trkpt>
      <trkpt lat="48.52754" lon="7.47317">
        <ele>182</ele>
        <time>2017-04-09T12:59:09Z</time>
      </trkpt>
      <trkpt lat="48.52723" lon="7.47384">
        <ele>182</ele>
        <time>2017-04-09T12:59:19Z</time>
      </trkpt>
      <trkpt lat="48.52691" lon="7.47451">
        <ele>183</ele>
        <time>2017-04-09T12:59:29Z</time>
      </trkpt>
      <trkpt lat="48.52669" lon="7.475">
        <ele>183</ele>
        <time>2017-04-09T12:59:36Z</time>
      </trkpt>
      <trkpt lat="48.52638" lon="7.47567">
        <ele>185</ele>
        <time>2017-04-09T12:59:46Z</time>
      </trkpt>
      <trkpt lat="48.52634" lon="7.47574">
        <ele>185</ele>
        <time>2017-04-09T12:59:47Z</time>
      </trkpt>
      <trkpt lat="48.52613" lon="7.47621">
        <ele>185</ele>
        <time>2017-04-09T12:59:54Z</time>
      </trkpt>
      <trkpt lat="48.52604" lon="7.4764">
        <ele>185</ele>
        <time>2017-04-09T12:59:57Z</time>
      </trkpt>
      <trkpt lat="48.52601" lon="7.47646">
        <ele>186</ele>
        <time>2017-04-09T12:59:58Z</time>
      </trkpt>
      <trkpt lat="48.52598" lon="7.47651">
        <ele>186</ele>
        <time>2017-04-09T12:59:59Z</time>
      </trkpt>
      <trkpt lat="48.52595" lon="7.47657">
        <ele>186</ele>
        <time>2017-04-09T13:00:00Z</time>
      </trkpt>
      <trkpt lat="48.52592" lon="7.47663">
        <ele>186</ele>
        <time>2017-04-09T13:00:01Z</time>
      </trkpt>
      <trkpt lat="48.52587" lon="7.47675">
        <ele>186</ele>
        <time>2017-04-09T13:00:03Z</time>
      </trkpt>
      <trkpt lat="48.52565" lon="7.47723">
        <ele>186</ele>
        <time>2017-04-09T13:00:11Z</time>
      </trkpt>
      <trkpt lat="48.52556" lon="7.47743">
        <ele>186</ele>
        <time>2017-04-09T13:00:14Z</time>
      </trkpt>
      <trkpt lat="48.52553" lon="7.47749">
        <ele>186</ele>
        <time>2017-04-09T13:00:15Z</time>
      </trkpt>
      <trkpt lat="48.5255" lon="7.47755">
        <ele>185</ele>
        <time>2017-04-09T13:00:16Z</time>
      </trkpt>
      <trkpt lat="48.52547" lon="7.47762">
        <ele>185</ele>
        <time>2017-04-09T13:00:17Z</time>
      </trkpt>
      <trkpt lat="48.52544" lon="7.47769">
        <ele>186</ele>
        <time>2017-04-09T13:00:18Z</time>
      </trkpt>
      <trkpt lat="48.52517" lon="7.47827">
        <ele>186</ele>
        <time>2017-04-09T13:00:27Z</time>
      </trkpt>
      <trkpt lat="48.52509" lon="7.47847">
        <ele>186</ele>
        <time>2017-04-09T13:00:30Z</time>
      </trkpt>
      <trkpt lat="48.52504" lon="7.4787">
        <ele>186</ele>
        <time>2017-04-09T13:00:33Z</time>
      </trkpt>
      <trkpt lat="48.525" lon="7.47893">
        <ele>187</ele>
        <time>2017-04-09T13:00:36Z</time>
      </trkpt>
      <trkpt lat="48.52499" lon="7.479">
        <ele>187</ele>
        <time>2017-04-09T13:00:37Z</time>
      </trkpt>
      <trkpt lat="48.52499" lon="7.47908">
        <ele>186</ele>
        <time>2017-04-09T13:00:38Z</time>
      </trkpt>
      <trkpt lat="48.52498" lon="7.47915">
        <ele>186</ele>
        <time>2017-04-09T13:00:39Z</time>
      </trkpt>
      <trkpt lat="48.52498" lon="7.47922">
        <ele>186</ele>
        <time>2017-04-09T13:00:40Z</time>
      </trkpt>
      <trkpt lat="48.52498" lon="7.47929">
        <ele>186</ele>
        <time>2017-04-09T13:00:41Z</time>
      </trkpt>
      <trkpt lat="48.52496" lon="7.47952">
        <ele>186</ele>
        <time>2017-04-09T13:00:45Z</time>
      </trkpt>
      <trkpt lat="48.52486" lon="7.47979">
        <ele>185</ele>
        <time>2017-04-09T13:00:50Z</time>
      </trkpt>
      <trkpt lat="48.52483" lon="7.48035">
        <ele>185</ele>
        <time>2017-04-09T13:00:57Z</time>
      </trkpt>
      <trkpt lat="48.52479" lon="7.48085">
        <ele>185</ele>
        <time>2017-04-09T13:01:03Z</time>
      </trkpt>
      <trkpt lat="48.52479" lon="7.48093">
        <ele>185</ele>
        <time>2017-04-09T13:01:04Z</time>
      </trkpt>
      <trkpt lat="48.52478" lon="7.48102">
        <ele>185</ele>
        <time>2017-04-09T13:01:05Z</time>
      </trkpt>
      <trkpt lat="48.52477" lon="7.4811">
        <ele>185</ele>
        <time>2017-04-09T13:01:06Z</time>
      </trkpt>
      <trkpt lat="48.52476" lon="7.48118">
        <ele>185</ele>
        <time>2017-04-09T13:01:07Z</time>
      </trkpt>
      <trkpt lat="48.52473" lon="7.48161">
        <ele>185</ele>
        <time>2017-04-09T13:01:12Z</time>
      </trkpt>
      <trkpt lat="48.52465" lon="7.48248">
        <ele>185</ele>
        <time>2017-04-09T13:01:22Z</time>
      </trkpt>
      <trkpt lat="48.52463" lon="7.48257">
        <ele>184</ele>
        <time>2017-04-09T13:01:23Z</time>
      </trkpt>
      <trkpt lat="48.52454" lon="7.48265">
        <ele>184</ele>
        <time>2017-04-09T13:01:25Z</time>
      </trkpt>
      <trkpt lat="48.52443" lon="7.48268">
        <ele>184</ele>
        <time>2017-04-09T13:01:27Z</time>
      </trkpt>
      <trkpt lat="48.52421" lon="7.48276">
        <ele>184</ele>
        <time>2017-04-09T13:01:31Z</time>
      </trkpt>
      <trkpt lat="48.52416" lon="7.48276">
        <ele>184</ele>
        <time>2017-04-09T13:01:32Z</time>
      </trkpt>
      <trkpt lat="48.52394" lon="7.48278">
        <ele>184</ele>
        <time>2017-04-09T13:01:36Z</time>
      </trkpt>
      <trkpt lat="48.5239" lon="7.48277">
        <ele>184</ele>
        <time>2017-04-09T13:01:37Z</time>
      </trkpt>
      <trkpt lat="48.5237" lon="7.48268">
        <ele>184</ele>
        <time>2017-04-09T13:01:41Z</time>
      </trkpt>
      <trkpt lat="48.52361" lon="7.48272">
        <ele>184</ele>
        <time>2017-04-09T13:01:43Z</time>
      </trkpt>
      <trkpt lat="48.52358" lon="7.48277">
        <ele>184</ele>
        <time>2017-04-09T13:01:44Z</time>
      </trkpt>
      <trkpt lat="48.52356" lon="7.48282">
        <ele>184</ele>
        <time>2017-04-09T13:01:45Z</time>
      </trkpt>
      <trkpt lat="48.52354" lon="7.48287">
        <ele>184</ele>
        <time>2017-04-09T13:01:46Z</time>
      </trkpt>
      <trkpt lat="48.52352" lon="7.48293">
        <ele>184</ele>
        <time>2017-04-09T13:01:47Z</time>
      </trkpt>
      <trkpt lat="48.52349" lon="7.48299">
        <ele>184</ele>
        <time>2017-04-09T13:01:48Z</time>
      </trkpt>
      <trkpt lat="48.52346" lon="7.48304">
        <ele>184</ele>
        <time>2017-04-09T13:01:49Z</time>
      </trkpt>
      <trkpt lat="48.5234" lon="7.48312">
        <ele>184</ele>
        <time>2017-04-09T13:01:51Z</time>
      </trkpt>
      <trkpt lat="48.52324" lon="7.48336">
        <ele>184</ele>
        <time>2017-04-09T13:01:56Z</time>
      </trkpt>
      <trkpt lat="48.52321" lon="7.48341">
        <ele>184</ele>
        <time>2017-04-09T13:01:57Z</time>
      </trkpt>
      <trkpt lat="48.52303" lon="7.48369">
        <ele>185</ele>
        <time>2017-04-09T13:02:02Z</time>
      </trkpt>
      <trkpt lat="48.52279" lon="7.48402">
        <ele>185</ele>
        <time>2017-04-09T13:02:09Z</time>
      </trkpt>
      <trkpt lat="48.52264" lon="7.48423">
        <ele>185</ele>
        <time>2017-04-09T13:02:13Z</time>
      </trkpt>
      <trkpt lat="48.52259" lon="7.48428">
        <ele>185</ele>
        <time>2017-04-09T13:02:14Z</time>
      </trkpt>
      <trkpt lat="48.52226" lon="7.48469">
        <ele>186</ele>
        <time>2017-04-09T13:02:22Z</time>
      </trkpt>
      <trkpt lat="48.52188" lon="7.48511">
        <ele>186</ele>
        <time>2017-04-09T13:02:31Z</time>
      </trkpt>
      <trkpt lat="48.52156" lon="7.48547">
        <ele>187</ele>
        <time>2017-04-09T13:02:39Z</time>
      </trkpt>
      <trkpt lat="48.52145" lon="7.48561">
        <ele>187</ele>
        <time>2017-04-09T13:02:42Z</time>
      </trkpt>
      <trkpt lat="48.52132" lon="7.48579">
        <ele>187</ele>
        <time>2017-04-09T13:02:46Z</time>
      </trkpt>
      <trkpt lat="48.52118" lon="7.48594">
        <ele>186</ele>
        <time>2017-04-09T13:02:50Z</time>
      </trkpt>
      <trkpt lat="48.52115" lon="7.48599">
        <ele>186</ele>
        <time>2017-04-09T13:02:51Z</time>
      </trkpt>
      <trkpt lat="48.52112" lon="7.48604">
        <ele>186</ele>
        <time>2017-04-09T13:02:52Z</time>
      </trkpt>
      <trkpt lat="48.52109" lon="7.48609">
        <ele>186</ele>
        <time>2017-04-09T13:02:53Z</time>
      </trkpt>
      <trkpt lat="48.52106" lon="7.48612">
        <ele>186</ele>
        <time>2017-04-09T13:02:54Z</time>
      </trkpt>
      <trkpt lat="48.5208" lon="7.48648">
        <ele>186</ele>
        <time>2017-04-09T13:03:03Z</time>
      </trkpt>
      <trkpt lat="48.52065" lon="7.48666">
        <ele>186</ele>
        <time>2017-04-09T13:03:08Z</time>
      </trkpt>
      <trkpt lat="48.52061" lon="7.48668">
        <ele>186</ele>
        <time>2017-04-09T13:03:09Z</time>
      </trkpt>
      <trkpt lat="48.52057" lon="7.48669">
        <ele>186</ele>
        <time>2017-04-09T13:03:10Z</time>
      </trkpt>
      <trkpt lat="48.52053" lon="7.4867">
        <ele>186</ele>
        <time>2017-04-09T13:03:11Z</time>
      </trkpt>
      <trkpt lat="48.52049" lon="7.4867">
        <ele>186</ele>
        <time>2017-04-09T13:03:12Z</time>
      </trkpt>
      <trkpt lat="48.52034" lon="7.48672">
        <ele>186</ele>
        <time>2017-04-09T13:03:16Z</time>
      </trkpt>
      <trkpt lat="48.52011" lon="7.48676">
        <ele>187</ele>
        <time>2017-04-09T13:03:23Z</time>
      </trkpt>
      <trkpt lat="48.52008" lon="7.48677">
        <ele>187</ele>
        <time>2017-04-09T13:03:24Z</time>
      </trkpt>
      <trkpt lat="48.52004" lon="7.48677">
        <ele>187</ele>
        <time>2017-04-09T13:03:25Z</time>
      </trkpt>
      <trkpt lat="48.52001" lon="7.48677">
        <ele>187</ele>
        <time>2017-04-09T13:03:26Z</time>
      </trkpt>
      <trkpt lat="48.51998" lon="7.48677">
        <ele>187</ele>
        <time>2017-04-09T13:03:27Z</time>
      </trkpt>
      <trkpt lat="48.51978" lon="7.48682">
        <ele>187</ele>
        <time>2017-04-09T13:03:33Z</time>
      </trkpt>
      <trkpt lat="48.51975" lon="7.48682">
        <ele>187</ele>
        <time>2017-04-09T13:03:34Z</time>
      </trkpt>
      <trkpt lat="48.51972" lon="7.48682">
        <ele>187</ele>
        <time>2017-04-09T13:03:35Z</time>
      </trkpt>
      <trkpt lat="48.51968" lon="7.48682">
        <ele>187</ele>
        <time>2017-04-09T13:03:36Z</time>
      </trkpt>
      <trkpt lat="48.51965" lon="7.48682">
        <ele>187</ele>
        <time>2017-04-09T13:03:37Z</time>
      </trkpt>
      <trkpt lat="48.51962" lon="7.48682">
        <ele>187</ele>
        <time>2017-04-09T13:03:38Z</time>
      </trkpt>
      <trkpt lat="48.51958" lon="7.48683">
        <ele>187</ele>
        <time>2017-04-09T13:03:39Z</time>
      </trkpt>
      <trkpt lat="48.51946" lon="7.48685">
        <ele>187</ele>
        <time>2017-04-09T13:03:43Z</time>
      </trkpt>
      <trkpt lat="48.51942" lon="7.48685">
        <ele>187</ele>
        <time>2017-04-09T13:03:44Z</time>
      </trkpt>
      <trkpt lat="48.51939" lon="7.48686">
        <ele>187</ele>
        <time>2017-04-09T13:03:45Z</time>
      </trkpt>
      <trkpt lat="48.51935" lon="7.48685">
        <ele>187</ele>
        <time>2017-04-09T13:03:46Z</time>
      </trkpt>
      <trkpt lat="48.51932" lon="7.48686">
        <ele>187</ele>
        <time>2017-04-09T13:03:47Z</time>
      </trkpt>
      <trkpt lat="48.51929" lon="7.48686">
        <ele>187</ele>
        <time>2017-04-09T13:03:48Z</time>
      </trkpt>
      <trkpt lat="48.51914" lon="7.48687">
        <ele>187</ele>
        <time>2017-04-09T13:03:52Z</time>
      </trkpt>
      <trkpt lat="48.51903" lon="7.48688">
        <ele>187</ele>
        <time>2017-04-09T13:03:55Z</time>
      </trkpt>
      <trkpt lat="48.51899" lon="7.48688">
        <ele>187</ele>
        <time>2017-04-09T13:03:56Z</time>
      </trkpt>
      <trkpt lat="48.51894" lon="7.48688">
        <ele>187</ele>
        <time>2017-04-09T13:03:57Z</time>
      </trkpt>
      <trkpt lat="48.5189" lon="7.48687">
        <ele>187</ele>
        <time>2017-04-09T13:03:58Z</time>
      </trkpt>
      <trkpt lat="48.51886" lon="7.48687">
        <ele>187</ele>
        <time>2017-04-09T13:03:59Z</time>
      </trkpt>
      <trkpt lat="48.51858" lon="7.48686">
        <ele>187</ele>
        <time>2017-04-09T13:04:04Z</time>
      </trkpt>
      <trkpt lat="48.51852" lon="7.48686">
        <ele>187</ele>
        <time>2017-04-09T13:04:05Z</time>
      </trkpt>
      <trkpt lat="48.51845" lon="7.48686">
        <ele>187</ele>
        <time>2017-04-09T13:04:06Z</time>
      </trkpt>
      <trkpt lat="48.51839" lon="7.48685">
        <ele>187</ele>
        <time>2017-04-09T13:04:07Z</time>
      </trkpt>
      <trkpt lat="48.51831" lon="7.48685">
        <ele>187</ele>
        <time>2017-04-09T13:04:08Z</time>
      </trkpt>
      <trkpt lat="48.51824" lon="7.48685">
        <ele>187</ele>
        <time>2017-04-09T13:04:09Z</time>
      </trkpt>
      <trkpt lat="48.51816" lon="7.48685">
        <ele>187</ele>
        <time>2017-04-09T13:04:10Z</time>
      </trkpt>
      <trkpt lat="48.51807" lon="7.48684">
        <ele>187</ele>
        <time>2017-04-09T13:04:11Z</time>
      </trkpt>
      <trkpt lat="48.51799" lon="7.48684">
        <ele>187</ele>
        <time>2017-04-09T13:04:12Z</time>
      </trkpt>
      <trkpt lat="48.5179" lon="7.48684">
        <ele>188</ele>
        <time>2017-04-09T13:04:13Z</time>
      </trkpt>
      <trkpt lat="48.51781" lon="7.48684">
        <ele>188</ele>
        <time>2017-04-09T13:04:14Z</time>
      </trkpt>
      <trkpt lat="48.51771" lon="7.48684">
        <ele>188</ele>
        <time>2017-04-09T13:04:15Z</time>
      </trkpt>
      <trkpt lat="48.51762" lon="7.48684">
        <ele>188</ele>
        <time>2017-04-09T13:04:16Z</time>
      </trkpt>
      <trkpt lat="48.51752" lon="7.48684">
        <ele>188</ele>
        <time>2017-04-09T13:04:17Z</time>
      </trkpt>
      <trkpt lat="48.51743" lon="7.48684">
        <ele>188</ele>
        <time>2017-04-09T13:04:18Z</time>
      </trkpt>
      <trkpt lat="48.51709" lon="7.4868">
        <ele>188</ele>
        <time>2017-04-09T13:04:22Z</time>
      </trkpt>
      <trkpt lat="48.51693" lon="7.48673">
        <ele>188</ele>
        <time>2017-04-09T13:04:24Z</time>
      </trkpt>
      <trkpt lat="48.51655" lon="7.48657">
        <ele>187</ele>
        <time>2017-04-09T13:04:29Z</time>
      </trkpt>
      <trkpt lat="48.51617" lon="7.48651">
        <ele>187</ele>
        <time>2017-04-09T13:04:34Z</time>
      </trkpt>
      <trkpt lat="48.5161" lon="7.48651">
        <ele>187</ele>
        <time>2017-04-09T13:04:35Z</time>
      </trkpt>
      <trkpt lat="48.51602" lon="7.4865">
        <ele>187</ele>
        <time>2017-04-09T13:04:36Z</time>
      </trkpt>
      <trkpt lat="48.51595" lon="7.4865">
        <ele>187</ele>
        <time>2017-04-09T13:04:37Z</time>
      </trkpt>
      <trkpt lat="48.51587" lon="7.4865">
        <ele>187</ele>
        <time>2017-04-09T13:04:38Z</time>
      </trkpt>
      <trkpt lat="48.51552" lon="7.48649">
        <ele>187</ele>
        <time>2017-04-09T13:04:43Z</time>
      </trkpt>
      <trkpt lat="48.51526" lon="7.48652">
        <ele>187</ele>
        <time>2017-04-09T13:04:47Z</time>
      </trkpt>
      <trkpt lat="48.51519" lon="7.48652">
        <ele>187</ele>
        <time>2017-04-09T13:04:48Z</time>
      </trkpt>
      <trkpt lat="48.51513" lon="7.48653">
        <ele>187</ele>
        <time>2017-04-09T13:04:49Z</time>
      </trkpt>
      <trkpt lat="48.51506" lon="7.48654">
        <ele>187</ele>
        <time>2017-04-09T13:04:50Z</time>
      </trkpt>
      <trkpt lat="48.51499" lon="7.48655">
        <ele>187</ele>
        <time>2017-04-09T13:04:51Z</time>
      </trkpt>
      <trkpt lat="48.51447" lon="7.4867">
        <ele>187</ele>
        <time>2017-04-09T13:04:59Z</time>
      </trkpt>
      <trkpt lat="48.51395" lon="7.48693">
        <ele>187</ele>
        <time>2017-04-09T13:05:07Z</time>
      </trkpt>
      <trkpt lat="48.51343" lon="7.48718">
        <ele>187</ele>
        <time>2017-04-09T13:05:15Z</time>
      </trkpt>
      <trkpt lat="48.51325" lon="7.48728">
        <ele>187</ele>
        <time>2017-04-09T13:05:18Z</time>
      </trkpt>
      <trkpt lat="48.5127" lon="7.48752">
        <ele>186</ele>
        <time>2017-04-09T13:05:27Z</time>
      </trkpt>
      <trkpt lat="48.51213" lon="7.48771">
        <ele>186</ele>
        <time>2017-04-09T13:05:37Z</time>
      </trkpt>
      <trkpt lat="48.5119" lon="7.48779">
        <ele>187</ele>
        <time>2017-04-09T13:05:41Z</time>
      </trkpt>
      <trkpt lat="48.51134" lon="7.48796">
        <ele>187</ele>
        <time>2017-04-09T13:05:51Z</time>
      </trkpt>
      <trkpt lat="48.51081" lon="7.48812">
        <ele>188</ele>
        <time>2017-04-09T13:06:01Z</time>
      </trkpt>
      <trkpt lat="48.51075" lon="7.48814">
        <ele>188</ele>
        <time>2017-04-09T13:06:02Z</time>
      </trkpt>
      <trkpt lat="48.5107" lon="7.48815">
        <ele>188</ele>
        <time>2017-04-09T13:06:03Z</time>
      </trkpt>
      <trkpt lat="48.51065" lon="7.48816">
        <ele>188</ele>
        <time>2017-04-09T13:06:04Z</time>
      </trkpt>
      <trkpt lat="48.5106" lon="7.48818">
        <ele>189</ele>
        <time>2017-04-09T13:06:05Z</time>
      </trkpt>
      <trkpt lat="48.51054" lon="7.4882">
        <ele>189</ele>
        <time>2017-04-09T13:06:06Z</time>
      </trkpt>
      <trkpt lat="48.51017" lon="7.48827">
        <ele>189</ele>
        <time>2017-04-09T13:06:13Z</time>
      </trkpt>
      <trkpt lat="48.51003" lon="7.48828">
        <ele>189</ele>
        <time>2017-04-09T13:06:16Z</time>
      </trkpt>
      <trkpt lat="48.50998" lon="7.48829">
        <ele>189</ele>
        <time>2017-04-09T13:06:17Z</time>
      </trkpt>
      <trkpt lat="48.50993" lon="7.48829">
        <ele>189</ele>
        <time>2017-04-09T13:06:18Z</time>
      </trkpt>
      <trkpt lat="48.50989" lon="7.4883">
        <ele>189</ele>
        <time>2017-04-09T13:06:19Z</time>
      </trkpt>
      <trkpt lat="48.50984" lon="7.4883">
        <ele>190</ele>
        <time>2017-04-09T13:06:20Z</time>
      </trkpt>
      <trkpt lat="48.50969" lon="7.4883">
        <ele>190</ele>
        <time>2017-04-09T13:06:23Z</time>
      </trkpt>
      <trkpt lat="48.50959" lon="7.48831">
        <ele>190</ele>
        <time>2017-04-09T13:06:25Z</time>
      </trkpt>
      <trkpt lat="48.50954" lon="7.48831">
        <ele>190</ele>
        <time>2017-04-09T13:06:26Z</time>
      </trkpt>
      <trkpt lat="48.50949" lon="7.48831">
        <ele>190</ele>
        <time>2017-04-09T13:06:27Z</time>
      </trkpt>
      <trkpt lat="48.50944" lon="7.48831">
        <ele>190</ele>
        <time>2017-04-09T13:06:28Z</time>
      </trkpt>
      <trkpt lat="48.50938" lon="7.48831">
        <ele>190</ele>
        <time>2017-04-09T13:06:29Z</time>
      </trkpt>
      <trkpt lat="48.50912" lon="7.48829">
        <ele>190</ele>
        <time>2017-04-09T13:06:34Z</time>
      </trkpt>
      <trkpt lat="48.50874" lon="7.48816">
        <ele>191</ele>
        <time>2017-04-09T13:06:41Z</time>
      </trkpt>
      <trkpt lat="48.50821" lon="7.488">
        <ele>191</ele>
        <time>2017-04-09T13:06:50Z</time>
      </trkpt>
      <trkpt lat="48.50815" lon="7.48799">
        <ele>191</ele>
        <time>2017-04-09T13:06:51Z</time>
      </trkpt>
      <trkpt lat="48.50769" lon="7.48795">
        <ele>191</ele>
        <time>2017-04-09T13:06:58Z</time>
      </trkpt>
      <trkpt lat="48.50712" lon="7.48804">
        <ele>191</ele>
        <time>2017-04-09T13:07:06Z</time>
      </trkpt>
      <trkpt lat="48.50699" lon="7.48808">
        <ele>191</ele>
        <time>2017-04-09T13:07:08Z</time>
      </trkpt>
      <trkpt lat="48.50692" lon="7.4881">
        <ele>191</ele>
        <time>2017-04-09T13:07:09Z</time>
      </trkpt>
      <trkpt lat="48.50685" lon="7.48812">
        <ele>191</ele>
        <time>2017-04-09T13:07:10Z</time>
      </trkpt>
      <trkpt lat="48.50678" lon="7.48814">
        <ele>191</ele>
        <time>2017-04-09T13:07:11Z</time>
      </trkpt>
      <trkpt lat="48.50671" lon="7.48815">
        <ele>191</ele>
        <time>2017-04-09T13:07:12Z</time>
      </trkpt>
      <trkpt lat="48.50656" lon="7.48819">
        <ele>191</ele>
        <time>2017-04-09T13:07:14Z</time>
      </trkpt>
      <trkpt lat="48.506" lon="7.48833">
        <ele>191</ele>
        <time>2017-04-09T13:07:22Z</time>
      </trkpt>
      <trkpt lat="48.50594" lon="7.48835">
        <ele>191</ele>
        <time>2017-04-09T13:07:23Z</time>
      </trkpt>
      <trkpt lat="48.50539" lon="7.48846">
        <ele>191</ele>
        <time>2017-04-09T13:07:32Z</time>
      </trkpt>
      <trkpt lat="48.50534" lon="7.48848">
        <ele>191</ele>
        <time>2017-04-09T13:07:33Z</time>
      </trkpt>
      <trkpt lat="48.50507" lon="7.48854">
        <ele>191</ele>
        <time>2017-04-09T13:07:38Z</time>
      </trkpt>
      <trkpt lat="48.50458" lon="7.48873">
        <ele>192</ele>
        <time>2017-04-09T13:07:47Z</time>
      </trkpt>
      <trkpt lat="48.50452" lon="7.48876">
        <ele>192</ele>
        <time>2017-04-09T13:07:48Z</time>
      </trkpt>
      <trkpt lat="48.50446" lon="7.4888">
        <ele>192</ele>
        <time>2017-04-09T13:07:49Z</time>
      </trkpt>
      <trkpt lat="48.5044" lon="7.48884">
        <ele>192</ele>
        <time>2017-04-09T13:07:50Z</time>
      </trkpt>
      <trkpt lat="48.50435" lon="7.48889">
        <ele>192</ele>
        <time>2017-04-09T13:07:51Z</time>
      </trkpt>
      <trkpt lat="48.5043" lon="7.48893">
        <ele>192</ele>
        <time>2017-04-09T13:07:52Z</time>
      </trkpt>
      <trkpt lat="48.50387" lon="7.48922">
        <ele>190</ele>
        <time>2017-04-09T13:08:00Z</time>
      </trkpt>
      <trkpt lat="48.50382" lon="7.48921">
        <ele>190</ele>
        <time>2017-04-09T13:08:01Z</time>
      </trkpt>
      <trkpt lat="48.50366" lon="7.48905">
        <ele>190</ele>
        <time>2017-04-09T13:08:04Z</time>
      </trkpt>
      <trkpt lat="48.50333" lon="7.48865">
        <ele>188</ele>
        <time>2017-04-09T13:08:11Z</time>
      </trkpt>
      <trkpt lat="48.50304" lon="7.48816">
        <ele>189</ele>
        <time>2017-04-09T13:08:18Z</time>
      </trkpt>
      <trkpt lat="48.50275" lon="7.48765">
        <ele>188</ele>
        <time>2017-04-09T13:08:25Z</time>
      </trkpt>
      <trkpt lat="48.50243" lon="7.48713">
        <ele>187</ele>
        <time>2017-04-09T13:08:32Z</time>
      </trkpt>
      <trkpt lat="48.50238" lon="7.48706">
        <ele>187</ele>
        <time>2017-04-09T13:08:33Z</time>
      </trkpt>
      <trkpt lat="48.50233" lon="7.48698">
        <ele>187</ele>
        <time>2017-04-09T13:08:34Z</time>
      </trkpt>
      <trkpt lat="48.50229" lon="7.48691">
        <ele>187</ele>
        <time>2017-04-09T13:08:35Z</time>
      </trkpt>
      <trkpt lat="48.50225" lon="7.48683">
        <ele>187</ele>
        <time>2017-04-09T13:08:36Z</time>
      </trkpt>
      <trkpt lat="48.5019" lon="7.48621">
        <ele>188</ele>
        <time>2017-04-09T13:08:44Z</time>
      </trkpt>
      <trkpt lat="48.50185" lon="7.48613">
        <ele>188</ele>
        <time>2017-04-09T13:08:45Z</time>
      </trkpt>
      <trkpt lat="48.50148" lon="7.4855">
        <ele>188</ele>
        <time>2017-04-09T13:08:53Z</time>
      </trkpt>
      <trkpt lat="48.50134" lon="7.48528">
        <ele>188</ele>
        <time>2017-04-09T13:08:56Z</time>
      </trkpt>
      <trkpt lat="48.50098" lon="7.4847">
        <ele>188</ele>
        <time>2017-04-09T13:09:04Z</time>
      </trkpt>
      <trkpt lat="48.50095" lon="7.48462">
        <ele>188</ele>
        <time>2017-04-09T13:09:05Z</time>
      </trkpt>
      <trkpt lat="48.50092" lon="7.48452">
        <ele>188</ele>
        <time>2017-04-09T13:09:06Z</time>
      </trkpt>
      <trkpt lat="48.50091" lon="7.48441">
        <ele>188</ele>
        <time>2017-04-09T13:09:07Z</time>
      </trkpt>
      <trkpt lat="48.50089" lon="7.4843">
        <ele>187</ele>
        <time>2017-04-09T13:09:08Z</time>
      </trkpt>
      <trkpt lat="48.50087" lon="7.4842">
        <ele>187</ele>
        <time>2017-04-09T13:09:09Z</time>
      </trkpt>
      <trkpt lat="48.50079" lon="7.48402">
        <ele>186</ele>
        <time>2017-04-09T13:09:11Z</time>
      </trkpt>
      <trkpt lat="48.50076" lon="7.48382">
        <ele>186</ele>
        <time>2017-04-09T13:09:13Z</time>
      </trkpt>
      <trkpt lat="48.50079" lon="7.48373">
        <ele>186</ele>
        <time>2017-04-09T13:09:14Z</time>
      </trkpt>
      <trkpt lat="48.50094" lon="7.48312">
        <ele>189</ele>
        <time>2017-04-09T13:09:21Z</time>
      </trkpt>
      <trkpt lat="48.50099" lon="7.48287">
        <ele>189</ele>
        <time>2017-04-09T13:09:24Z</time>
      </trkpt>
      <trkpt lat="48.50101" lon="7.4828">
        <ele>189</ele>
        <time>2017-04-09T13:09:25Z</time>
      </trkpt>
      <trkpt lat="48.50104" lon="7.48273">
        <ele>189</ele>
        <time>2017-04-09T13:09:26Z</time>
      </trkpt>
      <trkpt lat="48.50108" lon="7.48266">
        <ele>189</ele>
        <time>2017-04-09T13:09:27Z</time>
      </trkpt>
      <trkpt lat="48.50111" lon="7.4826">
        <ele>189</ele>
        <time>2017-04-09T13:09:28Z</time>
      </trkpt>
      <trkpt lat="48.50115" lon="7.48253">
        <ele>189</ele>
        <time>2017-04-09T13:09:29Z</time>
      </trkpt>
      <trkpt lat="48.50119" lon="7.48247">
        <ele>188</ele>
        <time>2017-04-09T13:09:30Z</time>
      </trkpt>
      <trkpt lat="48.5013" lon="7.48228">
        <ele>188</ele>
        <time>2017-04-09T13:09:33Z</time>
      </trkpt>
      <trkpt lat="48.50171" lon="7.48163">
        <ele>188</ele>
        <time>2017-04-09T13:09:43Z</time>
      </trkpt>
      <trkpt lat="48.50175" lon="7.48156">
        <ele>188</ele>
        <time>2017-04-09T13:09:44Z</time>
      </trkpt>
      <trkpt lat="48.50178" lon="7.48138">
        <ele>189</ele>
        <time>2017-04-09T13:09:46Z</time>
      </trkpt>
      <trkpt lat="48.50177" lon="7.48098">
        <ele>188</ele>
        <time>2017-04-09T13:09:50Z</time>
      </trkpt>
      <trkpt lat="48.50171" lon="7.48056">
        <ele>188</ele>
        <time>2017-04-09T13:09:54Z</time>
      </trkpt>
      <trkpt lat="48.5017" lon="7.48046">
        <ele>188</ele>
        <time>2017-04-09T13:09:55Z</time>
      </trkpt>
      <trkpt lat="48.50168" lon="7.48036">
        <ele>188</ele>
        <time>2017-04-09T13:09:56Z</time>
      </trkpt>
      <trkpt lat="48.50166" lon="7.48026">
        <ele>186</ele>
        <time>2017-04-09T13:09:57Z</time>
      </trkpt>
      <trkpt lat="48.50164" lon="7.48015">
        <ele>186</ele>
        <time>2017-04-09T13:09:58Z</time>
      </trkpt>
      <trkpt lat="48.50149" lon="7.47948">
        <ele>185</ele>
        <time>2017-04-09T13:10:05Z</time>
      </trkpt>
      <trkpt lat="48.50137" lon="7.47874">
        <ele>185</ele>
        <time>2017-04-09T13:10:13Z</time>
      </trkpt>
      <trkpt lat="48.50125" lon="7.47804">
        <ele>185</ele>
        <time>2017-04-09T13:10:21Z</time>
      </trkpt>
      <trkpt lat="48.50113" lon="7.47723">
        <ele>186</ele>
        <time>2017-04-09T13:10:30Z</time>
      </trkpt>
      <trkpt lat="48.5011" lon="7.47704">
        <ele>186</ele>
        <time>2017-04-09T13:10:32Z</time>
      </trkpt>
      <trkpt lat="48.50096" lon="7.47621">
        <ele>187</ele>
        <time>2017-04-09T13:10:41Z</time>
      </trkpt>
      <trkpt lat="48.50095" lon="7.47612">
        <ele>187</ele>
        <time>2017-04-09T13:10:42Z</time>
      </trkpt>
      <trkpt lat="48.50082" lon="7.47541">
        <ele>186</ele>
        <time>2017-04-09T13:10:50Z</time>
      </trkpt>
      <trkpt lat="48.50071" lon="7.4748">
        <ele>187</ele>
        <time>2017-04-09T13:10:58Z</time>
      </trkpt>
      <trkpt lat="48.50068" lon="7.47469">
        <ele>187</ele>
        <time>2017-04-09T13:11:00Z</time>
      </trkpt>
      <trkpt lat="48.50064" lon="7.47461">
        <ele>187</ele>
        <time>2017-04-09T13:11:02Z</time>
      </trkpt>
      <trkpt lat="48.50062" lon="7.4746">
        <ele>187</ele>
        <time>2017-04-09T13:11:03Z</time>
      </trkpt>
      <trkpt lat="48.50058" lon="7.47461">
        <ele>187</ele>
        <time>2017-04-09T13:11:05Z</time>
      </trkpt>
      <trkpt lat="48.50056" lon="7.47462">
        <ele>187</ele>
        <time>2017-04-09T13:11:06Z</time>
      </trkpt>
      <trkpt lat="48.50054" lon="7.47464">
        <ele>187</ele>
        <time>2017-04-09T13:11:07Z</time>
      </trkpt>
      <trkpt lat="48.50048" lon="7.47468">
        <ele>187</ele>
        <time>2017-04-09T13:11:12Z</time>
      </trkpt>
    </trkseg>
  </trk>
</gpx>